[[{"header":{"parameterUnit":"m.s-1","parameterCategory":1,"la1":30.6,"la2":29.2853,"lo1":-89.7004,"lo2":-87.6739,"dy":0.0162,"dx":0.0183,"nx":112,"ny":82,"refTime":"2023-04-27T00:00:00:Z","depth":0,"parameterNumber":2,"parameterNumberName":"U-component_of_WINDS"},"data":[0.0,0.0,0.0,0.0,0.0,0.0,0.0,0.0,0.0,0.0,0.0,0.0,0.0,0.0,0.0,0.0,0.0,0.0,0.0,0.0,0.0,0.0,0.0,0.0,0.0,0.0,0.0,0.0,0.0,0.0,0.0,0.0,0.0,0.0,0.0,0.0,0.0,0.0,0.0,0.0,0.0,0.0,0.0,0.0,0.0,0.0,0.0,0.0,0.0,0.0,0.0,0.0,0.0,0.0,0.0,0.0,0.0,0.0,0.0,0.0,0.0,0.0,0.0,0.0,0.0,0.0,0.0,0.0,0.0,0.0,0.0,0.0,0.0,0.0,0.0,0.0,0.0,0.0,0.0,0.0,0.0,0.0,0.0,0.0,0.0,0.0,0.0,0.0,0.0,0.0,2.6932,2.073,1.8028,1.6683,1.6566,1.6122,1.815,2.3479,0.0,0.0,0.0,0.0,0.0,0.0,0.0,0.0,0.0,0.0,0.0,0.0,0.0,0.0,0.0,0.0,0.0,0.0,0.0,0.0,0.0,0.0,0.0,0.0,0.0,0.0,0.0,0.0,0.0,0.0,0.0,0.0,0.0,0.0,0.0,0.0,0.0,0.0,0.0,0.0,0.0,0.0,0.0,0.0,0.0,0.0,0.0,0.0,0.0,0.0,0.0,0.0,0.0,0.0,0.0,0.0,0.0,0.0,0.0,0.0,0.0,0.0,0.0,0.0,0.0,0.0,0.0,0.0,0.0,0.0,0.0,0.0,0.0,0.0,0.0,0.0,0.0,0.0,0.0,0.0,0.0,0.0,0.0,0.0,0.0,0.0,0.0,0.0,0.0,0.0,0.0,0.0,0.0,0.0,0.0,0.0,0.0,0.0,0.0,0.0,0.0,0.0,0.0,0.0,2.3218,1.8156,1.7309,1.6982,1.701,1.6259,1.7955,2.3303,0.0,0.0,0.0,0.0,0.0,0.0,0.0,0.0,0.0,0.0,0.0,0.0,0.0,0.0,0.0,0.0,0.0,0.0,0.0,0.0,0.0,0.0,0.0,0.0,0.0,0.0,0.0,0.0,0.0,0.0,0.0,0.0,0.0,0.0,0.0,0.0,0.0,0.0,0.0,0.0,0.0,0.0,0.0,0.0,0.0,0.0,0.0,0.0,0.0,0.0,0.0,0.0,0.0,0.0,0.0,0.0,0.0,0.0,0.0,0.0,0.0,0.0,0.0,0.0,0.0,0.0,0.0,0.0,0.0,0.0,0.0,0.0,0.0,0.0,0.0,0.0,0.0,0.0,0.0,0.0,0.0,0.0,0.0,0.0,0.0,0.0,0.0,0.0,0.0,0.0,0.0,0.0,0.0,0.0,0.0,0.0,0.0,0.0,0.0,0.0,0.0,0.0,0.0,2.298,1.9111,1.7014,1.7006,1.7207,1.724,1.5345,1.6672,2.2848,2.2038,0.0,0.0,0.0,0.0,0.0,0.0,0.0,0.0,0.0,0.0,0.0,0.0,0.0,0.0,0.0,0.0,0.0,0.0,0.0,0.0,0.0,0.0,0.0,0.0,0.0,0.0,0.0,0.0,0.0,0.0,0.0,0.0,0.0,0.0,0.0,0.0,0.0,0.0,0.0,0.0,0.0,0.0,0.0,0.0,0.0,0.0,0.0,0.0,0.0,0.0,0.0,0.0,0.0,0.0,0.0,0.0,0.0,0.0,0.0,0.0,0.0,0.0,0.0,0.0,0.0,0.0,0.0,0.0,0.0,0.0,0.0,0.0,0.0,0.0,0.0,0.0,0.0,0.0,0.0,0.0,0.0,0.0,0.0,0.0,0.0,0.0,0.0,0.0,0.0,0.0,0.0,0.0,0.0,0.0,0.0,0.0,0.0,0.0,0.0,0.0,0.0,0.0,1.9826,1.6985,1.6048,1.6286,1.6414,1.6204,1.3769,1.5036,2.1909,2.0031,0.0,0.0,0.0,0.0,0.0,0.0,0.0,0.0,0.0,0.0,0.0,0.0,0.0,0.0,0.0,0.0,0.0,0.0,0.0,0.0,0.0,0.0,0.0,0.0,0.0,0.0,0.0,0.0,0.0,0.0,0.0,0.0,0.0,0.0,0.0,0.0,0.0,0.0,0.0,0.0,0.0,0.0,0.0,0.0,0.0,0.0,0.0,0.0,0.0,0.0,0.0,0.0,0.0,0.0,0.0,0.0,0.0,0.0,0.0,0.0,0.0,0.0,0.0,0.0,0.0,0.0,0.0,0.0,0.0,0.0,0.0,0.0,0.0,0.0,0.0,0.0,0.0,0.0,0.0,0.0,0.0,0.0,0.0,0.0,0.0,0.0,0.0,0.0,0.0,0.0,0.0,0.0,0.0,0.0,0.0,0.0,0.0,0.0,0.0,0.0,0.0,0.0,2.1123,1.8418,1.5018,1.4861,1.4295,1.2635,1.1161,1.3317,2.0141,1.861,0.0,0.0,0.0,0.0,0.0,0.0,0.0,0.0,0.0,0.0,0.0,0.0,0.0,0.0,0.0,0.0,0.0,0.0,0.0,0.0,0.0,0.0,0.0,0.0,0.0,0.0,0.0,0.0,0.0,0.0,0.0,0.0,0.0,0.0,0.0,0.0,0.0,0.0,0.0,0.0,0.0,0.0,0.0,0.0,0.0,0.0,0.0,0.0,0.0,0.0,0.0,0.0,0.0,0.0,0.0,0.0,0.0,0.0,0.0,0.0,0.0,0.0,0.0,0.0,0.0,0.0,0.0,0.0,0.0,0.0,0.0,0.0,0.0,0.0,0.0,0.0,0.0,0.0,0.0,0.0,0.0,0.0,0.0,0.0,0.0,0.0,0.0,0.0,0.0,0.0,0.0,0.0,0.0,0.0,0.0,0.0,0.0,0.0,0.0,0.0,0.0,0.0,1.8839,1.5858,1.3312,1.3217,1.3094,1.2169,1.0082,1.2171,1.9895,0.0,0.0,0.0,0.0,0.0,0.0,0.0,0.0,0.0,0.0,0.0,0.0,0.0,0.0,0.0,0.0,0.0,0.0,0.0,0.0,0.0,0.0,0.0,0.0,0.0,0.0,0.0,0.0,0.0,0.0,0.0,0.0,0.0,0.0,0.0,0.0,0.0,0.0,0.0,0.0,0.0,0.0,0.0,0.0,0.0,0.0,0.0,0.0,0.0,0.0,0.0,0.0,0.0,0.0,0.0,0.0,0.0,0.0,0.0,0.0,0.0,0.0,0.0,0.0,0.0,0.0,0.0,0.0,0.0,0.0,0.0,0.0,0.0,0.0,0.0,0.0,0.0,0.0,0.0,0.0,0.0,0.0,0.0,0.0,0.0,0.0,0.0,0.0,0.0,0.0,0.0,0.0,0.0,0.0,0.0,0.0,0.0,0.0,0.0,0.0,0.0,0.0,2.1893,1.7821,1.4335,1.2374,1.1619,1.101,1.0376,0.8209,1.048,1.893,0.0,0.0,0.0,0.0,0.0,0.0,0.0,0.0,0.0,0.0,0.0,0.0,0.0,0.0,0.0,0.0,0.0,0.0,0.0,0.0,0.0,0.0,0.0,0.0,0.0,0.0,0.0,0.0,0.0,0.0,0.0,0.0,0.0,0.0,0.0,0.0,0.0,0.0,0.0,0.0,0.0,0.0,0.0,0.0,0.0,0.0,0.0,0.0,0.0,0.0,0.0,0.0,0.0,0.0,0.0,0.0,0.0,0.0,0.0,0.0,0.0,0.0,0.0,0.0,0.0,0.0,0.0,0.0,0.0,0.0,0.0,0.0,0.0,0.0,0.0,0.0,0.0,0.0,0.0,0.0,0.0,0.0,0.0,0.0,0.0,0.0,0.0,0.0,0.0,0.0,0.0,0.0,0.0,0.0,0.0,0.0,0.0,0.0,0.0,0.0,0.0,0.0,2.3768,1.8484,1.4183,1.2395,1.0081,0.8061,0.6672,0.5205,0.8057,0.0,0.0,0.0,0.0,0.0,0.0,0.0,0.0,0.0,0.0,0.0,0.0,0.0,0.0,0.0,0.0,0.0,0.0,0.0,0.0,0.0,0.0,0.0,0.0,0.0,0.0,0.0,0.0,0.0,0.0,0.0,0.0,0.0,0.0,0.0,0.0,0.0,0.0,0.0,0.0,0.0,0.0,0.0,0.0,0.0,0.0,0.0,0.0,0.0,0.0,0.0,0.0,0.0,0.0,0.0,0.0,0.0,0.0,0.0,0.0,0.0,0.0,0.0,0.0,0.0,0.0,0.0,0.0,0.0,0.0,0.0,0.0,0.0,0.0,0.0,0.0,0.0,0.0,0.0,0.0,0.0,0.0,0.0,0.0,0.0,0.0,0.0,0.0,0.0,0.0,0.0,0.0,0.0,0.0,0.0,0.0,0.0,0.0,0.0,0.0,0.0,0.0,0.0,2.042,1.5224,1.1066,0.9281,0.8076,0.7283,0.6448,0.5745,0.8484,1.6284,0.0,0.0,0.0,0.0,0.0,0.0,0.0,0.0,0.0,0.0,0.0,0.0,0.0,0.0,0.0,0.0,0.0,0.0,0.0,0.0,0.0,0.0,0.0,0.0,0.0,0.0,0.0,0.0,0.0,0.0,0.0,0.0,0.0,0.0,0.0,0.0,0.0,0.0,0.0,0.0,0.0,0.0,0.0,0.0,0.0,0.0,0.0,0.0,0.0,0.0,0.0,0.0,0.0,0.0,0.0,0.0,0.0,0.0,0.0,0.0,0.0,0.0,0.0,0.0,0.0,0.0,0.0,0.0,0.0,0.0,0.0,0.0,0.0,0.0,0.0,0.0,0.0,0.0,0.0,0.0,0.0,0.0,0.0,0.0,0.0,0.0,0.0,0.0,0.0,0.0,0.0,0.0,0.0,0.0,0.0,0.0,0.0,0.0,0.0,0.0,0.0,0.0,1.9662,1.4138,0.9762,0.8269,0.7084,0.6133,0.5912,0.5226,0.7624,1.3904,0.0,0.0,0.0,0.0,0.0,0.0,0.0,0.0,0.0,0.0,0.0,0.0,0.0,0.0,0.0,0.0,0.0,0.0,0.0,0.0,0.0,0.0,0.0,0.0,0.0,0.0,0.0,0.0,0.0,0.0,0.0,0.0,0.0,0.0,0.0,0.0,0.0,0.0,0.0,0.0,0.0,0.0,0.0,0.0,0.0,0.0,0.0,0.0,0.0,0.0,0.0,0.0,0.0,0.0,0.0,0.0,0.0,0.0,0.0,0.0,0.0,0.0,0.0,0.0,0.0,0.0,0.0,0.0,0.0,0.0,0.0,0.0,0.0,0.0,0.0,0.0,0.0,0.0,0.0,0.0,0.0,0.0,0.0,0.0,0.0,0.0,0.0,0.0,0.0,0.0,0.0,0.0,0.0,0.0,0.0,0.0,0.0,0.0,0.0,0.0,0.0,0.0,2.0498,1.4254,0.9634,0.8763,0.6523,0.5082,0.5131,0.436,0.6015,1.0839,0.0,0.0,0.0,0.0,0.0,0.0,0.0,0.0,0.0,0.0,0.0,0.0,0.0,0.0,0.0,0.0,0.0,0.0,0.0,0.0,0.0,0.0,0.0,0.0,0.0,0.0,0.0,0.0,0.0,0.0,0.0,0.0,0.0,0.0,0.0,0.0,0.0,0.0,0.0,0.0,0.0,0.0,0.0,0.0,0.0,0.0,0.0,0.0,0.0,0.0,0.0,0.0,0.0,0.0,0.0,0.0,0.0,0.0,0.0,0.0,3.7025,0.0,0.0,0.0,0.0,0.0,0.0,0.0,0.0,0.0,0.0,0.0,0.0,0.0,0.0,0.0,0.0,0.0,0.0,0.0,0.0,0.0,0.0,0.0,0.0,0.0,0.0,0.0,0.0,0.0,0.0,0.0,0.0,0.0,0.0,0.0,0.0,0.0,0.0,0.0,0.0,0.0,1.8725,1.1942,0.719,0.7037,0.5604,0.4769,0.5188,0.467,0.6097,1.018,1.1637,0.0,0.0,0.0,0.0,0.0,0.0,0.0,0.0,0.0,0.0,0.0,0.0,0.0,0.0,0.0,0.0,0.0,0.0,0.0,0.0,0.0,0.0,0.0,0.0,0.0,0.0,0.0,0.0,0.0,0.0,0.0,0.0,0.0,0.0,0.0,0.0,0.0,0.0,0.0,0.0,0.0,0.0,0.0,0.0,0.0,0.0,0.0,0.0,0.0,0.0,0.0,0.0,0.0,0.0,0.0,0.0,0.0,0.0,0.0,0.0,3.7335,0.0,0.0,0.0,0.0,0.0,0.0,0.0,0.0,0.0,0.0,0.0,0.0,0.0,0.0,0.0,0.0,0.0,0.0,0.0,0.0,0.0,0.0,0.0,0.0,0.0,0.0,0.0,0.0,0.0,0.0,0.0,0.0,0.0,0.0,0.0,0.0,0.0,0.0,0.0,0.0,1.7835,1.102,0.6284,0.594,0.4984,0.4314,0.4267,0.4078,0.4739,0.7076,0.9192,0.0,0.0,0.0,0.0,0.0,0.0,0.0,0.0,0.0,0.0,0.0,0.0,0.0,0.0,0.0,0.0,0.0,0.0,0.0,0.0,0.0,0.0,0.0,0.0,0.0,0.0,0.0,0.0,0.0,0.0,0.0,0.0,0.0,0.0,0.0,0.0,0.0,0.0,0.0,0.0,0.0,0.0,0.0,0.0,0.0,0.0,0.0,0.0,0.0,0.0,0.0,0.0,0.0,3.7892,3.8166,3.9427,3.7872,3.7762,3.8653,3.8387,3.8187,3.8033,3.7637,0.0,0.0,0.0,0.0,0.0,0.0,0.0,0.0,0.0,0.0,0.0,0.0,0.0,0.0,0.0,0.0,0.0,0.0,0.0,0.0,0.0,0.0,0.0,0.0,2.3926,2.4121,2.5043,0.0,0.0,0.0,0.0,0.0,0.0,0.0,0.0,0.0,0.0,0.0,1.7339,1.0625,0.5668,0.5132,0.418,0.3683,0.3312,0.3309,0.3458,0.3907,0.6969,0.9015,0.0,0.0,0.0,0.0,0.0,0.0,0.0,0.0,0.0,0.0,0.0,0.0,0.0,0.0,0.0,0.0,0.0,0.0,0.0,0.0,0.0,0.0,0.0,0.0,0.0,0.0,0.0,0.0,0.0,0.0,0.0,0.0,4.2485,4.2772,0.0,0.0,0.0,0.0,0.0,0.0,0.0,0.0,0.0,0.0,0.0,0.0,0.0,4.1394,4.1311,3.9216,3.8306,3.8477,3.7808,3.7754,3.825,3.8329,3.869,3.9128,3.9454,0.0,3.7529,3.7219,0.0,0.0,0.0,0.0,0.0,0.0,0.0,0.0,0.0,0.0,0.0,0.0,0.0,0.0,0.0,0.0,0.0,0.0,0.0,0.0,0.0,0.0,2.0432,1.8916,1.9866,2.0871,0.0,2.3863,2.7457,2.5514,2.701,0.0,0.0,0.0,0.0,0.0,0.0,0.0,1.7338,0.9598,0.4135,0.4189,0.3362,0.3015,0.3312,0.3309,0.3458,0.3907,0.433,0.5949,0.912,0.6571,0.0,0.0,0.0,0.0,0.0,0.0,0.0,0.0,0.0,0.0,0.0,0.0,0.0,0.0,0.0,0.0,0.0,0.0,0.0,0.0,0.0,0.0,0.0,0.0,0.0,0.0,0.0,0.0,0.0,4.2678,4.2571,4.2931,4.3062,4.3369,0.0,0.0,0.0,0.0,0.0,0.0,0.0,0.0,0.0,4.269,4.1605,4.0707,4.0269,3.996,3.9705,3.9277,3.8943,3.9098,3.9722,3.9685,3.9887,4.0326,4.0162,3.9844,3.9101,3.8444,3.7906,3.724,0.0,0.0,0.0,0.0,3.2983,3.1854,3.2339,3.1591,0.0,3.0529,0.0,0.0,0.0,0.0,0.0,0.0,0.0,0.0,0.0,0.0,1.9528,1.7412,1.7732,1.8335,1.8142,2.1495,2.4261,0.0,2.4701,2.6174,2.6528,0.0,0.0,0.0,0.0,1.3198,1.3282,0.7849,0.4023,0.4068,0.3263,0.2757,0.3067,0.3064,0.305,0.3184,0.3474,0.4186,0.5835,0.4913,0.7113,0.0,0.0,0.0,0.0,0.0,0.0,0.0,0.0,0.0,0.0,0.0,0.0,0.0,0.0,0.0,0.0,0.0,0.0,0.0,0.0,0.0,0.0,0.0,0.0,0.0,0.0,0.0,0.0,4.2668,4.2683,4.3042,4.344,4.376,0.0,0.0,0.0,0.0,0.0,0.0,4.3728,4.2319,4.1853,4.2577,4.1723,4.0921,4.0137,4.0818,4.0858,4.0162,4.0143,4.051,4.1207,4.1024,4.1097,4.1354,4.106,4.0877,4.0787,3.953,3.818,3.7011,3.5848,3.4889,3.3915,3.3275,3.2259,3.1251,3.1304,3.027,2.8995,2.9143,2.9227,2.9543,2.9798,0.0,0.0,0.0,0.0,2.338,2.1005,1.9982,1.9022,1.6994,1.6575,1.6842,1.766,1.9853,2.1525,0.0,2.2521,2.3937,2.4721,0.0,0.0,0.0,0.0,1.0009,1.0016,0.6295,0.3562,0.3775,0.3138,0.2807,0.2785,0.2776,0.2762,0.2739,0.3024,0.3158,0.3324,0.3944,0.6046,0.9788,0.0,0.0,0.0,0.0,0.0,0.0,0.0,0.0,0.0,0.0,0.0,0.0,0.0,0.0,0.0,0.0,0.0,0.0,0.0,0.0,0.0,0.0,0.0,0.0,0.0,0.0,0.0,0.0,0.0,4.3111,4.3559,0.0,0.0,0.0,0.0,4.4228,4.4422,4.4197,4.3312,4.3883,4.4298,4.444,4.326,4.2832,4.3262,4.1466,4.0768,4.1005,4.1005,4.1225,4.1666,4.2032,4.2197,4.2216,4.2197,4.1977,4.1464,3.9424,3.7463,3.5554,3.3741,3.1809,2.9919,2.9868,2.9238,2.8669,2.9611,2.9549,2.9122,2.9137,2.9719,3.0345,3.0568,2.9297,0.0,0.0,2.4458,2.0914,2.0695,1.8703,1.6845,1.6607,1.6544,1.6722,1.7222,1.9128,2.0603,0.0,2.1137,2.2015,1.9166,0.0,1.8033,1.7703,1.3216,0.983,0.9935,0.575,0.2747,0.2778,0.2784,0.2785,0.2784,0.2757,0.274,0.2737,0.2707,0.2858,0.3363,0.366,0.4148,0.4679,0.9871,0.0,0.0,0.0,0.0,0.0,0.0,0.0,0.0,0.0,0.0,0.0,0.0,0.0,0.0,0.0,0.0,0.0,0.0,0.0,0.0,0.0,0.0,0.0,0.0,0.0,0.0,0.0,0.0,4.4524,4.4856,0.0,4.5077,4.5221,4.4824,4.3491,4.49,4.5437,4.4597,4.351,4.3289,4.3937,4.2373,4.1863,4.2275,4.2155,4.2087,4.2216,4.2491,4.2711,4.2858,4.3004,4.3059,4.3041,4.2766,4.1702,4.0175,3.8997,3.7761,3.6748,3.4784,3.274,3.1035,3.1039,2.9884,2.8293,2.8651,2.8431,2.8084,2.8246,2.8733,2.8813,2.7685,2.5826,2.3957,2.2772,2.0241,1.7823,1.7957,1.7319,1.675,1.6883,1.6908,1.7086,1.7595,1.8229,1.8519,1.7998,1.8825,1.9262,1.7477,1.3649,1.1176,1.2292,0.8407,0.5204,0.5387,0.3934,0.283,0.2841,0.2875,0.289,0.287,0.2825,0.2788,0.2769,0.272,0.2861,0.3367,0.3521,0.3883,0.4128,0.6605,0.8648,0.0,0.0,0.0,0.0,0.0,0.0,0.0,0.0,0.0,0.0,0.0,0.0,0.0,0.0,0.0,0.0,0.0,0.0,0.0,0.0,0.0,0.0,0.0,0.0,0.0,0.0,4.4625,4.4761,4.5408,4.5412,4.3928,4.4635,4.4528,4.3122,4.4953,4.5838,4.4825,4.3628,4.3137,4.3518,4.2553,4.2014,4.2289,4.2821,4.3078,4.3078,4.3499,4.3628,4.3499,4.3628,4.3273,4.2329,4.2152,4.0797,3.8575,3.7425,3.6768,3.6302,3.4361,3.2364,3.0908,3.0792,2.9733,2.8487,2.8655,2.8519,2.8023,2.7676,2.7561,2.7252,2.5261,2.3223,2.1275,2.0011,1.8086,1.6544,1.6787,1.6803,1.6787,1.7248,1.7273,1.7297,1.7364,1.7891,1.7811,1.5813,1.6155,1.6596,1.6845,1.2325,0.9624,1.1617,0.9104,0.7037,0.7241,0.6022,0.5079,0.528,0.3943,0.2949,0.2919,0.415,0.4396,0.3125,0.4272,0.4531,0.3885,0.5042,0.6445,0.8284,0.8418,1.187,1.9101,0.0,0.0,0.0,0.0,0.0,0.0,0.0,0.0,0.0,0.0,0.0,0.0,0.0,0.0,0.0,0.0,0.0,0.0,0.0,0.0,0.0,0.0,0.0,4.3509,4.5093,4.5548,4.3936,4.5011,4.4968,4.2176,4.3094,4.3751,4.321,4.4902,4.5391,4.402,4.431,4.4167,4.3457,4.3494,4.3494,4.3494,4.3463,4.3536,4.3536,4.3903,4.3884,4.3518,4.3903,4.2686,4.0144,4.0162,3.8883,3.6901,3.4987,3.4154,3.3963,3.1917,3.0367,2.9058,2.8778,2.8845,2.9058,2.9631,2.9658,2.9379,2.7409,2.6698,2.6005,2.3787,2.1605,1.993,1.9952,1.8523,1.695,1.7307,1.7258,1.7218,1.7559,1.7648,1.7333,1.6405,1.8404,1.8661,1.2963,1.2951,1.4415,1.6683,1.4627,1.3481,1.6069,1.5635,0.0,1.609,1.2037,0.9334,0.9829,0.5845,0.3121,0.2917,0.6616,0.7317,0.3805,0.7048,0.78,0.4595,0.7616,1.19,1.7308,1.5629,1.928,2.8653,0.0,0.0,0.0,0.0,0.0,0.0,0.0,0.0,0.0,0.0,0.0,0.0,0.0,0.0,0.0,0.0,0.0,0.0,0.0,0.0,0.0,0.0,4.6462,4.5949,4.7308,4.7877,4.6827,4.7022,4.6511,4.4481,4.4704,4.4581,4.417,4.5281,4.5666,4.4491,4.3262,4.2381,4.2171,4.2171,4.2171,4.2171,4.3646,4.4343,4.4343,4.4178,4.4031,4.3921,4.3738,4.2505,4.0322,4.0416,3.8313,3.5034,3.4456,3.3415,3.1902,3.1409,3.0772,3.0301,3.0221,3.0114,2.9974,2.9922,2.8823,2.7359,2.6815,2.5383,2.3743,2.153,2.0538,1.9767,1.8423,1.7662,1.7291,1.751,1.7534,1.7518,1.7616,1.7191,1.6567,1.6427,1.6181,1.5723,1.4506,1.2676,1.0936,0.9903,0.7388,0.7993,1.4542,1.5248,0.0,1.5435,1.3197,0.993,0.5286,0.6755,0.6589,0.3262,0.7194,0.8157,0.3801,0.4503,0.4954,0.444,0.451,1.1197,2.5132,2.4961,2.5909,0.0,0.0,0.0,0.0,0.0,0.0,0.0,0.0,0.0,0.0,0.0,0.0,0.0,0.0,0.0,0.0,0.0,0.0,0.0,0.0,0.0,0.0,4.6556,4.7483,4.8108,4.8724,4.8178,4.6209,4.6349,4.5824,4.3821,4.4164,4.4319,4.3984,4.4977,4.5299,4.4893,4.3652,4.2724,4.1956,4.2605,4.2586,4.1631,4.3652,4.4673,4.4673,4.4618,4.4508,4.4325,4.3161,4.1497,3.9218,3.833,3.5964,3.2895,3.2995,3.2398,0.0,0.0,0.0,0.0,0.0,3.0795,3.0402,2.9313,2.7984,2.6521,2.4585,2.2945,2.1501,1.9319,1.9507,2.0236,1.8894,1.9503,2.0199,1.9313,1.9043,1.8723,1.7571,1.7002,1.6386,1.5513,1.5639,1.523,1.3198,1.2432,0.0,0.5918,0.3554,0.5043,1.3261,1.4523,1.46,1.4646,1.3748,1.1934,0.9239,0.7742,0.6979,0.6813,0.9121,0.0,0.0,0.0,0.7233,0.3854,0.2281,0.0,0.0,0.0,2.4616,2.8612,2.2981,0.0,0.0,2.1044,2.068,0.0,0.0,0.0,0.0,0.0,0.0,0.0,0.0,0.0,0.0,0.0,0.0,0.0,0.0,0.0,0.0,4.7413,4.7522,4.956,4.898,4.7277,4.3909,4.4341,4.4071,4.2026,4.289,4.3669,4.3706,4.4417,4.4966,4.5352,0.0,0.0,0.0,0.0,4.3632,4.1732,4.3709,4.4746,4.4746,4.5077,4.4837,4.4288,4.2574,4.0088,3.7276,3.5269,3.3126,3.1317,3.1318,3.1436,3.1623,3.1102,3.1209,3.1597,3.1326,3.1164,3.061,2.8264,0.0,0.0,2.1938,2.0078,1.9411,1.7375,1.856,2.0436,2.0158,2.1882,2.3224,2.1056,2.0453,1.9795,1.7258,1.67,1.6271,1.4649,1.5933,1.5909,1.0998,1.1833,1.1069,0.4328,0.226,0.4126,1.119,1.2258,1.229,1.2256,1.2388,1.329,1.5361,0.0,0.0,1.0587,1.0931,0.8751,0.3938,1.0655,1.1139,0.2707,0.0917,0.3502,1.0976,1.213,1.6904,2.5436,2.7565,2.3085,1.2657,1.2721,1.625,0.0,0.0,0.0,0.0,0.0,0.0,0.0,0.0,0.0,0.0,0.0,0.0,0.0,0.0,0.0,4.9842,4.9674,4.9303,4.9056,4.7741,4.6549,4.5498,4.5555,4.5218,4.4137,4.4245,4.4611,4.533,4.5608,4.5682,4.5773,4.4238,4.3178,4.2871,4.3118,4.2938,4.2159,4.4163,4.5187,4.5168,0.0,0.0,4.2203,4.1831,3.9307,3.5254,3.5093,3.3644,3.1592,3.1691,3.1623,3.1664,3.1543,3.157,3.1718,3.1697,3.1714,3.1262,2.9063,2.703,2.4833,2.1798,1.9371,1.7755,1.7421,1.7708,0.0,1.8536,1.8938,1.9084,1.8077,1.7644,1.7396,1.6039,1.5308,1.4643,1.4281,1.3939,1.3474,1.2497,0.9928,0.6911,0.3702,0.2835,0.2738,0.2671,0.2661,0.2662,0.2665,0.3472,0.4089,0.4615,0.702,0.7178,0.3781,0.7152,0.7271,0.2377,0.5493,0.5412,0.071,0.0177,0.0701,0.2418,0.2595,0.3675,0.5544,2.0977,1.9671,0.2759,0.278,0.3591,0.0,0.0,0.0,0.0,0.0,0.0,0.0,0.0,0.0,0.0,0.0,4.481,0.0,0.0,4.7016,4.8003,4.8101,4.8025,4.7875,4.6448,4.5288,4.487,4.5388,4.57,4.5571,4.5626,4.6006,4.6177,4.6379,4.6415,4.6195,4.5366,4.4531,4.3589,4.4542,4.4375,4.3339,4.5224,4.5607,4.4619,4.4406,4.3054,4.0925,3.9596,3.7716,3.5353,3.4219,3.3188,3.2091,3.1944,3.1797,3.1664,3.1664,3.1664,3.1665,3.1777,3.1042,2.9632,2.7561,2.5247,2.2863,2.0038,1.8241,1.7437,1.7055,1.8024,1.9315,1.9312,2.0035,2.0549,1.8795,1.8066,1.7103,1.5321,1.4477,1.418,1.3592,1.3295,1.2939,1.3002,0.9352,0.5349,0.2162,0.1558,0.1161,0.0194,-0.0,0.0386,0.1558,0.2136,0.2327,0.2339,0.4841,0.5149,0.1542,0.2923,0.3047,0.0937,0.2048,0.186,-0.0,-0.0,-0.0,-0.0,-0.0,-0.0,-0.0,0.9671,0.93,-0.0,-0.0,-0.0,0.0,0.0,0.0,0.0,0.0,0.0,0.0,0.0,4.6813,4.6838,4.5648,4.4735,4.5076,4.5256,4.5688,4.6443,4.6447,4.6615,4.766,4.6078,4.4904,4.457,4.5465,4.6139,4.6821,4.7266,4.7277,4.6855,4.7222,4.7204,4.6635,4.7002,4.6521,4.4846,4.5815,4.5742,4.4092,4.5188,4.478,4.2984,4.29,4.1768,3.9179,3.7279,3.5985,3.5276,3.3379,3.2465,3.2438,3.2144,3.1877,3.1664,3.1664,3.1664,3.1664,3.1218,2.9886,2.7912,2.5163,2.3071,2.1208,1.8225,1.725,1.725,1.6906,1.8523,2.0492,2.0344,2.1182,2.1795,1.9692,1.8388,1.6933,1.4597,1.4006,1.3878,1.3084,1.2966,1.2993,1.2841,0.9376,0.4968,0.079,-0.0,0.0197,0.0589,0.0585,0.1172,0.2783,0.3145,0.3137,0.3191,0.298,0.2178,0.0792,-0.0784,-0.1164,-0.0577,-0.0192,-0.0,-0.0,-0.0,-0.0,-0.0,-0.0,-0.0,-0.0,-0.0,-0.0,-0.0,-0.0,-0.0,4.4671,4.309,0.0,4.4014,4.4811,4.5668,0.0,0.0,4.963,4.7909,4.8216,4.7976,4.6105,4.6613,4.7996,4.9664,4.8836,4.8518,4.9895,4.8719,4.7616,4.7562,4.7185,4.7274,4.8435,4.8708,4.8543,4.8121,4.8469,4.8231,4.7094,4.7406,4.7416,4.6703,4.501,4.3866,4.3417,4.1568,4.0639,4.0245,4.0106,3.8734,3.6607,3.6501,3.4999,3.2538,3.2191,3.2144,3.2131,3.1837,3.1704,3.1664,3.1664,3.1664,3.1447,2.9444,2.8564,2.77,2.3467,2.1827,2.102,1.785,1.7055,1.7273,1.7049,1.7507,1.8119,1.8706,1.8395,1.7561,1.662,1.556,1.4486,1.32,1.3079,1.3084,1.289,1.2901,1.2912,1.2922,0.9464,0.5026,0.0805,-0.0,0.0601,0.256,0.2747,0.2559,0.199,0.2585,0.3191,0.3225,0.2436,0.1018,-0.0815,-0.2206,-0.2978,-0.2776,-0.0975,-0.0,-0.0,-0.0,-0.0,-0.0,-0.0,-0.0,-0.0,-0.0,-0.0,-0.0,-0.0,-0.0,4.5154,0.0,0.0,0.0,4.6251,4.6565,4.7445,4.7525,4.7305,4.6722,4.6247,4.6013,4.5699,4.5647,4.6133,0.0,4.7698,4.8107,4.8861,4.8581,4.8216,4.818,4.7215,4.6972,4.7768,4.8756,4.8704,4.7418,4.8587,4.8928,4.8194,4.8543,4.7852,4.6031,4.519,4.367,4.1863,4.1061,4.0168,3.8736,3.8815,3.7534,3.5129,3.5388,3.4747,3.3079,3.2855,3.2666,3.2345,3.2225,3.1971,3.1474,3.0102,2.9338,2.9313,2.8427,2.7129,2.5447,2.2211,2.0184,1.8765,1.7368,1.7352,1.7741,1.7627,1.7451,1.7482,1.7851,1.6731,1.54,1.5151,1.4198,1.3422,1.3073,1.289,1.289,1.289,1.289,1.2901,1.2939,0.9476,0.5034,0.0808,-0.0,0.0604,0.1999,0.2783,0.2987,0.2626,0.3009,0.3006,0.244,0.1634,0.0615,-0.1031,-0.1836,-0.2633,-0.324,-0.24,-0.1392,-0.0,-0.0,-0.0,-0.0,-0.0,-0.0,-0.0,-0.0,-0.0,-0.0,-0.0,-0.0,4.5512,0.0,0.0,4.8199,4.8016,4.7744,4.8371,4.7424,4.6285,4.615,4.5554,4.5132,4.5366,4.5287,4.5431,4.5949,4.7116,4.8194,4.8672,4.8451,4.8197,4.7982,4.6912,4.6147,4.5836,4.7623,4.8424,4.7623,4.8894,4.9496,4.9093,4.861,4.7454,4.536,4.3877,4.2147,4.0168,3.9733,3.8807,3.7125,3.7458,3.6315,3.4355,3.4409,3.4209,3.3567,3.3293,3.3106,3.2576,3.2519,3.1772,3.0612,2.8584,2.7384,2.6613,2.5829,2.4703,2.2971,2.0421,1.8415,1.718,1.718,1.7566,1.7951,1.7611,1.7426,1.7076,1.7042,1.5743,1.4415,1.4507,1.3759,1.2982,1.2982,1.296,1.2939,1.2939,1.2912,1.2901,1.2939,0.9476,0.5235,0.1615,0.0808,0.101,0.1616,0.2616,0.3231,0.2871,0.2647,0.2037,0.0829,0.1238,0.0826,-0.1044,-0.1239,-0.1434,-0.2254,-0.2235,-0.1616,-0.0,-0.0,-0.0,-0.0,-0.0,-0.0,-0.0,-0.0,-0.0,-0.0,-0.0,-0.0,0.0,0.0,4.6757,5.0059,4.9823,4.9314,5.1503,5.0466,4.8709,4.7178,4.7833,4.7951,4.5346,4.6158,4.7303,4.7849,4.8646,4.9339,4.9877,4.9423,4.8488,4.7129,4.6296,4.493,0.0,4.5205,4.7904,4.9939,5.0028,4.9936,4.9514,4.7304,4.5905,4.5601,4.0793,3.8373,3.85,3.6439,3.5415,3.5204,3.5119,3.4701,3.4306,3.3759,3.3292,3.2608,3.2973,3.2948,3.252,3.227,3.0522,2.8315,2.7874,2.6216,2.3686,2.1147,2.0446,2.0263,1.7998,1.7188,1.718,1.718,1.7566,1.7781,1.6962,1.7013,1.7245,1.6411,1.5364,1.4672,1.4672,1.3955,1.3227,1.3227,1.3145,1.3064,1.3064,1.2971,1.2901,1.2939,0.9476,0.564,0.3434,0.3032,0.283,0.1818,0.2645,0.2874,0.1864,0.1462,0.0423,-0.1507,0.1265,0.1882,-0.1489,-0.0624,-0.0,-0.0,-0.0,-0.0,-0.0,-0.0,-0.0,-0.0,-0.0,-0.0,-0.0,-0.0,-0.0,-0.0,-0.0,-0.0,4.691,0.0,5.0553,5.1334,5.0446,4.9444,4.8887,4.7592,4.627,4.5018,4.6148,4.6947,4.5611,4.6181,4.7269,4.8507,4.7583,4.7524,4.944,4.747,4.6056,4.6314,4.4724,0.0,0.0,0.0,0.0,4.69,4.8723,4.9025,4.7478,4.655,4.4353,4.0476,3.9012,3.7165,3.537,3.5016,3.4846,3.4833,3.478,3.491,3.4966,3.3967,3.3395,3.3538,3.3068,3.1883,2.9903,3.0044,2.8264,2.5405,2.3502,2.2172,2.0969,1.8558,1.7577,1.7511,1.6771,1.6525,1.6328,1.6124,1.6383,1.6672,1.613,1.5817,1.5701,1.5341,1.4572,1.3791,1.3791,1.3416,1.3238,1.3238,1.3151,1.3113,1.327,1.3145,1.3064,1.2848,0.944,0.5295,0.1644,0.2252,0.2662,0.0622,0.1449,0.2072,0.1673,0.0844,-0.0213,-0.1726,-0.0213,0.0212,-0.1504,-0.0633,-0.0,-0.0,-0.0,-0.0,-0.0,-0.0,-0.0,-0.0,-0.0,-0.0,-0.0,-0.0,-0.0,-0.0,-0.0,-0.1635,4.8627,5.1295,5.3481,5.298,5.1883,5.0516,4.8475,4.67,4.5136,4.4585,4.5202,4.5833,4.5772,4.5961,4.6657,4.7802,4.6926,4.6683,4.8638,4.6443,4.5018,4.5554,4.4112,4.3276,0.0,0.0,0.0,4.5449,4.705,4.7185,4.5231,4.4261,4.1785,3.7962,3.6978,3.5738,3.3946,3.435,3.4711,3.4606,3.4465,3.4386,3.4544,3.3654,3.3771,3.411,3.2099,3.035,2.8777,2.7525,2.5163,2.245,2.0713,1.9388,1.8221,1.6745,1.5982,1.576,1.581,1.5998,1.5837,1.5428,1.5688,1.5969,1.5367,1.5054,1.4741,1.4282,1.3749,1.3423,1.3379,1.3401,1.3444,1.3482,1.3374,1.3314,1.351,1.3401,1.3303,1.3027,0.9361,0.4951,0.0829,0.1859,0.2486,0.0211,0.0211,0.0422,0.0426,-0.0643,-0.173,-0.2405,-0.1729,-0.1504,-0.1735,-0.0639,-0.0,-0.0,-0.0,-0.0,-0.0,-0.0,-0.0,-0.0,-0.0,-0.0,-0.0,-0.0,-0.0,-0.0,-0.167,-0.3958,5.0646,5.3312,5.5158,5.4747,5.3678,5.2126,5.0353,4.741,4.5271,4.583,4.5381,4.5019,0.0,0.0,4.5774,4.6265,4.6566,4.7012,4.758,4.6182,4.5272,0.0,0.0,0.0,0.0,0.0,0.0,4.4985,0.0,4.4703,4.2765,4.0008,3.8426,3.8063,3.5145,3.3933,3.4324,3.4476,3.4419,3.4147,3.3723,3.3498,3.3498,3.3007,3.3359,3.4157,2.9864,2.8426,2.8968,2.4919,2.1783,1.9774,1.9613,1.7931,1.5712,1.5725,1.5314,1.4886,1.5367,1.5602,1.5712,1.5494,1.5494,1.55,1.4892,1.4783,1.466,1.3504,1.352,1.377,1.3651,1.3711,1.3825,1.3934,1.3781,1.3651,1.3776,1.3705,1.3586,1.3504,0.9465,0.482,0.0623,0.1664,0.2096,0.0213,-0.0861,-0.152,-0.1751,-0.2848,-0.3527,-0.3583,-0.3513,-0.304,-0.197,-0.0642,-0.0,-0.0,-0.0,-0.0,-0.0,-0.0,-0.0,-0.0,-0.0,-0.0,-0.0,-0.0,-0.0,-0.0211,-0.4635,-0.6714,4.9369,5.2286,5.4935,5.2129,5.1275,5.0583,4.7652,4.7066,4.7129,4.6439,4.5922,4.5856,0.0,0.0,0.0,4.7197,4.5722,0.0,4.6737,4.5649,0.0,4.4498,0.0,4.3935,4.199,4.2833,0.0,0.0,4.2168,4.2954,3.9522,3.8335,3.6854,3.512,3.4103,3.3528,3.3671,3.4057,3.3879,3.3374,3.2948,3.2635,3.2209,2.9945,2.9101,2.9089,2.5932,2.3611,2.2033,2.1413,1.9307,1.6465,1.6856,1.6093,1.5103,1.5208,1.51,1.4952,1.4618,1.4735,1.4886,1.447,1.4535,1.4411,1.3996,1.3946,1.4108,1.3656,1.3776,1.3906,1.3874,1.389,1.3923,1.395,1.3847,1.3798,1.4004,1.4316,1.4434,1.4194,0.7391,0.1295,0.0214,-0.1081,-0.197,-0.1549,-0.2456,-0.2681,-0.1989,-0.2888,-0.3572,-0.3589,-0.3551,-0.3306,-0.2429,-0.0868,-0.0,-0.0,-0.0,-0.0,-0.0,-0.0,-0.0,-0.0,-0.0,-0.0,-0.0,-0.0,-0.0,-0.0212,-0.4678,-0.6799,5.2309,5.4193,5.5598,5.1687,5.0748,5.0082,4.725,4.7023,4.7261,4.6643,4.5866,0.0,0.0,0.0,0.0,0.0,0.0,0.0,4.6092,4.5188,4.4564,0.0,4.4227,0.0,4.2825,4.2113,4.0117,0.0,3.9304,3.9675,3.6536,3.597,3.5065,3.3604,3.3274,3.3346,3.3453,3.321,3.2845,3.2613,3.2145,3.1186,2.997,2.8003,2.7102,2.6797,0.0,2.0791,1.9897,1.8354,1.6635,1.5028,1.5399,1.5108,1.482,1.4838,1.4715,1.4596,1.4315,1.4246,1.4388,1.4127,1.3946,1.4013,1.364,1.3792,1.3928,1.3874,1.3983,1.4113,1.4048,1.4037,1.4048,1.4113,1.4026,1.3988,1.4393,1.4764,1.4255,1.1717,0.7703,0.3287,-0.0874,-0.2429,-0.2902,-0.2705,-0.3172,-0.3401,-0.2705,-0.3156,-0.3604,-0.3589,-0.3565,-0.3326,-0.2882,-0.2191,-0.1084,-0.0,-0.0,-0.0,-0.0,-0.0,-0.0,-0.0,-0.0,-0.0,-0.0,-0.0,-0.0,-0.0,-0.3631,-0.5758,5.6703,5.7074,5.6189,5.2469,5.0842,4.9522,4.7791,4.6894,4.6433,4.6264,0.0,4.4588,4.4037,0.0,4.3072,4.4102,0.0,4.5082,4.5386,4.4922,4.5131,4.5967,4.3538,4.2189,4.3054,4.1107,3.8368,3.5545,3.619,3.5971,3.3913,3.3766,3.3479,3.3114,3.2954,3.3066,3.3346,3.2427,3.2088,3.1844,3.0733,2.914,2.7361,2.6245,2.5599,2.5012,2.0149,1.8715,1.9544,1.571,1.4512,1.4622,1.4706,1.4723,1.4594,1.448,1.4304,1.3977,1.3961,1.3966,1.3961,1.3847,1.3809,1.383,1.3928,1.4042,1.4108,1.401,1.414,1.4292,1.4195,1.4167,1.4184,1.4292,1.4459,1.4629,1.5168,1.5424,1.4054,0.9532,0.9734,0.8186,-0.0,-0.1119,-0.1578,-0.2959,-0.3421,-0.366,-0.3684,-0.366,-0.3632,-0.3604,-0.3576,-0.3562,-0.3565,-0.3534,-0.2634,-0.0439,-0.0,-0.0,-0.0,-0.0,-0.0,-0.0,-0.0,-0.0,-0.0,-0.0,-0.0432,-0.108,-0.2568,-0.4691,5.5878,5.5592,5.5419,5.2916,4.9826,4.7089,4.5805,4.5527,0.0,0.0,4.4937,4.4719,4.4169,4.3637,0.0,4.3841,0.0,0.0,0.0,0.0,4.6106,0.0,0.0,0.0,0.0,0.0,0.0,0.0,0.0,3.3745,3.3511,3.3098,3.2829,3.2954,3.2785,3.2612,3.2573,3.2396,3.1612,3.061,2.8196,2.6561,2.5614,2.1446,1.9405,1.9312,1.6445,0.0,1.5416,1.4948,1.4573,1.4321,1.4622,1.4588,1.4172,1.415,1.4004,1.4097,1.3993,1.4021,1.408,1.3966,1.3928,1.3934,1.395,1.4042,1.414,1.4108,1.4211,1.432,1.4292,1.473,1.4946,1.4975,1.5413,1.585,1.5868,1.6108,1.6385,1.6254,1.2625,1.0165,1.1414,0.6658,0.2078,0.0694,-0.2098,-0.3739,-0.3719,-0.3692,-0.367,-0.3667,-0.3639,-0.3632,-0.3656,-0.3607,-0.3129,-0.1564,-0.0445,-0.0,-0.0,-0.0,-0.0,-0.0,-0.0,-0.0,-0.0,-0.0,-0.1944,-0.5836,-0.428,-0.4706,5.5464,5.5051,5.4863,5.1704,4.8471,4.6213,4.6052,0.0,0.0,0.0,4.5243,4.4931,4.4573,0.0,0.0,0.0,0.0,0.0,0.0,0.0,0.0,0.0,0.0,0.0,0.0,0.0,0.0,0.0,0.0,3.3376,3.3149,3.2932,3.2785,3.2785,3.2696,3.2384,3.2291,3.162,3.0421,2.8253,2.6896,2.4352,2.1097,1.8754,1.7117,1.57,1.4461,0.0,1.6974,1.5254,1.5509,1.6877,1.5093,1.4304,1.414,1.4069,1.4124,1.4222,1.4167,1.4178,1.4222,1.4167,1.4097,1.4069,1.4124,1.4178,1.4238,1.4238,1.432,1.4417,1.4417,1.4859,1.5306,1.5306,1.5928,1.6533,1.6533,1.7053,1.7596,1.8145,1.5451,1.2796,1.2006,0.7868,0.3712,0.093,-0.1875,-0.3761,-0.373,-0.3726,-0.3716,-0.3684,-0.3667,-0.3434,-0.322,-0.3428,-0.3405,-0.2939,-0.1575,-0.0672,-0.0,-0.0,-0.0,-0.0,-0.0,-0.0,-0.0,-0.2616,-0.5006,-0.7188,-0.5846,-0.5846,5.6029,5.5358,5.4564,5.1107,4.7941,4.5796,4.6253,4.5231,0.0,0.0,4.5267,4.4955,4.4463,0.0,0.0,0.0,0.0,0.0,0.0,0.0,0.0,0.0,0.0,0.0,0.0,0.0,0.0,0.0,0.0,0.0,3.2968,3.309,3.2917,3.2541,3.2443,3.2114,3.1739,3.0565,2.8759,2.6495,2.5095,2.2097,1.7403,1.69,1.5676,1.3756,1.3639,0.0,1.9389,1.5861,1.6412,1.9415,1.5568,1.4238,1.4309,1.4205,1.4249,1.4363,1.4363,1.4363,1.4363,1.439,1.432,1.4238,1.4547,1.4575,1.4592,1.4619,1.4647,1.4915,1.4718,1.5151,1.5577,1.5807,1.6404,1.721,1.7249,1.7786,1.8124,1.8213,1.7401,1.5196,1.0916,0.7909,0.5115,0.1398,-0.1405,-0.305,-0.3737,-0.375,-0.3748,-0.3705,-0.3694,-0.3464,-0.2773,-0.3464,-0.3677,-0.3645,-0.2734,-0.1813,-0.0898,-0.0224,-0.0,-0.0,-0.0,-0.0,-0.0,-0.4828,-0.7233,-0.7233,-0.7227,-0.7008,5.9387,5.7324,5.3972,5.3196,4.9257,4.5241,4.4837,0.0,0.0,4.3312,4.4122,4.4413,4.3537,4.3367,4.285,0.0,0.0,4.256,0.0,0.0,0.0,0.0,0.0,0.0,0.0,0.0,0.0,0.0,0.0,0.0,3.3825,3.385,3.3518,3.262,3.2232,3.1785,3.0868,2.8595,2.6994,2.6054,2.1471,1.8715,1.7768,1.5353,1.4098,1.3756,1.3639,0.0,0.0,1.5861,1.6412,1.9432,1.5673,1.4309,1.432,1.4309,1.4379,1.4488,1.4488,1.4488,1.4504,1.4602,1.4559,1.4477,1.5151,1.5376,1.5404,1.5526,1.5623,1.591,1.5364,1.5759,1.6108,1.6786,1.7438,1.7894,1.8036,1.8091,1.8179,1.8443,1.7588,1.6252,1.4756,1.1483,0.7738,0.3992,0.1168,-0.1167,-0.3529,-0.3748,-0.3739,-0.3761,-0.3739,-0.3733,-0.3761,-0.3737,-0.3708,-0.3677,-0.3677,-0.3424,-0.3372,-0.1122,-0.0,-0.0,-0.0,-0.0,-0.0,-0.4802,-0.7233,-0.7227,-0.7219,-0.7027,5.327,5.3401,5.3333,5.1352,4.8089,4.5269,4.4926,0.0,0.0,4.3419,4.3431,4.3202,4.2443,4.199,4.1213,3.9492,3.9864,0.0,0.0,0.0,0.0,0.0,0.0,0.0,0.0,0.0,0.0,0.0,0.0,0.0,3.4233,3.4555,3.3183,3.0174,3.0005,2.8943,2.6291,2.4921,2.3326,2.1717,1.9647,1.7568,1.5487,1.4047,1.3507,1.3164,1.3062,0.0,0.0,1.6527,1.7614,2.2277,1.6554,1.432,1.432,1.432,1.4407,1.4504,1.4504,1.4548,1.4619,1.5106,1.4923,1.47,1.4851,1.505,1.5061,1.5123,1.5112,1.5339,1.5151,1.5758,1.6528,1.7249,1.7706,1.8023,1.8077,1.8233,1.8155,1.7588,1.6458,1.5369,1.4164,1.0794,0.7228,0.4434,0.1636,-0.0935,-0.3487,-0.3737,-0.3757,-0.3772,-0.3761,-0.3757,-0.3772,-0.3761,-0.3739,-0.3708,-0.3708,-0.3457,-0.2964,-0.205,-0.1135,-0.0,-0.0,-0.1332,-0.4387,-0.4871,-0.578,-0.7334,-0.7147,-0.7175,4.9547,5.0995,5.2221,4.9421,4.6999,4.5293,0.0,0.0,0.0,4.3275,4.2741,4.1843,4.1453,4.0745,3.9724,3.8195,3.8349,3.8633,3.8747,0.0,0.0,0.0,0.0,0.0,0.0,0.0,0.0,0.0,0.0,0.0,0.0,3.3949,3.202,2.8326,2.8409,2.666,2.308,2.1883,2.0289,1.8728,1.8039,1.685,1.5489,1.3904,1.3578,1.442,1.3182,0.0,0.0,1.6527,1.7769,2.2666,1.6547,1.4151,1.4151,1.4374,1.445,1.4559,1.4586,1.489,1.5196,1.5458,1.5475,1.5257,1.547,1.5212,1.5413,1.5458,1.5705,1.5475,1.5441,1.6026,1.7021,1.753,1.7793,1.8111,1.8199,1.8389,1.8079,1.698,1.5826,1.4481,1.3489,1.0567,0.7461,0.4429,0.2342,-0.0,-0.326,-0.3757,-0.3788,-0.3795,-0.3788,-0.3782,-0.3772,-0.3772,-0.3757,-0.373,-0.3726,-0.348,-0.299,-0.276,-0.2293,-0.1141,-0.0681,-0.2477,-0.6257,-0.4953,-0.542,-0.7435,-0.7264,-0.7281,5.0803,5.127,5.0321,4.8689,4.6985,4.5589,0.0,0.0,0.0,4.2499,4.1681,4.0757,4.0526,3.9506,3.8527,3.7725,3.7317,3.7627,3.9151,0.0,0.0,0.0,0.0,0.0,0.0,0.0,0.0,0.0,0.0,0.0,0.0,3.1939,2.9661,2.7874,2.7681,2.6062,2.2407,1.9949,1.8565,1.8721,1.6186,1.6464,1.8813,1.5015,1.4798,1.7592,0.0,0.0,0.0,1.4985,1.5767,1.8704,1.5014,1.3598,1.3603,1.4274,1.4575,1.4689,1.4814,1.5313,1.5797,1.5918,1.6252,1.6536,1.6823,1.6804,1.6943,1.7549,1.762,1.7142,1.6559,1.7085,1.7686,1.738,1.763,1.8179,1.8464,1.8531,1.8112,1.7104,1.5959,1.4565,1.3402,1.2222,0.9641,0.4468,0.3761,0.1887,-0.3095,-0.3817,-0.3827,-0.3855,-0.3835,-0.3803,-0.3775,-0.3772,-0.3757,-0.373,-0.3726,-0.3712,-0.3681,-0.3681,-0.3681,-0.3681,-0.253,-0.2518,-0.3863,-0.5497,-0.6639,-0.75,-0.733,-0.7322,4.5147,4.6791,4.7815,4.6345,4.5229,4.4217,4.3209,0.0,0.0,4.0642,3.9914,3.9022,3.819,3.7637,3.6782,3.5022,3.4739,3.4387,0.0,0.0,0.0,0.0,0.0,0.0,0.0,0.0,0.0,0.0,0.0,0.0,0.0,3.0031,2.8446,2.5375,2.3605,2.0879,1.7198,1.647,1.6063,1.6186,1.5265,1.6671,1.9388,1.5664,1.5278,0.0,0.0,1.4827,1.7644,1.4495,1.5436,1.8544,1.5026,1.3829,1.4274,1.4504,1.4862,1.5504,1.5532,1.6063,1.6615,1.7104,1.7073,1.7023,1.7807,1.7498,1.6725,1.6627,1.6774,1.685,1.6584,1.7149,1.7729,1.7788,1.8088,1.8423,1.8511,1.7928,1.7073,1.5726,1.4565,1.3411,1.2079,1.157,1.036,0.7572,0.6132,0.4008,-0.0,-0.2383,-0.3828,-0.3855,-0.3851,-0.3835,-0.3806,-0.3782,-0.3768,-0.3757,-0.3757,-0.3754,-0.3744,-0.3744,-0.3733,-0.3712,-0.3941,-0.4388,-0.5497,-0.6472,-0.718,-0.7393,-0.7412,-0.7363,0.0,4.3734,4.5279,4.4117,4.3029,0.0,0.0,0.0,0.0,3.9265,3.8778,3.8037,3.6853,3.6538,3.5794,3.4083,3.332,3.2618,0.0,0.0,0.0,0.0,0.0,0.0,0.0,0.0,0.0,0.0,0.0,0.0,0.0,2.7672,2.56,2.2243,2.0778,1.8335,1.4858,1.4858,1.4923,1.4565,1.4565,1.6445,1.9388,1.5442,1.5307,0.0,0.0,1.3896,0.0,1.3293,1.3958,1.6099,1.3843,1.3271,1.3948,1.418,1.4727,1.5561,1.5843,1.6359,1.6902,1.7581,1.782,1.7801,1.8403,1.8106,1.7167,1.6804,1.6962,1.7301,1.7085,1.7238,1.7868,1.8161,1.8464,1.8316,1.7909,1.7299,1.6454,1.4618,1.369,1.2782,1.1695,1.1666,1.1163,0.9067,0.7151,0.4534,0.1439,-0.1927,-0.3873,-0.3891,-0.3883,-0.3869,-0.3851,-0.382,-0.3799,-0.3788,-0.3788,-0.3782,-0.3772,-0.3772,-0.3768,-0.3761,-0.4463,-0.5388,-0.6063,-0.7013,-0.7482,-0.7482,-0.7482,-0.7425,0.0,4.1613,0.0,0.0,0.0,0.0,0.0,0.0,0.0,0.0,0.0,0.0,3.6391,3.5844,3.5314,3.4337,3.2655,3.1914,0.0,0.0,0.0,0.0,0.0,0.0,0.0,0.0,0.0,0.0,0.0,0.0,0.0,2.4612,2.1615,1.8938,1.8931,1.7654,1.4858,1.4858,1.4638,1.4428,1.4285,1.5949,1.915,1.5179,1.5075,0.0,0.0,1.2557,1.1867,1.1867,1.1867,1.2085,1.209,1.2543,1.3237,1.3694,1.4402,1.5122,1.593,1.6425,1.7123,1.7588,1.8284,1.8708,1.8423,1.8443,1.8316,1.7856,1.7987,1.8108,1.7654,1.7888,1.8375,1.8511,1.8545,1.8145,1.7104,1.6681,1.6005,1.3764,1.332,1.2879,1.177,1.2035,1.1551,0.9148,0.6536,0.4134,0.1462,-0.1963,-0.3947,-0.3949,-0.3925,-0.3907,-0.3907,-0.3876,-0.3848,-0.382,-0.3817,-0.3806,-0.3779,-0.3775,-0.3788,-0.382,-0.4534,-0.5246,-0.5724,-0.6861,-0.7537,-0.7537,-0.7537,-0.7504,3.4232,0.0,3.9141,3.8862,3.8764,3.8719,0.0,0.0,0.0,0.0,0.0,0.0,0.0,3.4556,3.3421,3.3077,3.1702,3.0751,0.0,0.0,0.0,0.0,0.0,0.0,0.0,0.0,0.0,0.0,0.0,0.0,0.0,2.1518,1.8762,1.5653,1.5653,1.531,1.4858,1.4858,1.57,1.7362,1.5641,1.7475,2.2054,1.6414,1.5307,0.0,1.4108,1.1954,1.1491,1.1491,1.1686,1.209,1.2548,1.3237,1.3694,1.4386,1.5369,1.6395,1.6657,1.7361,1.8284,1.8396,1.8436,1.8721,1.8093,1.7889,1.7974,1.7652,1.7588,1.7824,1.7691,1.8112,1.8511,1.8674,1.8091,1.7203,1.6914,1.5337,1.3979,1.345,1.2556,1.1666,1.1457,1.1992,1.1572,0.9216,0.7741,0.5574,0.1472,-0.196,-0.3925,-0.3947,-0.3943,-0.3938,-0.3938,-0.3891,-0.3855,-0.3848,-0.3827,-0.3824,-0.3838,-0.3817,-0.406,-0.4571,-0.5739,-0.6434,-0.7151,-0.7328,-0.7537,-0.7537,-0.7537,-0.7482,3.214,3.4146,3.6405,3.6496,3.6418,3.6513,0.0,0.0,0.0,0.0,0.0,0.0,0.0,0.0,0.0,0.0,3.2363,0.0,0.0,0.0,0.0,0.0,0.0,0.0,0.0,0.0,0.0,0.0,0.0,0.0,0.0,2.0199,1.7484,1.4575,1.4629,1.4727,1.4858,1.4858,1.5986,1.8421,1.57,1.6889,2.0819,1.5983,1.436,0.0,1.5224,1.3481,1.1483,1.3162,1.3014,1.1686,1.238,1.3077,1.3769,1.4243,1.5442,1.6425,1.6896,1.7788,1.8654,1.864,1.8416,1.8179,1.7639,1.7537,1.7412,1.7685,1.7856,1.8093,1.8159,1.8416,1.8654,1.8742,1.7936,1.682,1.6227,1.4697,1.313,1.2614,1.1958,1.1563,1.2077,1.2612,1.2179,0.9537,0.7799,0.5366,0.1477,-0.1965,-0.3932,-0.3947,-0.3949,-0.3949,-0.3949,-0.3918,-0.3893,-0.388,-0.3866,-0.3859,-0.3859,-0.4086,-0.4812,-0.5816,-0.6499,-0.695,-0.7665,-0.7581,-0.7537,-0.7537,-0.7537,-0.7504,3.1544,3.3073,3.4487,3.493,3.447,3.4392,3.5832,0.0,0.0,0.0,0.0,0.0,0.0,0.0,0.0,0.0,0.0,0.0,0.0,0.0,0.0,0.0,0.0,0.0,0.0,0.0,0.0,0.0,0.0,0.0,0.0,1.9396,1.6934,1.4673,1.4771,1.4841,1.4885,1.4885,1.6028,1.8104,1.55,1.5442,1.794,1.463,1.3163,1.3101,0.0,0.0,1.1673,1.4897,1.4288,1.1524,1.2222,1.269,1.3402,1.4072,1.501,1.6168,1.6872,1.7723,1.8552,1.8694,1.8198,1.7652,1.7652,1.7361,1.7302,1.7549,1.8159,1.8369,1.8565,1.8654,1.8762,1.8557,1.7493,1.6379,1.5092,1.3828,1.2776,1.1803,1.1637,1.1966,1.2771,1.3292,1.2806,0.9594,0.7135,0.4427,0.0739,-0.2219,-0.3949,-0.3949,-0.3949,-0.3949,-0.3949,-0.3949,-0.3938,-0.3911,-0.3907,-0.3893,-0.4108,-0.4596,-0.558,-0.6832,-0.6777,-0.723,-0.7698,-0.7594,-0.7537,-0.7537,-0.7537,-0.7532,3.0914,3.1828,3.3392,3.4752,3.4394,3.4269,3.6236,0.0,0.0,0.0,0.0,0.0,0.0,0.0,0.0,0.0,0.0,0.0,0.0,0.0,0.0,0.0,0.0,0.0,0.0,0.0,0.0,0.0,0.0,0.0,0.0,1.6241,1.5123,1.4673,1.4689,1.4798,1.501,1.501,1.585,1.754,1.5243,1.5168,1.6771,1.3709,1.2461,1.2447,0.0,1.2041,1.1278,1.2019,1.2054,1.2222,1.269,1.3402,1.4088,1.5144,1.6034,1.6725,1.7876,1.8316,1.8531,1.8565,1.8179,1.7788,1.7788,1.7904,1.8052,1.8142,1.8078,1.8183,1.8755,1.8742,1.8557,1.7506,1.6455,1.5119,1.3907,1.2799,1.1891,1.1572,1.1637,1.1945,1.2691,1.3246,1.2062,0.6393,0.59,0.369,-0.2465,-0.3703,-0.3949,-0.3949,-0.3949,-0.3949,-0.3949,-0.3949,-0.3947,-0.3943,-0.3918,-0.4144,-0.463,-0.5394,-0.6131,-0.6832,-0.7263,-0.7452,-0.7643,-0.7572,-0.7537,-0.7537,-0.7537,-0.751,3.0768,3.1304,3.2003,3.4574,3.4719,3.472,3.6693,0.0,0.0,0.0,0.0,0.0,0.0,0.0,0.0,0.0,0.0,0.0,0.0,0.0,0.0,0.0,0.0,0.0,0.0,0.0,0.0,0.0,0.0,0.0,0.0,0.0,1.4771,1.4771,1.4841,1.4923,1.5037,1.5037,1.6126,1.8436,1.5489,1.5424,1.7873,1.3949,1.2461,1.2887,0.0,1.3152,1.147,1.3471,1.3575,1.2147,1.284,1.3507,1.4134,1.5687,1.6362,1.6813,1.804,1.8477,1.8443,1.8145,1.7961,1.7736,1.743,1.7817,1.8175,1.8239,1.8385,1.8731,1.8898,1.8417,1.7696,1.6982,1.5536,1.425,1.341,1.2598,1.1739,1.1657,1.171,1.202,1.3232,1.3518,1.1817,0.6393,0.5654,0.3444,-0.2961,-0.3949,-0.3949,-0.3949,-0.3949,-0.3949,-0.3949,-0.3949,-0.3949,-0.3949,-0.4182,-0.4667,-0.5399,-0.6158,-0.6653,-0.7368,-0.7553,-0.7747,-0.772,-0.763,-0.784,-0.8108,-0.7803,-0.7775,3.0149,3.0284,3.0573,3.3353,0.0,3.4843,3.7315,0.0,0.0,0.0,0.0,0.0,0.0,0.0,0.0,0.0,0.0,0.0,0.0,0.0,0.0,0.0,0.0,0.0,0.0,0.0,0.0,0.0,0.0,0.0,0.0,0.0,1.4885,1.4858,1.4967,1.5037,1.5037,1.5037,1.6097,1.7941,1.5225,1.518,1.7336,1.3654,1.2227,1.2877,1.4862,1.4144,1.1652,1.4573,1.4508,1.2511,1.2968,1.3588,1.4397,1.5764,1.6426,1.6872,1.7927,1.8355,1.8088,1.7909,1.7723,1.7717,1.7537,1.7719,1.831,1.8588,1.8708,1.8556,1.8523,1.7778,1.6784,1.6256,1.4834,1.3553,1.2947,1.24,1.1813,1.1739,1.1784,1.232,1.3541,1.4036,1.2062,0.6641,0.5902,0.3444,-0.2961,-0.3949,-0.3949,-0.3949,-0.3949,-0.3949,-0.3949,-0.3949,-0.3949,-0.3949,-0.4444,-0.5185,-0.5923,-0.6664,-0.7152,-0.7875,-0.7826,-0.7796,-0.7782,-0.7692,-0.7913,-0.8439,-0.7845,-0.7817,2.8196,2.8594,2.8927,3.0042,3.1926,0.0,3.7464,0.0,0.0,0.0,0.0,0.0,0.0,0.0,0.0,0.0,0.0,0.0,0.0,0.0,0.0,0.0,0.0,0.0,0.0,0.0,0.0,0.0,0.0,0.0,0.0,0.0,0.0,1.4858,1.4967,1.5037,1.5037,1.5037,1.4761,1.4428,1.3586,1.311,1.2571,1.172,1.129,1.1512,1.1665,1.1863,1.1854,1.2231,1.2868,1.3538,1.3538,1.4386,1.5404,1.6085,1.6677,1.704,1.7847,1.8111,1.8158,1.7771,1.7723,1.7852,1.8155,1.8342,1.8718,1.9341,1.8445,1.7488,1.7358,1.6994,1.6244,1.3995,1.3396,1.3021,1.2145,1.1764,1.1833,1.1825,1.232,1.3056,1.3786,1.4276,1.2793,0.6887,0.5902,0.3444,-0.2961,-0.3949,-0.3949,-0.3949,-0.3949,-0.3949,-0.3949,-0.3949,-0.3949,-0.3949,-0.4444,-0.5185,-0.5923,-0.6664,-0.7133,-0.7809,-0.7804,-0.7777,-0.772,-0.7714,-0.7706,-0.7714,-0.7649,-0.7621,2.785,2.8114,2.804,2.9345,0.0,0.0,0.0,0.0,0.0,0.0,0.0,0.0,0.0,0.0,0.0,0.0,0.0,0.0,0.0,0.0,0.0,0.0,0.0,0.0,0.0,0.0,0.0,0.0,0.0,0.0,0.0,0.0,0.0,1.4967,1.501,1.5037,1.5037,1.5037,1.4798,1.4098,1.3402,1.3163,1.269,1.1763,1.1524,1.1754,1.1699,1.1889,1.209,1.2254,1.2844,1.3654,1.4028,1.4434,1.4831,1.5717,1.6367,1.6564,1.7596,1.8091,1.8138,1.7752,1.7876,1.8212,1.8281,1.8405,1.8972,1.9447,1.8407,1.7281,1.7232,1.5942,1.4445,1.3552,1.2731,1.2137,1.169,1.1772,1.1833,1.1833,1.2083,1.257,1.3541,1.4036,1.2299,0.6641,0.5902,0.3444,-0.2961,-0.3949,-0.3949,-0.3949,-0.3949,-0.3949,-0.3949,-0.3949,-0.4196,-0.4444,-0.5185,-0.5674,-0.5923,-0.6911,-0.764,-0.7858,-0.7858,-0.7845,-0.7826,-0.779,-0.8033,-0.8552,-0.7969,-0.7918,2.6745,2.6966,2.6765,0.0,0.0,0.0,0.0,0.0,0.0,0.0,0.0,0.0,0.0,0.0,0.0,0.0,0.0,0.0,0.0,0.0,0.0,0.0,0.0,0.0,0.0,0.0,0.0,0.0,0.0,0.0,0.0,0.0,1.5037,1.5037,1.5037,1.5037,1.5037,1.5037,1.4798,1.4098,1.3402,1.3163,1.2924,1.175,1.1503,1.2178,1.191,1.2076,1.2452,1.2639,1.3231,1.3761,1.4135,1.4325,1.4758,1.5652,1.6317,1.6545,1.7753,1.8023,1.807,1.7686,1.804,1.8349,1.8196,1.8575,1.9162,1.89,1.7914,1.6643,1.617,1.4632,1.3121,1.2851,1.2288,1.1698,1.1698,1.1772,1.1833,1.1833,1.2083,1.257,1.3541,1.4036,1.2299,0.6641,0.5902,0.3444,-0.2961,-0.3949,-0.3949,-0.3949,-0.3949,-0.3949,-0.3949,-0.3949,-0.4196,-0.4938,-0.5428,-0.5923,-0.6169,-0.7399,-0.7894,-0.7894,-0.7894,-0.7894,-0.7894,-0.7853,-0.8098,-0.863,-0.8033,-0.7983,2.4496,2.4818,0.0,0.0,0.0,0.0,0.0,0.0,0.0,0.0,0.0,0.0,0.0,0.0,0.0,0.0,0.0,0.0,0.0,0.0,0.0,0.0,0.0,0.0,0.0,0.0,0.0,0.0,0.0,0.0,0.0,0.0,1.5037,1.5037,1.5037,1.5037,1.5037,1.5037,1.4798,1.4098,1.3402,1.2924,1.2227,1.1524,1.1474,1.2085,1.1483,1.2285,1.3613,1.3038,1.3408,1.432,1.432,1.4758,1.5202,1.5868,1.6545,1.6988,1.7639,1.786,1.7914,1.7536,1.7954,1.8349,1.8196,1.8714,1.918,1.7736,1.653,1.5312,1.4109,1.3553,1.2961,1.1687,1.1563,1.1698,1.1698,1.1772,1.1833,1.1833,1.232,1.3056,1.3786,1.4276,1.2793,0.6887,0.59,0.3444,-0.2961,-0.3949,-0.3949,-0.3949,-0.3949,-0.3949,-0.3949,-0.3949,-0.4196,-0.4938,-0.5428,-0.6169,-0.6911,-0.7648,-0.7894,-0.7894,-0.7894,-0.7894,-0.7894,-0.7894,-0.7894,-0.7894,-0.7831,-0.7804,2.6465,0.0,0.0,0.0,0.0,0.0,0.0,0.0,0.0,0.0,0.0,0.0,0.0,0.0,0.0,0.0,0.0,0.0,0.0,0.0,0.0,0.0,0.0,0.0,0.0,0.0,0.0,0.0,0.0,0.0,0.0,1.4798,1.5037,1.5037,1.5037,1.5037,1.5037,1.5037,1.4798,1.4098,1.3864,1.3402,1.2924,1.175,1.1707,1.2779,1.2112,1.2498,1.3705,1.3896,1.4059,1.445,1.445,1.4887,1.5335,1.6006,1.6627,1.6988,1.7639,1.7935,1.807,1.8141,1.8262,1.8586,1.8664,1.8333,1.77,1.733,1.5679,1.402,1.3847,1.288,1.2133,1.1625,1.1657,1.1719,1.1784,1.1813,1.1833,1.1833,1.232,1.3056,1.3786,1.2311,1.0088,0.6393,0.3936,0.0985,-0.3456,-0.3949,-0.3949,-0.3949,-0.3949,-0.3949,-0.3949,-0.3949,-0.4444,-0.5428,-0.5676,-0.6169,-0.6911,-0.7648,-0.7894,-0.7894,-0.7894,-0.7894,-0.7894,-0.7894,-0.7894,-0.7894,-0.7875,-0.7845,2.652,0.0,0.0,0.0,0.0,0.0,0.0,0.0,0.0,0.0,0.0,0.0,0.0,0.0,0.0,0.0,0.0,0.0,0.0,0.0,0.0,0.0,0.0,0.0,0.0,0.0,0.0,0.0,0.0,0.0,0.0,1.4798,1.5037,1.5037,1.5037,1.5037,1.5037,1.5037,1.4798,1.4342,1.4047,1.3824,1.3402,1.2227,1.2169,1.3001,1.2695,1.3072,1.369,1.4258,1.4434,1.4434,1.4434,1.4876,1.5318,1.5988,1.6608,1.6988,1.7639,1.7968,1.8124,1.8375,1.8531,1.8654,1.885,1.8071,1.7025,1.6567,1.4971,1.3373,1.2952,1.2235,1.1739,1.171,1.1731,1.1772,1.1825,1.1833,1.1833,1.1833,1.2074,1.2806,1.3541,1.1318,0.8615,0.6148,0.1969,-0.1726,-0.3703,-0.3949,-0.3949,-0.3949,-0.3949,-0.3949,-0.3949,-0.4196,-0.4691,-0.5923,-0.6169,-0.6664,-0.716,-0.7648,-0.7894,-0.7894,-0.7894,-0.7894,-0.7894,-0.7894,-0.7894,-0.7894,-0.7894,-0.7875,0.0,0.0,0.0,0.0,0.0,0.0,0.0,0.0,0.0,0.0,0.0,0.0,0.0,0.0,0.0,0.0,0.0,0.0,0.0,0.0,0.0,0.0,0.0,0.0,0.0,0.0,0.0,0.0,0.0,0.0,0.0,1.5037,1.5037,1.5037,1.4798,1.4798,1.5037,1.5037,1.5037,1.5037,1.4217,1.3981,1.4088,1.2677,1.2393,1.2991,1.3473,1.3598,1.3588,1.4161,1.4336,1.4336,1.4336,1.4775,1.5214,1.588,1.6545,1.6988,1.7639,1.7968,1.8145,1.8287,1.8531,1.8762,1.8796,1.8136,1.6977,1.5434,1.4356,1.3292,1.2074,1.1825,1.1804,1.1731,1.1772,1.1833,1.1833,1.1833,1.1833,1.1837,1.1837,1.232,1.3786,1.1081,0.7872,0.5409,-0.0,-0.3949,-0.3949,-0.3949,-0.3949,-0.3949,-0.3947,-0.3947,-0.3949,-0.444,-0.5181,-0.5923,-0.6418,-0.716,-0.7894,-0.7894,-0.7894,-0.7894,-0.7894,-0.7894,-0.7894,-0.7894,-0.7894,-0.7894,-0.7894,-0.7894,0.0,0.0,0.0,0.0,0.0,0.0,0.0,0.0,0.0,0.0,0.0,0.0,0.0,0.0,0.0,0.0,0.0,0.0,0.0,0.0,0.0,0.0,0.0,0.0,0.0,0.0,0.0,0.0,0.0,0.0,1.5037,1.456,1.4337,1.4337,1.3864,1.3859,1.4337,1.4337,1.4575,0.0,1.4675,1.4632,1.4659,1.2807,1.2099,1.2312,1.369,1.4059,1.3598,1.4247,1.4461,1.4461,1.4461,1.4904,1.5353,1.6018,1.6627,1.6988,1.7639,1.8036,1.8301,1.8443,1.8599,1.8577,1.7861,1.6793,1.5434,1.43,1.3149,1.1987,1.1813,1.1784,1.1739,1.1792,1.1825,1.1833,1.1833,1.1833,1.2083,1.257,1.3056,1.3541,1.4521,1.0081,0.4675,-0.0986,-0.2961,-0.3949,-0.3949,-0.3949,-0.3949,-0.3949,-0.3929,-0.3925,-0.3947,-0.442,-0.5149,-0.5923,-0.6418,-0.716,-0.7894,-0.7894,-0.7894,-0.7894,-0.7894,-0.7894,-0.7894,-0.7894,-0.7894,-0.7894,-0.8384,-0.8384,0.0,0.0,0.0,0.0,0.0,0.0,0.0,0.0,0.0,0.0,0.0,0.0,0.0,0.0,0.0,0.0,0.0,0.0,0.0,0.0,0.0,0.0,0.0,0.0,0.0,0.0,0.0,0.0,0.0,1.5037,1.5037,1.4342,1.4098,1.4098,1.3859,1.3859,1.4098,1.4285,1.4718,1.4956,1.4771,1.4456,1.3772,1.3135,1.2672,1.2392,1.3649,1.3792,1.3522,1.4188,1.4417,1.4417,1.4417,1.463,1.5089,1.597,1.6385,1.6773,1.7719,1.8124,1.8335,1.8477,1.8265,1.8039,1.7408,1.5891,1.4356,1.3871,1.2691,1.1772,1.1825,1.1804,1.1772,1.1825,1.1833,1.1833,1.1833,1.1833,1.2083,1.2561,1.3056,1.3541,1.4526,0.9832,0.369,-0.2959,-0.3949,-0.3949,-0.3949,-0.3949,-0.3949,-0.3949,-0.3922,-0.3918,-0.444,-0.4904,-0.5629,-0.6411,-0.6911,-0.7648,-0.7894,-0.7894,-0.7894,-0.7894,-0.7894,-0.7894,-0.7894,-0.7894,-0.7894,-0.7894,-0.863,-0.863,0.0,0.0,0.0,0.0,0.0,0.0,0.0,0.0,0.0,0.0,0.0,0.0,0.0,0.0,0.0,0.0,0.0,0.0,0.0,0.0,0.0,0.0,0.0,0.0,0.0,0.0,0.0,0.0,0.0,1.501,1.4798,1.4337,1.3849,1.3839,1.3834,1.3824,1.4047,1.4412,1.4825,1.4825,1.4602,1.4043,1.2902,1.3438,1.3433,1.2471,1.3358,1.3522,1.343,1.4092,1.432,1.432,1.432,1.432,1.4547,1.5652,1.6089,1.6336,1.7596,1.8199,1.8335,1.8262,1.7638,1.7214,1.6668,1.5184,1.3701,1.3406,1.2483,1.1813,1.1813,1.1825,1.1833,1.1833,1.1833,1.1833,1.1833,1.1833,1.2083,1.2561,1.3056,1.3292,1.3292,0.9103,0.369,-0.2959,-0.3949,-0.3949,-0.3949,-0.3949,-0.3949,-0.3949,-0.3918,-0.4156,-0.4933,-0.5384,-0.6109,-0.6906,-0.7648,-0.7894,-0.7894,-0.7894,-0.7894,-0.7894,-0.7894,-0.7894,-0.7894,-0.7894,-0.7894,-0.7894,-0.863,-0.863,0.0,0.0,0.0,0.0,0.0,0.0,0.0,0.0,0.0,0.0,0.0,0.0,0.0,0.0,0.0,0.0,0.0,0.0,0.0,0.0,0.0,0.0,0.0,0.0,0.0,0.0,0.0,0.0,1.4939,1.4691,1.4321,1.3635,1.3348,1.3261,1.2571,1.2756,1.3807,1.3787,1.4233,1.47,1.4559,1.4445,1.4124,1.4135,1.3293,1.201,1.3054,1.344,1.343,1.4092,1.432,1.432,1.432,1.432,1.4547,1.5652,1.6089,1.6336,1.7596,1.8199,1.8121,1.7333,1.7042,1.6514,1.4591,1.3649,1.3177,1.2137,1.1953,1.1719,1.1719,1.1772,1.1833,1.1833,1.1833,1.1833,1.1833,1.1833,1.2083,1.2561,1.3786,1.3042,0.7867,0.6393,0.369,-0.2959,-0.3949,-0.3949,-0.3949,-0.3949,-0.3949,-0.3949,-0.3898,-0.4129,-0.4933,-0.5356,-0.6078,-0.6906,-0.7648,-0.7894,-0.7894,-0.7894,-0.7894,-0.7894,-0.7894,-0.7894,-0.7894,-0.7894,-0.7894,-0.7894,-0.863,-0.863,0.0,0.0,0.0,0.0,0.0,0.0,0.0,0.0,0.0,0.0,0.0,0.0,0.0,0.0,0.0,0.0,0.0,0.0,0.0,0.0,0.0,0.0,0.0,0.0,0.0,0.0,0.0,0.0,1.4825,1.4809,1.447,1.394,1.3423,1.3369,1.315,1.3125,1.3772,1.3922,1.4285,1.4379,1.432,1.4012,1.3675,1.3743,1.3399,1.2825,1.3455,1.3658,1.343,1.4092,1.432,1.432,1.432,1.432,1.4325,1.5202,1.5862,1.6348,1.724,1.7582,1.7206,1.6974,1.5959,1.4686,1.36,1.2924,1.2236,1.1837,1.1625,1.1625,1.1625,1.1891,1.2167,1.2167,1.2209,1.2243,1.2243,1.2041,1.2074,1.3056,1.4051,1.2806,0.6887,0.4921,0.2215,-0.3208,-0.3949,-0.3949,-0.3949,-0.3949,-0.3949,-0.3949,-0.4156,-0.4633,-0.5424,-0.6109,-0.6825,-0.7399,-0.7648,-0.7894,-0.7894,-0.7894,-0.7894,-0.7894,-0.7894,-0.7894,-0.7894,-0.7894,-0.7894,-0.7894,-0.863,-0.863,0.0,0.0,0.0,0.0,0.0,0.0,0.0,0.0,0.0,0.0,0.0,0.0,0.0,0.0,0.0,0.0,0.0,0.0,0.0,0.0,0.0,0.0,0.0,0.0,0.0,0.0,0.0,0.0,1.47,1.4684,1.4563,1.4031,1.3746,1.3715,1.3715,1.3705,1.3906,1.4247,1.432,1.414,1.4108,1.3824,1.3305,1.3388,1.3492,1.3601,1.3827,1.3827,1.3389,1.4054,1.4249,1.4238,1.4292,1.4309,1.4282,1.4975,1.567,1.6175,1.6872,1.6739,1.635,1.6121,1.4852,1.3287,1.2842,1.2166,1.1498,1.1519,1.1531,1.1531,1.1551,1.2048,1.2532,1.2554,1.2589,1.2647,1.2457,1.2028,1.2074,1.3306,1.3801,1.2324,0.7381,0.4186,0.1231,-0.3209,-0.3949,-0.3949,-0.3949,-0.3949,-0.3949,-0.3949,-0.4412,-0.514,-0.5916,-0.6616,-0.7096,-0.7888,-0.7894,-0.7894,-0.7894,-0.7894,-0.7894,-0.7894,-0.7894,-0.7894,-0.7894,-0.7894,-0.7894,-0.7894,-0.8384,-0.8389,0.0,0.0,0.0,0.0,0.0,0.0,0.0,0.0,0.0,0.0,0.0,0.0,0.0,0.0,0.0,0.0,0.0,0.0,0.0,0.0,0.0,0.0,0.0,0.0,0.0,0.0,0.0,0.0,1.4575,1.4327,1.3756,1.3756,1.3715,1.3613,1.3613,1.3777,1.4336,1.4222,1.4151,1.414,1.4021,1.3961,1.3955,1.3961,1.4031,1.3931,1.3481,1.3272,1.3272,1.3926,1.408,1.3999,1.4238,1.4249,1.4167,1.4929,1.5729,1.6309,1.5764,1.6116,1.624,1.4062,1.3397,1.2948,1.1873,1.1363,1.1318,1.1404,1.1437,1.1457,1.1539,1.2048,1.2545,1.2634,1.3076,1.3067,1.2028,1.1833,1.2083,1.2806,1.3065,1.2083,0.8375,0.4924,0.1231,-0.3209,-0.3949,-0.3949,-0.3949,-0.3949,-0.3949,-0.3949,-0.4412,-0.514,-0.5916,-0.6616,-0.7096,-0.7888,-0.7894,-0.7894,-0.7894,-0.7894,-0.7894,-0.7894,-0.7894,-0.7894,-0.7894,-0.7894,-0.7894,-0.7894,-0.7894,-0.7894,0.0,0.0,0.0,0.0,0.0,0.0,0.0,0.0,0.0,0.0,0.0,0.0,0.0,0.0,0.0,0.0,0.0,0.0,0.0,0.0,0.0,0.0,0.0,0.0,0.0,0.0,0.0,0.0,0.0,1.5454,1.4301,1.5159,1.5247,1.4151,1.387,1.3985,1.408,1.4042,1.3988,1.3912,1.3868,1.3809,1.3732,1.3814,1.3874,1.3912,1.3696,1.3564,1.369,1.4053,1.3993,1.3966,1.4053,1.4053,1.4026,1.4293,1.4827,1.5395,1.5071,1.4746,1.4429,1.3458,1.2603,1.1919,1.1545,1.131,1.1298,1.1331,1.1339,1.1339,1.1384,1.1861,1.2351,1.2938,1.3214,1.3275,1.2448,1.2235,1.2491,1.2793,1.2578,1.1357,0.8375,0.3202,-0.1233,-0.3456,-0.3949,-0.3949,-0.3949,-0.3949,-0.3949,-0.3949,-0.4924,-0.566,-0.5923,-0.6894,-0.7626,-0.7894,-0.7894,-0.7894,-0.7894,-0.7894,-0.7894,-0.7894,-0.7894,-0.7894,-0.7894,-0.7894,-0.7894,-0.7894,-0.7894,-0.7894,0.0,0.0,0.0,0.0,0.0,0.0,0.0,0.0,0.0,0.0,0.0,0.0,0.0,0.0,0.0,0.0,0.0,0.0,0.0,0.0,0.0,0.0,0.0,0.0,0.0,0.0,0.0,0.0,0.0,0.0,1.4282,1.5289,1.5388,1.4184,1.4124,1.4037,1.3955,1.3917,1.3863,1.3787,1.3743,1.3684,1.3607,1.3689,1.3962,1.3995,1.3743,1.3836,1.4015,1.3934,1.3874,1.3847,1.3928,1.3934,1.3906,1.3944,1.4277,1.4658,1.4108,1.3547,1.3231,1.2525,1.1876,1.1184,1.1265,1.129,1.129,1.129,1.129,1.1298,1.1331,1.1805,1.2519,1.3263,1.3586,1.3214,1.2835,1.2669,1.2247,1.2557,1.2095,1.0872,0.764,0.2219,-0.2468,-0.3703,-0.3949,-0.3949,-0.3949,-0.3949,-0.3949,-0.4196,-0.5181,-0.5923,-0.6169,-0.7152,-0.7894,-0.7894,-0.7894,-0.7894,-0.7894,-0.7894,-0.7894,-0.7894,-0.7894,-0.7894,-0.7894,-0.7894,-0.7894,-0.7894,-0.7894,-0.7894,0.0,0.0,0.0,0.0,0.0,0.0,0.0,0.0,0.0,0.0,0.0,0.0,0.0,0.0,0.0,0.0,0.0,0.0,0.0,0.0,0.0,0.0,0.0,0.0,0.0,0.0,0.0,0.0,1.4139,1.4139,1.3955,1.3955,1.395,1.3944,1.3944,1.3939,1.3934,1.383,1.3776,1.3776,1.3662,1.3602,1.3602,1.3602,1.3879,1.4619,1.3863,1.3673,1.3781,1.3781,1.3711,1.3629,1.3857,1.3879,1.3798,1.3906,1.4097,1.4097,1.3088,1.2744,1.2634,1.1686,1.1225,1.1171,1.1257,1.129,1.129,1.129,1.129,1.131,1.1392,1.1895,1.2578,1.3884,1.3714,1.3358,1.3458,1.2435,1.1833,1.1833,1.1853,1.0622,0.6657,0.1479,-0.2221,-0.3703,-0.3949,-0.3949,-0.3949,-0.3949,-0.4196,-0.4938,-0.5428,-0.6169,-0.6911,-0.7401,-0.7894,-0.7894,-0.7894,-0.7894,-0.7894,-0.7894,-0.7894,-0.7894,-0.7894,-0.7894,-0.7894,-0.7894,-0.7894,-0.7894,-0.7894,-0.7894,2.5035,0.0,0.0,0.0,0.0,0.0,0.0,0.0,0.0,0.0,0.0,0.0,0.0,0.0,0.0,0.0,0.0,0.0,0.0,0.0,0.0,0.0,0.0,0.0,0.0,0.0,0.0,0.0,1.4992,1.5329,1.4128,1.3879,1.3792,1.3705,1.3618,1.3526,1.3439,1.3493,1.352,1.352,1.3575,1.3602,1.3602,1.3602,1.3835,1.4498,1.383,1.3835,1.4292,1.3868,1.3635,1.3613,1.3678,1.3684,1.3662,1.3689,1.3637,1.3398,1.2563,1.2251,1.1749,1.1191,1.0984,1.0996,1.1151,1.1196,1.1216,1.1265,1.129,1.1298,1.1318,1.1797,1.2262,1.27,1.2828,1.2731,1.2754,1.2188,1.1833,1.1833,1.2333,1.1349,0.6657,0.345,0.0247,-0.3456,-0.3949,-0.3949,-0.3949,-0.3949,-0.4196,-0.4938,-0.5428,-0.6169,-0.6911,-0.7401,-0.7894,-0.7894,-0.7894,-0.7894,-0.7894,-0.7894,-0.7894,-0.7894,-0.7894,-0.7894,-0.7894,-0.7894,-0.7894,-0.7894,-0.7894,-0.7894,2.513,2.5041,0.0,0.0,0.0,0.0,0.0,2.5735,0.0,0.0,0.0,0.0,0.0,0.0,0.0,0.0,0.0,0.0,0.0,0.0,0.0,0.0,0.0,0.0,0.0,1.377,1.3781,1.3716,1.459,1.4917,1.37,1.3624,1.3526,1.3455,1.3385,1.3308,1.3238,1.3357,1.3423,1.3423,1.3548,1.3602,1.3602,1.3813,1.4235,1.4657,1.4241,1.4235,1.4657,1.3813,1.3602,1.3602,1.3602,1.3602,1.3607,1.3662,1.3369,1.2669,1.233,1.1803,1.1269,1.091,1.117,1.1203,1.1122,1.1395,1.1407,1.1269,1.129,1.129,1.129,1.1524,1.1988,1.2222,1.211,1.2231,1.251,1.2154,1.1784,1.2074,1.2583,1.2333,0.962,0.5424,0.1231,-0.3209,-0.3949,-0.3949,-0.3949,-0.3949,-0.4196,-0.5185,-0.5674,-0.6169,-0.716,-0.7648,-0.7894,-0.7894,-0.7894,-0.7894,-0.7894,-0.7894,-0.7894,-0.7894,-0.7894,-0.7894,-0.7894,-0.7894,-0.7894,-0.7894,-0.7894,-0.7894,2.5052,2.5052,2.5052,2.5052,0.0,0.0,2.5052,2.5514,0.0,0.0,0.0,0.0,0.0,0.0,0.0,0.0,0.0,0.0,0.0,0.0,0.0,0.0,0.0,0.0,1.3586,1.3597,1.3597,1.3586,1.3597,1.3553,1.3428,1.3303,1.3238,1.3238,1.3227,1.3211,1.32,1.3346,1.3412,1.3401,1.3542,1.3602,1.3602,1.403,1.4657,1.5072,1.4657,1.4657,1.5078,1.4024,1.3602,1.3602,1.3602,1.3602,1.3618,1.3743,1.3222,1.2273,1.2463,1.1714,1.0918,1.0992,1.1257,1.1732,1.1362,1.1631,1.1876,1.1503,1.129,1.129,1.129,1.129,1.1524,1.1988,1.1839,1.1695,1.2266,1.2124,1.1974,1.2793,1.3065,1.3329,1.3834,0.7888,0.1478,-0.3209,-0.3949,-0.3949,-0.3949,-0.3949,-0.4444,-0.5676,-0.5923,-0.6416,-0.7894,-0.7894,-0.7894,-0.7894,-0.7894,-0.7894,-0.7894,-0.7894,-0.7894,-0.7894,-0.7894,-0.7894,-0.7894,-0.7894,-0.7894,-0.7894,-0.7894,-0.7894,0.0,0.0,0.0,0.0,0.0,0.0,2.4645,2.4744,0.0,0.0,0.0,0.0,0.0,0.0,0.0,0.0,0.0,0.0,0.0,0.0,0.0,0.0,0.0,0.0,1.3466,1.3548,1.3564,1.3466,1.3548,1.3553,1.3428,1.3303,1.3238,1.3238,1.3151,1.3058,1.2955,1.3265,1.3374,1.3276,1.3499,1.3602,1.3602,1.3607,1.403,1.4452,1.403,1.403,1.4452,1.3813,1.3602,1.3602,1.3602,1.3602,1.3618,1.3743,1.3058,1.2363,1.2487,1.1758,1.1004,1.1016,1.1024,1.1266,1.1131,1.1163,1.1416,1.1269,1.129,1.129,1.129,1.129,1.129,1.1524,1.1416,1.1543,1.1791,1.169,1.2054,1.3292,1.3541,1.3801,1.3839,0.9115,0.32,-0.2961,-0.3949,-0.3949,-0.3949,-0.3949,-0.4444,-0.5676,-0.5923,-0.6416,-0.7894,-0.7894,-0.7894,-0.7894,-0.7894,-0.7894,-0.7894,-0.7894,-0.7894,-0.7894,-0.7894,-0.7894,-0.7894,-0.7894,-0.7894,-0.7894,-0.7894,-0.7894,0.0,0.0,0.0,2.4645,0.0,0.0,0.0,2.4316,0.0,0.0,0.0,0.0,0.0,0.0,0.0,0.0,0.0,0.0,0.0,0.0,0.0,0.0,0.0,0.0,1.3336,1.3385,1.3395,1.3336,1.3444,1.3461,1.3336,1.327,1.3238,1.3238,1.3183,1.3124,1.3064,1.3303,1.339,1.333,1.3515,1.3602,1.3602,1.3819,1.4241,1.4452,1.403,1.4241,1.4452,1.3813,1.3602,1.3602,1.3602,1.3602,1.3624,1.3803,1.3295,1.2325,1.2549,1.1816,1.1016,1.0971,1.1245,1.1554,1.109,1.1151,1.1237,1.1278,1.129,1.129,1.129,1.129,1.1298,1.1339,1.1425,1.1519,1.1612,1.1698,1.202,1.3042,1.3292,1.3551,1.4576,0.9853,0.369,-0.2959,-0.3949,-0.3949,-0.3949,-0.4196,-0.4691,-0.5676,-0.6169,-0.6911,-0.7894,-0.7894,-0.7894,-0.7894,-0.7894,-0.7894,-0.7894,-0.7894,-0.7894,-0.7894,-0.7894,-0.7894,-0.7894,-0.7894,-0.7894,-0.7894,-0.7894,-0.7894,0.0,0.0,0.0,0.0,0.0,2.436,0.0,0.0,0.0,0.0,0.0,0.0,0.0,0.0,0.0,0.0,0.0,0.0,0.0,0.0,0.0,0.0,0.0,0.0,0.0,1.4172,1.3712,1.3227,1.3352,1.3379,1.3281,1.3249,1.3238,1.3238,1.3216,1.3205,1.3205,1.3352,1.3423,1.3423,1.3548,1.3602,1.3602,1.403,1.4241,1.4241,1.4241,1.4241,1.4241,1.3819,1.3602,1.3602,1.3602,1.3618,1.3667,1.3879,1.3336,1.2325,1.262,1.1886,1.1037,1.0963,1.1257,1.1819,1.1299,1.1151,1.1265,1.129,1.129,1.129,1.129,1.129,1.131,1.1384,1.1412,1.1465,1.1612,1.1678,1.1966,1.2526,1.2299,1.2557,1.4296,0.9587,0.3434,-0.2949,-0.3932,-0.3932,-0.3932,-0.4675,-0.5418,-0.5906,-0.6904,-0.7401,-0.8143,-0.8143,-0.8143,-0.7894,-0.7894,-0.7894,-0.7894,-0.7894,-0.7894,-0.7894,-0.7894,-0.7894,-0.7894,-0.7894,-0.7894,-0.7894,-0.7894,-0.7894,0.0,0.0,0.0,0.0,2.4102,0.0,0.0,0.0,2.3419,2.3157,0.0,0.0,0.0,0.0,0.0,0.0,0.0,0.0,0.0,0.0,0.0,0.0,0.0,0.0,0.0,1.7548,1.5549,1.3399,1.3352,1.3417,1.3401,1.3298,1.3238,1.3238,1.314,1.3091,1.3091,1.3308,1.3423,1.3423,1.3548,1.3602,1.3602,1.3602,1.3602,1.3602,1.3602,1.3602,1.3602,1.3607,1.3602,1.3602,1.3602,1.3673,1.3781,1.3912,1.344,1.2534,1.2758,1.1988,1.1143,1.1131,1.109,1.1057,1.1122,1.1163,1.1192,1.1265,1.129,1.129,1.129,1.129,1.129,1.1298,1.1363,1.1437,1.1457,1.1584,1.1945,1.2678,1.0786,0.9587,0.9774,0.7307,0.316,-0.2904,-0.3869,-0.3869,-0.3869,-0.5108,-0.6103,-0.6593,-0.7861,-0.863,-0.8876,-0.8876,-0.863,-0.7894,-0.7894,-0.7894,-0.7894,-0.7894,-0.7894,-0.7894,-0.7894,-0.7894,-0.7894,-0.7894,-0.7894,-0.7894,-0.7894,-0.8143,0.0,0.0,0.0,0.0,0.0,0.0,2.3274,0.0,2.2942,0.0,0.0,0.0,0.0,0.0,0.0,0.0,2.2814,0.0,0.0,0.0,0.0,0.0,0.0,0.0,0.0,0.0,0.0,0.0,1.4957,1.5099,1.4643,1.3706,1.3314,1.3243,1.3259,1.3276,1.3276,1.3374,1.3455,1.3526,1.358,1.3602,1.3602,1.3602,1.3602,1.3602,1.3602,1.3602,1.3602,1.3602,1.3602,1.3602,1.3602,1.389,1.4226,1.4128,1.3622,1.2911,1.2687,1.1917,1.109,1.1143,1.1098,1.1045,1.1131,1.1196,1.1245,1.1278,1.129,1.129,1.129,1.129,1.1298,1.1351,1.1437,1.1519,1.1572,1.1686,1.1772,1.202,1.0046,0.7812,0.654,0.4127,0.1214,-0.314,-0.3859,-0.3859,-0.3859,-0.5341,-0.6582,-0.6825,-0.8346,-0.9364,-0.9364,-0.9125,-0.8876,-0.8384,-0.8143,-0.7894,-0.7894,-0.7894,-0.7894,-0.7894,-0.7894,-0.7894,-0.7894,-0.7894,-0.7894,-0.7894,-0.7894,-0.8143,2.4353,0.0,0.0,0.0,0.0,0.0,0.0,0.0,0.0,0.0,0.0,0.0,0.0,0.0,2.2311,2.2794,0.0,2.2674,0.0,0.0,0.0,0.0,0.0,0.0,0.0,0.0,0.0,1.5941,1.6177,1.6104,1.5452,1.4036,1.3249,1.3194,1.3243,1.3292,1.3325,1.3325,1.3385,1.3504,1.3504,1.352,1.3553,1.3553,1.3569,1.3602,1.3602,1.3602,1.3602,1.3602,1.3602,1.3607,1.3852,1.436,1.4915,1.4139,1.3414,1.294,1.2672,1.1882,1.1037,1.1098,1.1045,1.0971,1.109,1.1171,1.1225,1.1245,1.1265,1.129,1.129,1.129,1.131,1.1372,1.1437,1.151,1.1604,1.1698,1.1772,1.1792,0.9062,0.6088,0.4342,0.2172,-0.0242,-0.336,-0.3835,-0.4077,-0.4326,-0.605,-0.7294,-0.7553,-0.9322,-1.0355,-1.0109,-0.9614,-0.9371,-0.8879,-0.8389,-0.7894,-0.7894,-0.7894,-0.7894,-0.7894,-0.7894,-0.7894,-0.7894,-0.7894,-0.7894,-0.7894,-0.7894,-0.8143,0.0,0.0,0.0,2.3562,0.0,0.0,0.0,0.0,2.2859,0.0,0.0,2.2418,2.2405,2.2405,2.2405,2.2418,2.2659,0.0,0.0,0.0,0.0,0.0,0.0,0.0,0.0,0.0,0.0,1.7452,1.6202,1.5292,1.5101,1.3727,1.296,1.3075,1.2966,1.296,1.308,1.308,1.314,1.3249,1.3249,1.3314,1.3428,1.3428,1.3493,1.3602,1.3602,1.3602,1.3602,1.3602,1.3602,1.3613,1.4366,1.5135,1.547,1.3739,1.2861,1.2706,1.2127,1.1478,1.1024,1.1024,1.091,1.0796,1.0971,1.1037,1.1057,1.1143,1.1225,1.129,1.129,1.129,1.129,1.129,1.1298,1.1318,1.1412,1.151,1.1592,1.1686,0.7592,0.3918,0.4103,0.1915,-0.0713,-0.3306,-0.3775,-0.4256,-0.548,-0.6955,-0.8218,-0.9494,-1.1038,-1.1587,-1.0843,-1.0843,-1.0109,-0.8879,-0.8389,-0.7894,-0.7894,-0.7894,-0.7894,-0.7894,-0.7894,-0.7894,-0.7894,-0.7894,-0.7894,-0.7894,-0.7894,-0.863,0.0,0.0,2.4741,2.4147,0.0,0.0,0.0,0.0,0.0,0.0,0.0,2.2712,2.2712,2.2712,2.2712,2.2712,2.2792,2.2859,0.0,0.0,0.0,0.0,0.0,0.0,0.0,0.0,0.0,1.9152,1.9105,1.894,1.8304,1.5911,1.4674,1.4622,1.3563,1.3031,1.3069,1.3069,1.3129,1.3238,1.3319,1.3379,1.3423,1.3504,1.3564,1.3602,1.3602,1.3602,1.3602,1.3602,1.3651,1.3732,1.3984,1.4554,1.5167,1.408,1.3759,1.3496,1.1802,1.1203,1.1024,1.1024,1.1024,1.1037,1.1098,1.1151,1.1204,1.1237,1.1265,1.129,1.129,1.129,1.129,1.129,1.1331,1.1404,1.1498,1.1584,1.1678,1.1772,0.9059,0.6088,0.4342,0.1913,-0.0713,-0.3327,-0.3786,-0.4263,-0.5515,-0.6982,-0.8218,-0.9737,-1.1042,-1.1587,-1.1587,-1.1088,-1.0355,-0.8879,-0.863,-0.8389,-0.7894,-0.7894,-0.7894,-0.7894,-0.7894,-0.7894,-0.7894,-0.7894,-0.7894,-0.7894,-0.8389,-0.863,2.9247,2.7313,0.0,2.4643,2.4481,0.0,2.3657,0.0,2.3214,0.0,0.0,2.3241,2.3171,2.308,2.3051,2.2953,2.2859,2.2859,0.0,2.2448,0.0,0.0,0.0,0.0,0.0,0.0,2.1003,1.9956,1.9837,1.9756,0.0,1.6886,1.5278,1.5469,1.381,1.3004,1.3004,1.3004,1.3042,1.3113,1.3238,1.3319,1.3363,1.3482,1.3564,1.3602,1.3602,1.3602,1.3607,1.3651,1.3716,1.3798,1.4095,1.4439,1.4585,1.3748,1.344,1.2927,1.138,1.0971,1.1024,1.1024,1.1045,1.1078,1.1143,1.1204,1.129,1.1478,1.1416,1.1331,1.1531,1.1437,1.129,1.129,1.1331,1.1404,1.149,1.1584,1.1678,1.1772,0.9554,0.7071,0.4357,0.1922,-0.0716,-0.3327,-0.3786,-0.4263,-0.5515,-0.6975,-0.8218,-0.9737,-1.1042,-1.1833,-1.1833,-1.1092,-1.0348,-0.9614,-0.9125,-0.863,-0.8389,-0.8143,-0.8427,-0.8522,-0.8436,-0.8674,-0.8522,-0.8433,-0.8143,-0.7894,-0.863,-0.863]},{"header":{"parameterUnit":"m.s-1","parameterCategory":1,"la1":30.6,"la2":29.2853,"lo1":-89.7004,"lo2":-87.6739,"dy":0.0162,"dx":0.0183,"nx":112,"ny":82,"refTime":"2023-04-27T00:00:00:Z","depth":0,"parameterNumber":3,"parameterNumberName":"V-component_of_WINDS"},"data":[0.0,0.0,0.0,0.0,0.0,0.0,0.0,0.0,0.0,0.0,0.0,0.0,0.0,0.0,0.0,0.0,0.0,0.0,0.0,0.0,0.0,0.0,0.0,0.0,0.0,0.0,0.0,0.0,0.0,0.0,0.0,0.0,0.0,0.0,0.0,0.0,0.0,0.0,0.0,0.0,0.0,0.0,0.0,0.0,0.0,0.0,0.0,0.0,0.0,0.0,0.0,0.0,0.0,0.0,0.0,0.0,0.0,0.0,0.0,0.0,0.0,0.0,0.0,0.0,0.0,0.0,0.0,0.0,0.0,0.0,0.0,0.0,0.0,0.0,0.0,0.0,0.0,0.0,0.0,0.0,0.0,0.0,0.0,0.0,0.0,0.0,0.0,0.0,0.0,0.0,-3.9742,-5.2627,-6.0862,-6.5688,-6.6442,-6.6511,-6.0786,-4.735,0.0,0.0,0.0,0.0,0.0,0.0,0.0,0.0,0.0,0.0,0.0,0.0,0.0,0.0,0.0,0.0,0.0,0.0,0.0,0.0,0.0,0.0,0.0,0.0,0.0,0.0,0.0,0.0,0.0,0.0,0.0,0.0,0.0,0.0,0.0,0.0,0.0,0.0,0.0,0.0,0.0,0.0,0.0,0.0,0.0,0.0,0.0,0.0,0.0,0.0,0.0,0.0,0.0,0.0,0.0,0.0,0.0,0.0,0.0,0.0,0.0,0.0,0.0,0.0,0.0,0.0,0.0,0.0,0.0,0.0,0.0,0.0,0.0,0.0,0.0,0.0,0.0,0.0,0.0,0.0,0.0,0.0,0.0,0.0,0.0,0.0,0.0,0.0,0.0,0.0,0.0,0.0,0.0,0.0,0.0,0.0,0.0,0.0,0.0,0.0,0.0,0.0,0.0,0.0,-4.7869,-6.2291,-6.6333,-6.811,-6.8224,-6.7724,-6.2105,-4.969,0.0,0.0,0.0,0.0,0.0,0.0,0.0,0.0,0.0,0.0,0.0,0.0,0.0,0.0,0.0,0.0,0.0,0.0,0.0,0.0,0.0,0.0,0.0,0.0,0.0,0.0,0.0,0.0,0.0,0.0,0.0,0.0,0.0,0.0,0.0,0.0,0.0,0.0,0.0,0.0,0.0,0.0,0.0,0.0,0.0,0.0,0.0,0.0,0.0,0.0,0.0,0.0,0.0,0.0,0.0,0.0,0.0,0.0,0.0,0.0,0.0,0.0,0.0,0.0,0.0,0.0,0.0,0.0,0.0,0.0,0.0,0.0,0.0,0.0,0.0,0.0,0.0,0.0,0.0,0.0,0.0,0.0,0.0,0.0,0.0,0.0,0.0,0.0,0.0,0.0,0.0,0.0,0.0,0.0,0.0,0.0,0.0,0.0,0.0,0.0,0.0,0.0,0.0,-4.6856,-5.7534,-6.5199,-6.758,-6.8376,-6.7884,-6.7817,-6.2219,-4.8997,-4.808,0.0,0.0,0.0,0.0,0.0,0.0,0.0,0.0,0.0,0.0,0.0,0.0,0.0,0.0,0.0,0.0,0.0,0.0,0.0,0.0,0.0,0.0,0.0,0.0,0.0,0.0,0.0,0.0,0.0,0.0,0.0,0.0,0.0,0.0,0.0,0.0,0.0,0.0,0.0,0.0,0.0,0.0,0.0,0.0,0.0,0.0,0.0,0.0,0.0,0.0,0.0,0.0,0.0,0.0,0.0,0.0,0.0,0.0,0.0,0.0,0.0,0.0,0.0,0.0,0.0,0.0,0.0,0.0,0.0,0.0,0.0,0.0,0.0,0.0,0.0,0.0,0.0,0.0,0.0,0.0,0.0,0.0,0.0,0.0,0.0,0.0,0.0,0.0,0.0,0.0,0.0,0.0,0.0,0.0,0.0,0.0,0.0,0.0,0.0,0.0,0.0,0.0,-5.522,-6.3389,-6.6208,-6.7838,-6.837,-6.7496,-6.7676,-6.2032,-4.8354,-4.8359,0.0,0.0,0.0,0.0,0.0,0.0,0.0,0.0,0.0,0.0,0.0,0.0,0.0,0.0,0.0,0.0,0.0,0.0,0.0,0.0,0.0,0.0,0.0,0.0,0.0,0.0,0.0,0.0,0.0,0.0,0.0,0.0,0.0,0.0,0.0,0.0,0.0,0.0,0.0,0.0,0.0,0.0,0.0,0.0,0.0,0.0,0.0,0.0,0.0,0.0,0.0,0.0,0.0,0.0,0.0,0.0,0.0,0.0,0.0,0.0,0.0,0.0,0.0,0.0,0.0,0.0,0.0,0.0,0.0,0.0,0.0,0.0,0.0,0.0,0.0,0.0,0.0,0.0,0.0,0.0,0.0,0.0,0.0,0.0,0.0,0.0,0.0,0.0,0.0,0.0,0.0,0.0,0.0,0.0,0.0,0.0,0.0,0.0,0.0,0.0,0.0,0.0,-5.4318,-6.1195,-6.7049,-6.8444,-6.8724,-6.8175,-6.76,-6.1984,-4.9539,-4.8798,0.0,0.0,0.0,0.0,0.0,0.0,0.0,0.0,0.0,0.0,0.0,0.0,0.0,0.0,0.0,0.0,0.0,0.0,0.0,0.0,0.0,0.0,0.0,0.0,0.0,0.0,0.0,0.0,0.0,0.0,0.0,0.0,0.0,0.0,0.0,0.0,0.0,0.0,0.0,0.0,0.0,0.0,0.0,0.0,0.0,0.0,0.0,0.0,0.0,0.0,0.0,0.0,0.0,0.0,0.0,0.0,0.0,0.0,0.0,0.0,0.0,0.0,0.0,0.0,0.0,0.0,0.0,0.0,0.0,0.0,0.0,0.0,0.0,0.0,0.0,0.0,0.0,0.0,0.0,0.0,0.0,0.0,0.0,0.0,0.0,0.0,0.0,0.0,0.0,0.0,0.0,0.0,0.0,0.0,0.0,0.0,0.0,0.0,0.0,0.0,0.0,0.0,-5.713,-6.4807,-6.8484,-6.9616,-6.9798,-6.9013,-6.848,-6.2617,-4.9554,0.0,0.0,0.0,0.0,0.0,0.0,0.0,0.0,0.0,0.0,0.0,0.0,0.0,0.0,0.0,0.0,0.0,0.0,0.0,0.0,0.0,0.0,0.0,0.0,0.0,0.0,0.0,0.0,0.0,0.0,0.0,0.0,0.0,0.0,0.0,0.0,0.0,0.0,0.0,0.0,0.0,0.0,0.0,0.0,0.0,0.0,0.0,0.0,0.0,0.0,0.0,0.0,0.0,0.0,0.0,0.0,0.0,0.0,0.0,0.0,0.0,0.0,0.0,0.0,0.0,0.0,0.0,0.0,0.0,0.0,0.0,0.0,0.0,0.0,0.0,0.0,0.0,0.0,0.0,0.0,0.0,0.0,0.0,0.0,0.0,0.0,0.0,0.0,0.0,0.0,0.0,0.0,0.0,0.0,0.0,0.0,0.0,0.0,0.0,0.0,0.0,0.0,-4.8318,-5.9212,-6.7439,-6.9294,-7.0375,-7.0513,-6.9424,-6.9359,-6.3476,-4.9638,0.0,0.0,0.0,0.0,0.0,0.0,0.0,0.0,0.0,0.0,0.0,0.0,0.0,0.0,0.0,0.0,0.0,0.0,0.0,0.0,0.0,0.0,0.0,0.0,0.0,0.0,0.0,0.0,0.0,0.0,0.0,0.0,0.0,0.0,0.0,0.0,0.0,0.0,0.0,0.0,0.0,0.0,0.0,0.0,0.0,0.0,0.0,0.0,0.0,0.0,0.0,0.0,0.0,0.0,0.0,0.0,0.0,0.0,0.0,0.0,0.0,0.0,0.0,0.0,0.0,0.0,0.0,0.0,0.0,0.0,0.0,0.0,0.0,0.0,0.0,0.0,0.0,0.0,0.0,0.0,0.0,0.0,0.0,0.0,0.0,0.0,0.0,0.0,0.0,0.0,0.0,0.0,0.0,0.0,0.0,0.0,0.0,0.0,0.0,0.0,0.0,0.0,-4.8731,-5.999,-6.8189,-6.941,-7.0612,-7.0753,-6.9289,-7.0041,-6.4459,0.0,0.0,0.0,0.0,0.0,0.0,0.0,0.0,0.0,0.0,0.0,0.0,0.0,0.0,0.0,0.0,0.0,0.0,0.0,0.0,0.0,0.0,0.0,0.0,0.0,0.0,0.0,0.0,0.0,0.0,0.0,0.0,0.0,0.0,0.0,0.0,0.0,0.0,0.0,0.0,0.0,0.0,0.0,0.0,0.0,0.0,0.0,0.0,0.0,0.0,0.0,0.0,0.0,0.0,0.0,0.0,0.0,0.0,0.0,0.0,0.0,0.0,0.0,0.0,0.0,0.0,0.0,0.0,0.0,0.0,0.0,0.0,0.0,0.0,0.0,0.0,0.0,0.0,0.0,0.0,0.0,0.0,0.0,0.0,0.0,0.0,0.0,0.0,0.0,0.0,0.0,0.0,0.0,0.0,0.0,0.0,0.0,0.0,0.0,0.0,0.0,0.0,0.0,-4.9298,-6.106,-6.9871,-7.1706,-7.2284,-7.2329,-7.1899,-7.1018,-6.4444,-5.0116,0.0,0.0,0.0,0.0,0.0,0.0,0.0,0.0,0.0,0.0,0.0,0.0,0.0,0.0,0.0,0.0,0.0,0.0,0.0,0.0,0.0,0.0,0.0,0.0,0.0,0.0,0.0,0.0,0.0,0.0,0.0,0.0,0.0,0.0,0.0,0.0,0.0,0.0,0.0,0.0,0.0,0.0,0.0,0.0,0.0,0.0,0.0,0.0,0.0,0.0,0.0,0.0,0.0,0.0,0.0,0.0,0.0,0.0,0.0,0.0,0.0,0.0,0.0,0.0,0.0,0.0,0.0,0.0,0.0,0.0,0.0,0.0,0.0,0.0,0.0,0.0,0.0,0.0,0.0,0.0,0.0,0.0,0.0,0.0,0.0,0.0,0.0,0.0,0.0,0.0,0.0,0.0,0.0,0.0,0.0,0.0,0.0,0.0,0.0,0.0,0.0,0.0,-4.8974,-6.1241,-7.0578,-7.2577,-7.3566,-7.3808,-7.3081,-7.2468,-6.6911,-5.4746,0.0,0.0,0.0,0.0,0.0,0.0,0.0,0.0,0.0,0.0,0.0,0.0,0.0,0.0,0.0,0.0,0.0,0.0,0.0,0.0,0.0,0.0,0.0,0.0,0.0,0.0,0.0,0.0,0.0,0.0,0.0,0.0,0.0,0.0,0.0,0.0,0.0,0.0,0.0,0.0,0.0,0.0,0.0,0.0,0.0,0.0,0.0,0.0,0.0,0.0,0.0,0.0,0.0,0.0,0.0,0.0,0.0,0.0,0.0,0.0,0.0,0.0,0.0,0.0,0.0,0.0,0.0,0.0,0.0,0.0,0.0,0.0,0.0,0.0,0.0,0.0,0.0,0.0,0.0,0.0,0.0,0.0,0.0,0.0,0.0,0.0,0.0,0.0,0.0,0.0,0.0,0.0,0.0,0.0,0.0,0.0,0.0,0.0,0.0,0.0,0.0,0.0,-4.829,-6.1133,-7.0793,-7.2677,-7.4559,-7.5023,-7.3375,-7.3934,-7.0525,-6.1473,0.0,0.0,0.0,0.0,0.0,0.0,0.0,0.0,0.0,0.0,0.0,0.0,0.0,0.0,0.0,0.0,0.0,0.0,0.0,0.0,0.0,0.0,0.0,0.0,0.0,0.0,0.0,0.0,0.0,0.0,0.0,0.0,0.0,0.0,0.0,0.0,0.0,0.0,0.0,0.0,0.0,0.0,0.0,0.0,0.0,0.0,0.0,0.0,0.0,0.0,0.0,0.0,0.0,0.0,0.0,0.0,0.0,0.0,0.0,0.0,-4.0406,0.0,0.0,0.0,0.0,0.0,0.0,0.0,0.0,0.0,0.0,0.0,0.0,0.0,0.0,0.0,0.0,0.0,0.0,0.0,0.0,0.0,0.0,0.0,0.0,0.0,0.0,0.0,0.0,0.0,0.0,0.0,0.0,0.0,0.0,0.0,0.0,0.0,0.0,0.0,0.0,0.0,-4.9423,-6.29,-7.3006,-7.4787,-7.5417,-7.5279,-7.4194,-7.3719,-6.9695,-6.0834,-5.9179,0.0,0.0,0.0,0.0,0.0,0.0,0.0,0.0,0.0,0.0,0.0,0.0,0.0,0.0,0.0,0.0,0.0,0.0,0.0,0.0,0.0,0.0,0.0,0.0,0.0,0.0,0.0,0.0,0.0,0.0,0.0,0.0,0.0,0.0,0.0,0.0,0.0,0.0,0.0,0.0,0.0,0.0,0.0,0.0,0.0,0.0,0.0,0.0,0.0,0.0,0.0,0.0,0.0,0.0,0.0,0.0,0.0,0.0,0.0,0.0,-4.2386,0.0,0.0,0.0,0.0,0.0,0.0,0.0,0.0,0.0,0.0,0.0,0.0,0.0,0.0,0.0,0.0,0.0,0.0,0.0,0.0,0.0,0.0,0.0,0.0,0.0,0.0,0.0,0.0,0.0,0.0,0.0,0.0,0.0,0.0,0.0,0.0,0.0,0.0,0.0,0.0,-4.9336,-6.3306,-7.3678,-7.547,-7.6048,-7.5971,-7.5152,-7.4693,-7.2306,-6.7324,-6.3399,0.0,0.0,0.0,0.0,0.0,0.0,0.0,0.0,0.0,0.0,0.0,0.0,0.0,0.0,0.0,0.0,0.0,0.0,0.0,0.0,0.0,0.0,0.0,0.0,0.0,0.0,0.0,0.0,0.0,0.0,0.0,0.0,0.0,0.0,0.0,0.0,0.0,0.0,0.0,0.0,0.0,0.0,0.0,0.0,0.0,0.0,0.0,0.0,0.0,0.0,0.0,0.0,0.0,-4.8718,-4.9739,-5.1382,-5.0258,-5.034,-5.1528,-5.4569,-5.6085,-5.5859,-4.8173,0.0,0.0,0.0,0.0,0.0,0.0,0.0,0.0,0.0,0.0,0.0,0.0,0.0,0.0,0.0,0.0,0.0,0.0,0.0,0.0,0.0,0.0,0.0,0.0,-5.1899,-5.2024,-5.2799,0.0,0.0,0.0,0.0,0.0,0.0,0.0,0.0,0.0,0.0,0.0,-4.9306,-6.3492,-7.408,-7.5764,-7.6565,-7.6669,-7.5865,-7.5787,-7.5428,-7.4546,-6.7728,-6.3149,0.0,0.0,0.0,0.0,0.0,0.0,0.0,0.0,0.0,0.0,0.0,0.0,0.0,0.0,0.0,0.0,0.0,0.0,0.0,0.0,0.0,0.0,0.0,0.0,0.0,0.0,0.0,0.0,0.0,0.0,0.0,0.0,-3.7753,-4.1125,0.0,0.0,0.0,0.0,0.0,0.0,0.0,0.0,0.0,0.0,0.0,0.0,0.0,-4.3811,-4.469,-5.2278,-5.6524,-5.7586,-6.3867,-6.7414,-6.83,-6.8793,-6.9441,-6.9868,-6.314,0.0,-5.779,-5.5702,0.0,0.0,0.0,0.0,0.0,0.0,0.0,0.0,0.0,0.0,0.0,0.0,0.0,0.0,0.0,0.0,0.0,0.0,0.0,0.0,0.0,0.0,-6.6829,-7.0595,-6.549,-6.1929,0.0,-5.488,-4.188,-4.8238,-4.3647,0.0,0.0,0.0,0.0,0.0,0.0,0.0,-5.0712,-6.5196,-7.5746,-7.6722,-7.6997,-7.6737,-7.5865,-7.5787,-7.5428,-7.4546,-7.3427,-6.9747,-6.2897,-6.8239,0.0,0.0,0.0,0.0,0.0,0.0,0.0,0.0,0.0,0.0,0.0,0.0,0.0,0.0,0.0,0.0,0.0,0.0,0.0,0.0,0.0,0.0,0.0,0.0,0.0,0.0,0.0,0.0,0.0,-4.0147,-4.2944,-4.3686,-4.3062,-4.0266,0.0,0.0,0.0,0.0,0.0,0.0,0.0,0.0,0.0,-4.4789,-4.9583,-5.2812,-5.4172,-6.2125,-6.6738,-6.803,-7.1353,-7.3533,-7.4705,-7.4636,-7.5016,-7.5445,-7.1348,-6.9011,-6.7726,-6.0637,-5.7543,-5.6531,0.0,0.0,0.0,0.0,-3.5525,-3.8641,-3.9405,-4.5117,0.0,-5.3144,0.0,0.0,0.0,0.0,0.0,0.0,0.0,0.0,0.0,0.0,-6.7546,-7.3232,-7.1788,-7.0264,-7.4141,-6.378,-5.4491,0.0,-5.0927,-4.3561,-3.8599,0.0,0.0,0.0,0.0,-5.7168,-5.8111,-6.889,-7.6769,-7.7628,-7.8682,-7.8936,-7.8065,-7.7987,-7.7635,-7.677,-7.578,-7.3709,-7.0227,-7.2529,-6.9127,0.0,0.0,0.0,0.0,0.0,0.0,0.0,0.0,0.0,0.0,0.0,0.0,0.0,0.0,0.0,0.0,0.0,0.0,0.0,0.0,0.0,0.0,0.0,0.0,0.0,0.0,0.0,0.0,-4.4377,-4.7404,-4.6973,-4.7615,-4.5712,0.0,0.0,0.0,0.0,0.0,0.0,-4.6281,-4.7207,-4.9221,-5.2579,-5.8765,-6.2713,-6.4233,-7.0343,-7.409,-7.5533,-7.5499,-7.6189,-7.7499,-7.7154,-7.7292,-7.7775,-7.7223,-7.6878,-7.5908,-6.6115,-6.2,-6.1294,-5.793,-5.3215,-4.8211,-4.6222,-4.6936,-4.9055,-4.9854,-5.575,-6.2896,-6.3215,-6.1969,-5.9908,-5.7855,0.0,0.0,0.0,0.0,-5.377,-6.0149,-6.3861,-6.7447,-7.361,-7.5547,-7.5968,-7.5742,-6.981,-6.48,0.0,-5.9054,-5.1334,-4.5294,0.0,0.0,0.0,0.0,-6.3196,-6.4144,-7.1952,-7.7692,-7.8581,-7.986,-8.0381,-7.9756,-7.9483,-7.9092,-7.8429,-7.6972,-7.6145,-7.6138,-7.5248,-7.2757,-6.8562,0.0,0.0,0.0,0.0,0.0,0.0,0.0,0.0,0.0,0.0,0.0,0.0,0.0,0.0,0.0,0.0,0.0,0.0,0.0,0.0,0.0,0.0,0.0,0.0,0.0,0.0,0.0,0.0,0.0,-5.3001,-5.7024,0.0,0.0,0.0,0.0,-4.2711,-4.3464,-4.7395,-5.4941,-5.6676,-6.1534,-7.0433,-7.2714,-7.4187,-7.4931,-7.5583,-7.6272,-7.712,-7.712,-7.7534,-7.8361,-7.9051,-7.9362,-7.9396,-7.9362,-7.8948,-7.7982,-7.3757,-7.1966,-7.0923,-6.1821,-5.798,-5.6867,-5.0455,-5.3019,-5.9769,-6.1049,-6.676,-7.3461,-7.3498,-6.8349,-6.0862,-5.3482,-5.0744,0.0,0.0,-5.5259,-6.1172,-6.3222,-6.9196,-7.5207,-7.7299,-7.7831,-7.7833,-7.7684,-7.1388,-6.7389,0.0,-6.7551,-6.1739,-6.1251,0.0,-5.8984,-5.1412,-5.8406,-6.4805,-6.5501,-7.3055,-7.8663,-7.9561,-7.9717,-7.9756,-7.9717,-7.8936,-7.8468,-7.839,-7.7531,-7.7017,-7.7036,-7.6201,-7.598,-7.6497,-6.9143,0.0,0.0,0.0,0.0,0.0,0.0,0.0,0.0,0.0,0.0,0.0,0.0,0.0,0.0,0.0,0.0,0.0,0.0,0.0,0.0,0.0,0.0,0.0,0.0,0.0,0.0,0.0,0.0,-5.5475,-5.7156,0.0,-5.4926,-5.4858,-5.4375,-5.2993,-5.7469,-6.2252,-6.6745,-6.7644,-6.9955,-7.422,-7.5662,-7.6702,-7.7457,-7.8454,-7.9155,-7.9396,-7.9913,-8.0327,-8.0603,-8.0879,-8.0983,-8.0948,-8.0431,-8.0108,-7.9705,-7.7368,-7.6152,-7.5344,-7.2519,-7.1019,-7.0118,-6.7717,-6.832,-7.047,-7.0915,-7.2642,-7.4616,-7.4555,-7.2943,-7.0428,-6.6837,-6.5985,-6.6271,-6.6605,-6.8884,-7.1483,-7.2698,-7.5019,-7.7148,-7.7758,-7.7873,-7.7874,-7.7761,-7.5928,-7.4973,-7.7187,-7.0256,-6.4,-6.4105,-6.8616,-6.9577,-6.1797,-6.847,-7.4427,-7.4689,-7.8339,-8.1044,-8.1356,-8.2332,-8.2762,-8.2176,-8.0888,-7.9834,-7.9287,-7.7882,-7.7095,-7.7114,-7.6794,-7.7324,-7.8759,-7.5493,-6.9188,0.0,0.0,0.0,0.0,0.0,0.0,0.0,0.0,0.0,0.0,0.0,0.0,0.0,0.0,0.0,0.0,0.0,0.0,0.0,0.0,0.0,0.0,0.0,0.0,0.0,0.0,-5.4134,-5.8071,-5.9986,-6.0814,-6.0741,-6.1435,-6.2138,-6.2743,-6.7916,-7.1952,-7.4235,-7.4809,-7.5858,-7.7706,-7.8372,-7.9017,-7.9534,-8.0534,-8.1017,-8.1017,-8.181,-8.2052,-8.181,-8.2052,-8.0115,-7.6758,-7.9695,-7.9213,-7.6531,-7.9352,-8.0217,-7.9657,-7.8556,-7.8133,-7.7964,-7.7674,-7.7458,-7.7217,-7.7155,-7.6789,-7.6472,-7.6557,-7.6764,-7.6958,-7.6606,-7.6555,-7.6714,-7.7376,-7.7568,-7.7831,-7.8978,-7.9054,-7.8978,-7.9438,-7.9553,-7.9667,-7.9972,-7.7493,-7.6388,-8.0413,-7.5198,-6.9129,-6.5727,-6.9898,-7.0715,-6.1927,-6.5819,-6.9881,-7.037,-7.4444,-7.749,-7.7946,-8.2093,-8.4441,-8.3582,-7.9188,-7.7414,-7.9548,-7.523,-7.408,-7.7363,-7.4439,-7.3664,-7.5641,-7.2481,-6.7321,-6.0124,0.0,0.0,0.0,0.0,0.0,0.0,0.0,0.0,0.0,0.0,0.0,0.0,0.0,0.0,0.0,0.0,0.0,0.0,0.0,0.0,0.0,0.0,0.0,-4.2943,-5.2103,-5.9092,-6.1313,-6.6419,-6.9911,-7.054,-7.1721,-7.21,-7.156,-7.3274,-7.5171,-7.7019,-7.7527,-7.8865,-8.1302,-8.1371,-8.1371,-8.1371,-8.1741,-8.1879,-8.1879,-8.2569,-8.2535,-8.1845,-8.2569,-7.7007,-6.7477,-7.7562,-7.6725,-6.9038,-7.9987,-8.4533,-8.4062,-7.9496,-7.8595,-7.9837,-7.9066,-7.925,-7.9837,-7.9251,-7.9324,-7.9636,-8.017,-7.9792,-7.9446,-8.0952,-8.0632,-7.9936,-8.0775,-8.0233,-7.9742,-8.1423,-8.1194,-8.1003,-8.2607,-8.3028,-8.3333,-8.4397,-7.5926,-7.1511,-8.3017,-8.294,-7.7777,-6.754,-6.5976,-6.2748,-5.2559,-5.114,0.0,-5.3043,-6.1927,-6.8586,-6.9938,-7.865,-8.4122,-8.3543,-7.3766,-7.1109,-7.9205,-6.9997,-6.8463,-7.7911,-6.9545,-6.5808,-6.8149,-6.0433,-6.0231,-6.7914,0.0,0.0,0.0,0.0,0.0,0.0,0.0,0.0,0.0,0.0,0.0,0.0,0.0,0.0,0.0,0.0,0.0,0.0,0.0,0.0,0.0,0.0,-5.3449,-5.476,-5.7389,-6.1834,-6.8775,-7.1043,-7.2309,-7.3302,-7.3669,-7.4564,-7.6121,-7.7644,-7.9497,-8.1943,-7.4931,-7.1237,-7.1951,-7.1951,-7.1951,-7.1951,-7.9556,-8.3397,-8.3397,-8.3087,-8.2811,-8.2604,-8.2259,-8.079,-7.871,-8.1506,-8.1697,-8.0095,-8.3185,-8.4828,-8.5325,-8.4008,-8.3411,-8.3251,-8.303,-8.2737,-8.1249,-7.3139,-7.5087,-8.1178,-8.1318,-8.1121,-8.0802,-8.1056,-8.087,-8.0781,-8.1418,-8.1347,-8.1347,-8.2378,-8.2493,-8.2416,-8.2875,-8.3562,-8.4246,-8.4512,-8.3246,-8.2817,-8.5536,-8.6103,-8.449,-7.9227,-7.852,-7.7676,-7.4811,-7.4949,0.0,-7.5867,-7.8864,-8.0877,-8.0647,-7.7205,-7.7258,-8.3022,-7.3045,-7.0231,-7.9127,-7.6352,-7.558,-7.8194,-7.6469,-7.6055,-7.7347,-6.9522,-6.6624,0.0,0.0,0.0,0.0,0.0,0.0,0.0,0.0,0.0,0.0,0.0,0.0,0.0,0.0,0.0,0.0,0.0,0.0,0.0,0.0,0.0,0.0,-5.573,-6.2727,-6.5912,-6.5847,-6.817,-7.5038,-7.6006,-7.6642,-7.785,-7.806,-7.8735,-8.0172,-8.1141,-8.257,-8.4432,-7.8347,-7.2894,-6.8802,-7.2692,-7.2658,-6.8269,-7.875,-8.4018,-8.4018,-8.3914,-8.3707,-8.3362,-8.3355,-8.1005,-7.7387,-8.1732,-8.1734,-7.8927,-8.3229,-8.5514,0.0,0.0,0.0,0.0,0.0,-8.4609,-8.2964,-7.6364,-7.7941,-8.2851,-8.2998,-8.2737,-8.2397,-8.2855,-7.9718,-7.6186,-7.7214,-7.4077,-7.162,-7.6748,-7.7821,-7.8742,-8.3563,-8.5474,-8.631,-8.6868,-8.4383,-8.3187,-8.7012,-8.4441,0.0,-8.4637,-8.1407,-7.6944,-7.2429,-7.2186,-7.2569,-7.2799,-7.6985,-7.9855,-7.9543,-7.8604,-7.9773,-8.4217,-7.4286,0.0,0.0,0.0,-7.3434,-7.3532,-7.4652,0.0,0.0,0.0,-6.5404,-6.9074,-6.4007,0.0,0.0,-6.1994,-5.8399,0.0,0.0,0.0,0.0,0.0,0.0,0.0,0.0,0.0,0.0,0.0,0.0,0.0,0.0,0.0,0.0,-6.0413,-6.7868,-7.5592,-7.5784,-7.6399,-8.0035,-8.0823,-8.1593,-8.2927,-8.3276,-8.3443,-8.3512,-8.3977,-8.457,-8.5294,0.0,0.0,0.0,0.0,-7.7911,-6.8435,-7.8852,-8.4156,-8.4156,-8.4777,-8.4771,-8.4177,-8.4926,-7.9967,-7.1226,-8.0632,-7.9973,-7.2893,-8.2121,-8.6371,-8.6885,-8.5453,-8.5747,-8.6811,-8.4913,-8.4474,-8.4676,-8.3263,0.0,0.0,-8.4826,-8.4442,-8.4077,-8.5399,-7.8821,-7.1268,-7.2686,-6.5875,-6.05,-7.0517,-7.2522,-7.4525,-8.4825,-8.796,-8.8874,-8.9948,-8.2936,-7.9079,-8.7987,-8.1607,-7.7534,-8.618,-7.9655,-6.9956,-6.0378,-5.8934,-5.9087,-5.9573,-6.7664,-7.3495,-7.3849,0.0,0.0,-8.6227,-7.6567,-7.3937,-8.1976,-7.3489,-6.8396,-6.8892,-7.0072,-6.6822,-5.851,-5.896,-6.3087,-7.0845,-7.0883,-7.4922,-8.2235,-6.7006,-6.3984,0.0,0.0,0.0,0.0,0.0,0.0,0.0,0.0,0.0,0.0,0.0,0.0,0.0,0.0,0.0,-6.1825,-6.8685,-7.52,-7.9661,-8.1454,-8.2276,-8.2505,-8.2607,-8.3281,-8.4786,-8.4993,-8.5243,-8.5703,-8.5777,-8.5915,-8.6087,-7.7794,-7.2217,-7.0303,-7.2116,-7.1814,-6.9136,-7.9672,-8.4984,-8.4949,0.0,0.0,-8.5111,-8.5294,-8.4294,-8.2553,-8.5247,-8.5409,-8.3939,-8.5903,-8.6885,-8.6995,-8.6664,-8.6738,-8.5976,-7.7478,-7.9493,-8.5312,-7.671,-7.9061,-8.5896,-8.583,-8.5609,-8.536,-8.5628,-8.4213,0.0,-8.2754,-8.122,-8.0262,-8.3255,-8.3907,-8.4557,-8.7606,-8.9085,-8.9909,-9.0165,-8.927,-8.8828,-9.0351,-8.8861,-8.7814,-8.9259,-8.6594,-8.3627,-8.1597,-8.1284,-8.1323,-8.1402,-8.3717,-8.5136,-8.4522,-8.024,-8.003,-8.6597,-7.7836,-7.551,-8.3794,-8.1103,-7.9895,-8.1364,-8.1015,-8.027,-7.9143,-7.9254,-8.015,-8.1844,-8.1847,-8.2732,-8.4291,-7.96,-7.8316,0.0,0.0,0.0,0.0,0.0,0.0,0.0,0.0,0.0,0.0,0.0,-5.3166,0.0,0.0,-6.0722,-6.6375,-7.0979,-7.6115,-8.2506,-8.5103,-8.6079,-8.5284,-8.5363,-8.5949,-8.7077,-8.7181,-8.6981,-8.6846,-8.7225,-8.7294,-8.688,-8.2265,-7.713,-7.1832,-7.6763,-7.686,-7.107,-8.1585,-8.7146,-8.7569,-8.7151,-8.7305,-8.7763,-8.7899,-8.7787,-8.7503,-8.7994,-8.818,-8.8169,-8.7766,-8.7362,-8.6995,-8.6995,-8.6995,-8.6412,-8.119,-8.2477,-8.6057,-8.0614,-8.1941,-8.6078,-8.5937,-8.5817,-8.5705,-8.5742,-8.2147,-7.8196,-7.8921,-7.5431,-7.2861,-7.9046,-8.0658,-8.2224,-8.8012,-9.0134,-9.0813,-9.0943,-9.1697,-9.2064,-9.1069,-9.0887,-9.0702,-9.0091,-8.9283,-8.8703,-8.875,-8.8398,-8.8436,-8.9283,-8.8998,-8.8876,-8.9305,-8.5253,-8.4178,-8.8346,-8.3699,-8.2131,-8.5854,-8.5327,-8.5253,-8.6172,-8.5781,-8.5547,-8.5547,-8.5547,-8.5351,-8.4883,-8.488,-8.4922,-8.4883,-8.3554,-8.2969,0.0,0.0,0.0,0.0,0.0,0.0,0.0,0.0,-5.5053,-5.5083,-5.6877,-5.8829,-6.009,-6.0881,-6.3758,-7.1516,-7.397,-7.758,-8.5102,-8.8046,-8.9088,-8.8426,-8.8276,-8.8632,-8.9465,-8.9364,-8.8915,-8.8122,-8.8812,-8.8777,-8.7708,-8.8398,-8.4796,-7.6133,-8.438,-8.4686,-7.5986,-8.454,-8.9326,-9.0117,-8.9941,-9.0085,-9.0645,-9.0557,-9.0196,-8.9552,-8.9276,-8.9197,-8.9124,-8.8316,-8.7582,-8.6995,-8.6995,-8.6995,-8.6995,-8.6948,-8.6795,-8.6548,-8.6329,-8.6103,-8.5857,-8.5741,-8.5743,-8.5743,-8.5971,-8.0233,-7.3891,-7.5268,-6.9827,-6.5615,-7.4795,-7.7336,-7.9665,-8.8412,-9.0999,-9.1492,-9.1649,-9.2257,-9.2451,-9.1367,-9.112,-9.0997,-9.0582,-9.0508,-9.039,-9.0037,-8.9412,-8.9523,-9.109,-9.0062,-8.9828,-9.1389,-9.1045,-9.0755,-9.0739,-8.9801,-8.8898,-8.8201,-8.7851,-8.7734,-8.7969,-8.7812,-8.7461,-8.6953,-8.6953,-8.6601,-8.5898,-8.5703,-8.5625,-8.5625,-8.457,-8.4023,-4.7486,-4.1976,0.0,-4.3822,-4.8477,-5.2535,0.0,0.0,-6.7072,-6.5041,-6.886,-7.3175,-7.4505,-7.644,-7.8707,-8.1442,-8.4162,-8.6636,-8.864,-9.067,-9.1958,-9.1854,-9.0641,-9.033,-9.1574,-9.1606,-9.1295,-9.0502,-9.1157,-9.0709,-8.857,-8.9157,-8.8709,-8.6919,-8.8816,-8.8951,-8.7081,-8.9144,-9.0214,-9.0391,-8.9554,-9.0156,-9.1756,-9.0915,-9.0583,-9.0625,-8.9047,-8.8316,-8.828,-8.7472,-8.7105,-8.6995,-8.6995,-8.6995,-8.699,-8.674,-8.6623,-8.6534,-8.6077,-8.5943,-8.5903,-8.5819,-8.5742,-8.5858,-8.6699,-8.6049,-8.5244,-8.6156,-8.5624,-8.5361,-8.7538,-8.8248,-8.8945,-9.104,-9.161,-9.1649,-9.1716,-9.1793,-9.187,-9.1948,-9.1975,-9.205,-9.2262,-9.2304,-9.1795,-9.0237,-8.9919,-9.0198,-9.1189,-9.1135,-9.1389,-9.2365,-9.3015,-9.3354,-9.3356,-9.1926,-9.0967,-9.0856,-8.9409,-8.8906,-8.9687,-8.8984,-8.8867,-8.957,-8.957,-8.9531,-8.9414,-8.8633,-8.8281,-8.8242,-8.664,-8.5508,-4.9277,0.0,0.0,0.0,-5.8145,-6.3798,-6.4412,-6.9149,-7.3192,-7.2638,-7.5839,-7.9297,-8.1186,-7.9463,-7.9904,0.0,-8.517,-8.5029,-9.046,-9.185,-9.213,-9.1575,-8.6509,-8.3024,-8.3155,-8.8871,-8.9701,-8.2545,-8.8563,-9.2019,-9.064,-9.1295,-9.1923,-9.2325,-9.2653,-9.312,-9.3476,-9.3319,-9.3494,-9.4096,-9.3133,-9.2899,-9.3334,-9.3404,-9.2935,-9.2132,-9.0884,-8.9748,-8.8867,-8.8536,-8.7839,-8.7064,-8.7423,-8.7683,-8.7609,-8.749,-8.7369,-8.7304,-8.7458,-8.7427,-8.7343,-8.7313,-8.7236,-8.7198,-8.7619,-8.7734,-8.7887,-8.873,-8.9186,-8.9624,-9.0538,-9.0929,-9.1166,-9.1571,-9.1716,-9.1716,-9.1716,-9.1716,-9.1793,-9.2064,-9.2092,-9.2206,-9.2535,-9.2617,-9.2342,-9.1619,-9.109,-9.124,-9.258,-9.1904,-9.1826,-9.3171,-9.3618,-9.4021,-9.4525,-9.3497,-9.2814,-9.2795,-9.1648,-9.1122,-9.1484,-9.1172,-9.0898,-9.0742,-9.0742,-9.0508,-9.0,-8.9648,-8.9453,-8.9414,-8.8203,-8.7734,-5.1216,0.0,0.0,-5.9788,-6.5786,-7.1454,-7.3429,-7.5894,-7.8186,-7.9533,-8.176,-8.3994,-8.5772,-8.2977,-8.2809,-9.0179,-8.7229,-8.6057,-9.2022,-9.258,-9.1125,-8.7914,-8.1664,-7.5305,-6.958,-8.1252,-8.6912,-8.1252,-8.8662,-9.3089,-9.233,-9.3378,-9.4146,-9.4567,-9.5177,-9.5786,-9.6378,-9.5924,-9.605,-9.6713,-9.5704,-9.5224,-9.5035,-9.5182,-9.4631,-9.3492,-9.2096,-9.0959,-9.0113,-8.9344,-8.8492,-8.766,-8.7973,-8.819,-8.8426,-8.8617,-8.8329,-8.8029,-8.8454,-8.8535,-8.8385,-8.8385,-8.8309,-8.8231,-8.8539,-8.8615,-8.8882,-8.9764,-9.0437,-9.1014,-9.1592,-9.2063,-9.2373,-9.2373,-9.2218,-9.2064,-9.2064,-9.187,-9.1793,-9.2064,-9.2092,-9.2195,-9.2525,-9.2613,-9.2611,-9.2603,-9.2228,-9.2522,-9.3979,-9.3322,-9.3376,-9.5035,-9.4601,-9.4645,-9.5736,-9.464,-9.3895,-9.3918,-9.3098,-9.2603,-9.2617,-9.2617,-9.2422,-9.2031,-9.2031,-9.1836,-9.1445,-9.1172,-9.0937,-9.0703,-8.9804,-8.9648,0.0,0.0,-5.1251,-6.2652,-6.7026,-7.0428,-7.7446,-8.0763,-8.3105,-8.5994,-8.764,-8.8776,-8.9478,-9.1081,-9.2339,-9.2409,-9.3448,-9.4276,-9.4301,-9.2951,-8.884,-8.0409,-7.7816,-6.9518,0.0,-6.7654,-8.3392,-9.2941,-9.4089,-9.3916,-9.3123,-9.4877,-9.5171,-9.3495,-9.5521,-9.6182,-9.529,-9.618,-9.6645,-9.6722,-9.5838,-9.599,-9.6878,-9.5332,-9.4668,-9.4699,-9.1838,-9.1141,-9.1834,-8.9268,-8.8642,-8.9126,-8.8405,-8.8503,-8.9173,-8.9809,-8.9451,-8.8651,-8.8461,-8.8423,-8.8385,-8.8385,-8.8309,-8.8385,-8.9341,-8.961,-8.9764,-9.0754,-9.1809,-9.2634,-9.2634,-9.3377,-9.4114,-9.4114,-9.3534,-9.2953,-9.2953,-9.2296,-9.1793,-9.2064,-9.2092,-9.221,-9.2553,-9.2606,-9.2613,-9.2599,-9.3244,-9.4057,-9.4942,-9.5731,-9.6913,-9.866,-9.6632,-9.5841,-9.7488,-9.5349,-9.3906,-9.3906,-9.3086,-9.2617,-9.2617,-9.2617,-9.3008,-9.3828,-9.3828,-9.4219,-9.5039,-9.4179,-9.3359,-9.25,-9.164,-9.0781,-5.0526,0.0,-6.1599,-6.8433,-7.4439,-7.9513,-8.3409,-8.6302,-8.7945,-8.7408,-8.4554,-8.214,-8.1862,-7.8792,-7.8281,-8.4442,-8.1184,-8.1491,-9.2012,-8.3055,-7.7414,-8.3124,-7.3703,0.0,0.0,0.0,0.0,-7.4331,-8.6117,-9.4175,-9.575,-9.6508,-9.7323,-9.8323,-9.8408,-9.8745,-9.9195,-9.8201,-9.7723,-9.7686,-9.6211,-9.5914,-9.6725,-9.5258,-9.4963,-9.5368,-9.338,-9.2594,-9.2719,-9.1112,-9.0329,-9.008,-9.0877,-9.0608,-8.9931,-9.1217,-9.1491,-9.1145,-9.049,-9.0257,-9.0293,-9.029,-9.0601,-9.1064,-9.1479,-9.2049,-9.2584,-9.2922,-9.3322,-9.3678,-9.3678,-9.3969,-9.4191,-9.4191,-9.3572,-9.3302,-9.4423,-9.3534,-9.2953,-9.4403,-9.3744,-9.3248,-9.4165,-9.384,-9.3829,-9.4959,-9.4872,-9.4977,-9.5845,-9.6715,-9.7695,-9.8891,-9.7734,-9.7304,-9.8465,-9.6756,-9.539,-9.4804,-9.3945,-9.3203,-9.2617,-9.3164,-9.3594,-9.3906,-9.4453,-9.4922,-9.5195,-9.4922,-9.4609,-9.4336,-9.4023,-9.3696,-5.5448,-6.195,-6.9697,-7.6015,-8.144,-8.5759,-8.8357,-9.0189,-9.1025,-8.9423,-8.5462,-8.1424,-7.8487,-7.4273,-7.3237,-7.9556,-7.6202,-7.7311,-9.0048,-8.1258,-7.5668,-8.176,-7.2338,-6.8258,0.0,0.0,0.0,-6.8992,-8.0275,-8.8743,-9.1719,-9.2277,-9.4963,-10.0198,-10.0232,-10.0225,-10.0722,-9.9057,-9.802,-9.7725,-9.6656,-9.6435,-9.6877,-9.57,-9.3419,-9.0629,-9.3222,-9.2039,-8.8567,-9.1455,-9.2295,-9.1746,-9.2474,-9.2202,-9.1604,-9.26,-9.3012,-9.2931,-9.2011,-9.1899,-9.2165,-9.2194,-9.2507,-9.2935,-9.3076,-9.372,-9.4403,-9.4157,-9.4828,-9.5506,-9.5197,-9.5352,-9.5661,-9.5932,-9.5158,-9.4733,-9.6125,-9.5352,-9.4655,-9.5719,-9.5048,-9.4479,-9.4996,-9.4669,-9.4928,-9.6601,-9.664,-9.6796,-9.7694,-9.8279,-9.9086,-10.0205,-9.9047,-9.8504,-9.9399,-9.7654,-9.625,-9.5703,-9.5156,-9.457,-9.4023,-9.4531,-9.4961,-9.5234,-9.5547,-9.582,-9.6094,-9.6094,-9.5937,-9.5664,-9.5649,-9.5426,-6.6603,-7.1393,-7.5226,-8.4707,-8.7595,-8.8936,-9.1782,-9.2547,-9.2309,-9.1421,-8.9066,-8.5116,0.0,0.0,-7.5806,-7.738,-7.7883,-8.0613,-8.8089,-8.6401,-8.2094,0.0,0.0,0.0,0.0,0.0,0.0,-7.7138,0.0,-7.9415,-8.3033,-8.4352,-8.9438,-9.9156,-10.0641,-10.0685,-9.9685,-9.8723,-9.7874,-9.71,-9.7248,-9.7285,-9.7285,-9.6544,-9.1033,-8.2463,-9.191,-9.0156,-8.124,-9.0621,-9.4354,-9.4037,-9.3272,-9.3332,-9.389,-9.3967,-9.4034,-9.3985,-9.3076,-9.3235,-9.389,-9.3847,-9.3847,-9.3885,-9.4023,-9.4673,-9.5245,-9.4588,-9.6203,-9.7982,-9.7131,-9.7557,-9.8369,-9.9143,-9.806,-9.7131,-9.8021,-9.7518,-9.6667,-9.6087,-9.6097,-9.5973,-9.5232,-9.5337,-9.6071,-9.7734,-9.8707,-9.9519,-10.0297,-10.0389,-10.0993,-10.2593,-10.0603,-9.9485,-10.0293,-9.8084,-9.6601,-9.6562,-9.6523,-9.6484,-9.6484,-9.6523,-9.6953,-9.7734,-9.707,-9.7031,-9.7773,-9.7773,-9.7344,-9.6562,-9.649,-9.6015,-6.5218,-7.3302,-8.2998,-8.9387,-9.1091,-9.1254,-9.2027,-9.2372,-9.0054,-8.1665,-7.5306,-6.8629,0.0,0.0,0.0,-6.8995,-6.6217,0.0,-8.0141,-7.5973,0.0,-7.4795,0.0,-7.6482,-8.0662,-8.3612,0.0,0.0,-8.5041,-9.0564,-9.4828,-9.5482,-9.7276,-10.0567,-10.0463,-10.0204,-9.9908,-9.891,-9.8393,-9.8318,-9.7761,-9.7536,-9.7678,-9.7946,-9.6692,-9.4409,-9.6781,-9.6489,-9.4496,-9.56,-9.5968,-9.5822,-9.5595,-9.4895,-9.4029,-9.4685,-9.5335,-9.5754,-9.4975,-9.4364,-9.3985,-9.401,-9.4435,-9.5007,-9.5069,-9.6182,-9.7303,-9.717,-9.8021,-9.8949,-9.8717,-9.8833,-9.9065,-9.9259,-9.8524,-9.8176,-9.9645,-9.8733,-9.8045,-9.9421,-9.9452,-9.8937,-9.8085,-9.9056,-10.0293,-10.1394,-10.2314,-10.2387,-10.1308,-10.1795,-10.2281,-10.2789,-10.1696,-10.1,-10.1182,-9.9488,-9.8086,-9.7422,-9.6836,-9.6484,-9.6484,-9.707,-9.7812,-9.8633,-9.9101,-9.9101,-9.8672,-9.8672,-9.8242,-9.7382,-9.7387,-9.7223,-7.3334,-7.9968,-8.7271,-9.2294,-9.2501,-9.0817,-8.8399,-8.7057,-8.3534,-7.3569,-6.768,0.0,0.0,0.0,0.0,0.0,0.0,0.0,-7.671,-7.374,-7.2014,0.0,-7.699,0.0,-8.9284,-9.0829,-9.0105,0.0,-8.6745,-8.8592,-9.2751,-9.3097,-9.5691,-10.1166,-10.0905,-10.0388,-9.9981,-9.998,-9.9607,-9.8902,-9.8932,-9.8911,-9.8796,-9.9291,-9.6906,-9.2688,0.0,-9.6776,-9.2613,-9.6671,-9.8091,-9.7639,-9.7225,-9.6757,-9.6288,-9.6404,-9.7015,-9.7665,-9.7233,-9.6769,-9.6274,-9.5958,-9.6182,-9.6645,-9.7054,-9.8137,-9.9104,-9.8717,-9.9491,-10.0419,-9.9955,-9.9878,-9.9955,-10.0419,-9.98,-9.9529,-10.0813,-10.0286,-9.9847,-10.0884,-10.0682,-10.0415,-10.0191,-10.1182,-10.2302,-10.3285,-10.3819,-10.3889,-10.3285,-10.3311,-10.3218,-10.2789,-10.2086,-10.1586,-10.16,-10.0406,-9.9369,-9.8867,-9.8789,-9.875,-9.875,-9.9179,-9.9648,-10.0117,-10.0195,-10.0117,-9.957,-9.9179,-9.875,-9.8242,-9.7862,-9.7643,-8.289,-8.664,-8.9486,-9.3691,-9.2673,-8.9341,-8.4041,-8.0411,-7.5772,-6.7314,0.0,-6.0258,-5.5114,0.0,-5.5378,-6.387,0.0,-6.8111,-7.3343,-7.5134,-7.6236,-7.7648,-7.8545,-8.2801,-9.233,-9.2872,-9.3783,-9.6348,-8.7371,-8.3223,-8.6646,-8.6829,-9.1363,-10.1163,-10.1421,-10.1015,-10.0388,-10.1303,-10.1002,-9.948,-10.0524,-10.0794,-10.036,-10.0577,-9.5536,-8.7227,-9.6872,-9.5169,-8.6371,-9.6463,-10.0086,-9.932,-9.8399,-9.8515,-9.9127,-9.8354,-9.8656,-9.9452,-9.9336,-9.9375,-9.9336,-9.8524,-9.8253,-9.8408,-9.9104,-9.9916,-10.038,-9.9684,-10.0613,-10.1696,-10.0999,-10.0806,-10.0922,-10.1696,-10.1278,-10.0898,-10.149,-10.1688,-10.1611,-10.131,-10.1095,-10.1193,-10.1914,-10.2611,-10.3308,-10.4294,-10.4514,-10.4819,-10.5482,-10.4819,-10.3999,-10.3218,-10.2398,-10.2008,-10.2086,-10.1188,-10.059,-10.0585,-10.1211,-10.1601,-10.1601,-10.1601,-10.1601,-10.1601,-10.0898,-10.039,-10.0117,-9.9375,-9.8983,-9.8978,-9.8052,-9.7661,-7.586,-8.2418,-9.088,-9.3529,-9.2247,-8.9501,-8.6601,-8.0879,0.0,0.0,-5.9363,-5.5719,-5.2174,-5.2467,0.0,-6.3196,0.0,0.0,0.0,0.0,-7.7884,0.0,0.0,0.0,0.0,0.0,0.0,0.0,0.0,-9.5958,-9.7322,-9.7504,-9.8831,-10.1421,-10.0901,-10.1121,-10.2528,-10.197,-10.1806,-10.1704,-10.167,-10.1787,-10.1787,-10.1988,-10.1004,-9.9351,-10.0974,0.0,-9.8725,-10.0022,-10.0511,-10.0311,-9.932,-9.9088,-9.9267,-9.9112,-9.9645,-10.0303,-9.9568,-9.9762,-10.0187,-9.9375,-9.9104,-9.9143,-9.9259,-9.9916,-10.0613,-10.038,-10.1115,-10.1889,-10.1696,-10.1594,-10.1523,-10.1716,-10.1611,-10.1504,-10.162,-10.1701,-10.2013,-10.2627,-10.2821,-10.3211,-10.422,-10.5102,-10.58,-10.6091,-10.6815,-10.7083,-10.6497,-10.5717,-10.5092,-10.5014,-10.4194,-10.3999,-10.4702,-10.3296,-10.2413,-10.241,-10.1913,-10.1601,-10.1601,-10.1601,-10.1601,-10.1601,-10.1484,-10.0703,-9.9219,-9.9062,-9.9004,-9.8968,-9.8031,-9.7973,-8.1844,-8.5998,-9.1308,-9.3759,-9.1643,-8.6915,-7.9364,0.0,0.0,0.0,-5.1817,-4.9901,-4.8643,0.0,0.0,0.0,0.0,0.0,0.0,0.0,0.0,0.0,0.0,0.0,0.0,0.0,0.0,0.0,0.0,-9.3602,-9.9794,-10.0606,-10.0901,-10.0901,-10.1381,-10.1932,-10.2413,-10.2622,-10.2698,-10.2749,-10.3072,-10.3421,-10.3696,-10.3708,-10.3674,-10.3503,-10.2895,0.0,-9.3868,-9.9106,-9.792,-9.333,-9.8064,-10.0195,-10.0613,-10.011,-10.0496,-10.1193,-10.0806,-10.0883,-10.1193,-10.0806,-10.0303,-10.011,-10.0496,-10.0883,-10.1309,-10.1309,-10.1889,-10.2585,-10.2585,-10.2483,-10.2417,-10.2417,-10.2006,-10.1514,-10.1514,-10.1903,-10.2405,-10.2904,-10.3383,-10.4217,-10.5373,-10.588,-10.6302,-10.6597,-10.7405,-10.7708,-10.681,-10.6693,-10.6419,-10.5482,-10.5014,-10.4905,-10.538,-10.4709,-10.4007,-10.3591,-10.3113,-10.2693,-10.2304,-10.2304,-10.2304,-10.2304,-10.1797,-10.1211,-10.039,-9.9887,-9.9679,-9.9663,-9.9124,-9.9124,-8.8801,-9.078,-9.1715,-9.364,-9.0641,-8.4346,-7.3307,-6.6742,0.0,0.0,-4.7081,-4.635,-4.7681,0.0,0.0,0.0,0.0,0.0,0.0,0.0,0.0,0.0,0.0,0.0,0.0,0.0,0.0,0.0,0.0,0.0,-9.9978,-10.1089,-10.131,-10.0898,-10.2119,-10.2632,-10.2217,-10.3185,-10.3703,-10.3377,-10.453,-10.5084,-10.5409,-10.5214,-10.489,-10.4489,-10.3598,0.0,-8.6566,-9.7389,-9.5514,-8.668,-9.6922,-10.1309,-10.1812,-10.1077,-10.1386,-10.2199,-10.2199,-10.2199,-10.2199,-10.2392,-10.1889,-10.1309,-10.1896,-10.209,-10.2206,-10.2399,-10.2592,-10.2869,-10.3095,-10.2914,-10.2692,-10.2697,-10.2128,-10.1481,-10.1712,-10.2174,-10.2789,-10.3289,-10.3984,-10.4802,-10.608,-10.6425,-10.6479,-10.6787,-10.7295,-10.7496,-10.7005,-10.7395,-10.7317,-10.6107,-10.5795,-10.5802,-10.5901,-10.5802,-10.5287,-10.4389,-10.4417,-10.389,-10.2886,-10.289,-10.2812,-10.2617,-10.1914,-10.1406,-10.1015,-10.0509,-10.0286,-10.0286,-10.0208,-10.0224,-8.7632,-9.2185,-9.3014,-9.2605,-8.8863,-8.3758,-7.7269,0.0,0.0,-5.5686,-5.098,-4.8895,-5.2347,-5.2842,-5.4112,0.0,0.0,-5.5969,0.0,0.0,0.0,0.0,0.0,0.0,0.0,0.0,0.0,0.0,0.0,0.0,-10.1093,-10.1167,-10.1647,-10.2677,-10.2226,-10.2366,-10.338,-10.3991,-10.4378,-10.4496,-10.5533,-10.6136,-10.618,-10.5885,-10.531,-10.4489,-10.3598,0.0,0.0,-9.7389,-9.5514,-8.6756,-9.7577,-10.1812,-10.1889,-10.1812,-10.2315,-10.3088,-10.3088,-10.3088,-10.3204,-10.3901,-10.3591,-10.3011,-10.2914,-10.2881,-10.3074,-10.3885,-10.3001,-10.189,-10.2803,-10.2388,-10.1701,-10.167,-10.1481,-10.1481,-10.2289,-10.2597,-10.3097,-10.4597,-10.5101,-10.5592,-10.6679,-10.7003,-10.7299,-10.7582,-10.7103,-10.6986,-10.7794,-10.7317,-10.7083,-10.7708,-10.7083,-10.6888,-10.7708,-10.7005,-10.6185,-10.5287,-10.5287,-10.4592,-10.2991,-10.2884,-10.25,-10.1719,-10.1601,-10.0781,-9.9258,-9.9963,-10.0286,-10.0208,-10.0091,-10.0497,-9.1344,-9.3433,-9.2842,-9.2167,-8.8568,-8.2943,-7.4402,0.0,0.0,-5.3857,-5.0183,-4.8617,-5.0359,-4.9821,-5.0667,-5.5366,-5.4616,0.0,0.0,0.0,0.0,0.0,0.0,0.0,0.0,0.0,0.0,0.0,0.0,0.0,-10.1574,-10.1795,-10.2127,-10.269,-10.2943,-10.3489,-10.4477,-10.4812,-10.5219,-10.5562,-10.6007,-10.6411,-10.6813,-10.6696,-10.6175,-10.5313,-10.4499,0.0,0.0,-9.4939,-9.1683,-7.7689,-9.5093,-10.1889,-10.1889,-10.1889,-10.2508,-10.3204,-10.3204,-10.3514,-10.4017,-10.4184,-10.4526,-10.4597,-10.4023,-10.3797,-10.3874,-10.43,-10.4222,-10.4189,-10.4493,-10.389,-10.29,-10.1712,-10.1712,-10.2212,-10.252,-10.3405,-10.4291,-10.5101,-10.5402,-10.6001,-10.7587,-10.7192,-10.6708,-10.69,-10.7097,-10.7105,-10.6505,-10.7005,-10.759,-10.802,-10.7708,-10.759,-10.802,-10.7708,-10.7083,-10.6185,-10.6185,-10.5607,-10.4489,-10.4394,-10.4017,-10.3203,-10.2617,-10.1788,-10.049,-10.1406,-10.1789,-10.1689,-10.2211,-10.2601,-9.1732,-9.4412,-9.3248,-9.1977,-8.7469,-8.0876,0.0,0.0,0.0,-5.1802,-4.9385,-4.8561,-4.8535,-4.7496,-4.8404,-5.3796,-5.4262,-5.8092,-6.9901,0.0,0.0,0.0,0.0,0.0,0.0,0.0,0.0,0.0,0.0,0.0,0.0,-10.2204,-10.2334,-10.3012,-10.3313,-10.4021,-10.5193,-10.5209,-10.5608,-10.6213,-10.6372,-10.4905,-10.2113,-10.5612,-10.4906,-10.1007,-10.3618,0.0,0.0,-9.4939,-9.1414,-7.6518,-9.5055,-10.2307,-10.2307,-10.2276,-10.2817,-10.3591,-10.3784,-10.4294,-10.4802,-10.5001,-10.5117,-10.5228,-10.5078,-10.4918,-10.4692,-10.5001,-10.5083,-10.5117,-10.4885,-10.4125,-10.3096,-10.202,-10.2213,-10.2712,-10.3212,-10.4289,-10.5216,-10.5715,-10.5894,-10.6402,-10.791,-10.7293,-10.6692,-10.6783,-10.7318,-10.75,-10.6708,-10.759,-10.8488,-10.8684,-10.8488,-10.8293,-10.802,-10.802,-10.759,-10.681,-10.6693,-10.631,-10.5387,-10.5393,-10.5092,-10.4603,-10.3982,-10.3212,-10.2309,-10.3123,-10.3413,-10.3091,-10.3887,-10.4121,-8.6678,-9.5418,-9.4641,-9.1571,-8.4763,-7.701,0.0,0.0,0.0,-5.0873,-4.9673,-4.9223,-4.8297,-4.7925,-4.9312,-5.4127,-5.4551,-5.7119,-6.5158,0.0,0.0,0.0,0.0,0.0,0.0,0.0,0.0,0.0,0.0,0.0,0.0,-10.2073,-10.2595,-10.4025,-10.3309,-10.3568,-10.5418,-10.5076,-10.529,-10.6174,-10.6709,-10.109,-9.0447,-10.1986,-10.0518,-8.9458,0.0,0.0,0.0,-9.8792,-9.681,-8.7995,-9.8985,-10.3288,-10.3327,-10.3197,-10.3707,-10.4519,-10.5409,-10.5614,-10.5701,-10.6512,-10.5592,-10.4402,-10.6215,-10.6099,-10.5484,-10.6295,-10.5293,-10.3829,-10.3092,-10.2096,-10.1597,-10.2482,-10.2598,-10.3097,-10.4713,-10.5097,-10.5408,-10.6486,-10.6783,-10.7021,-10.7212,-10.7274,-10.7498,-10.772,-10.7708,-10.8108,-10.9096,-10.9308,-10.9581,-11.0401,-10.9816,-10.8918,-10.8098,-10.802,-10.759,-10.681,-10.6693,-10.6302,-10.5404,-10.5404,-10.5404,-10.5404,-10.5399,-10.4891,-10.4108,-10.4895,-10.479,-10.3987,-10.4822,-10.4705,-7.3673,-7.7109,-7.5417,-7.6374,-7.3806,-6.9742,-6.4666,0.0,0.0,-5.3206,-5.1549,-5.0855,-5.1142,-4.9946,-5.0627,-5.5776,-5.6412,-5.9261,0.0,0.0,0.0,0.0,0.0,0.0,0.0,0.0,0.0,0.0,0.0,0.0,0.0,-10.2202,-10.2574,-10.3698,-10.3274,-10.378,-10.5601,-10.5479,-10.5898,-10.6709,-10.6923,-10.0977,-9.0245,-10.177,-10.0723,0.0,0.0,-9.921,-8.9727,-9.997,-9.7457,-8.8188,-9.9062,-10.3297,-10.3197,-10.3204,-10.41,-10.531,-10.5503,-10.5898,-10.6406,-10.6486,-10.6294,-10.5985,-10.6411,-10.5987,-10.5598,-10.6483,-10.5906,-10.4905,-10.471,-10.3867,-10.3175,-10.3522,-10.3906,-10.4482,-10.4982,-10.5717,-10.6294,-10.6817,-10.7021,-10.729,-10.8116,-10.7818,-10.7588,-10.829,-10.799,-10.8011,-10.8984,-10.9193,-10.962,-11.0401,-11.0284,-10.9816,-10.8996,-10.8293,-10.7903,-10.759,-10.759,-10.7512,-10.72,-10.72,-10.6888,-10.6302,-10.6216,-10.5807,-10.4895,-10.5818,-10.6007,-10.5718,-10.5991,-10.529,0.0,-6.1313,-6.0913,-6.925,-6.9197,0.0,0.0,0.0,0.0,-5.3796,-5.3619,-5.3573,-5.2877,-5.2669,-5.3318,-5.5347,-5.8298,-6.1671,0.0,0.0,0.0,0.0,0.0,0.0,0.0,0.0,0.0,0.0,0.0,0.0,0.0,-10.2381,-10.2677,-10.3536,-10.3282,-10.3982,-10.5719,-10.5719,-10.6183,-10.7021,-10.7021,-10.0974,-9.0245,-10.1804,-10.0916,0.0,0.0,-10.2105,0.0,-10.2698,-10.0914,-9.4933,-10.1718,-10.4315,-10.4187,-10.4195,-10.479,-10.5696,-10.601,-10.6287,-10.6716,-10.6488,-10.6488,-10.6372,-10.5715,-10.537,-10.5408,-10.6099,-10.5599,-10.4792,-10.4907,-10.4407,-10.3984,-10.4329,-10.4713,-10.5214,-10.5601,-10.6218,-10.6905,-10.7408,-10.7609,-10.7996,-10.8983,-10.8712,-10.8489,-10.9116,-10.9102,-10.932,-10.9912,-11.0413,-11.0909,-11.1416,-11.1182,-11.0792,-11.0284,-10.9386,-10.8801,-10.8488,-10.8488,-10.8293,-10.802,-10.802,-10.7903,-10.7708,-10.7603,-10.7286,-10.6781,-10.6997,-10.7004,-10.7004,-10.7004,-10.6186,0.0,-4.9373,0.0,0.0,0.0,0.0,0.0,0.0,0.0,0.0,0.0,0.0,-5.3952,-5.5994,-5.7066,-5.3898,-6.0144,-6.4009,0.0,0.0,0.0,0.0,0.0,0.0,0.0,0.0,0.0,0.0,0.0,0.0,0.0,-10.2516,-10.2791,-10.3437,-10.3398,-10.4099,-10.5719,-10.5719,-10.5828,-10.6015,-10.6704,-10.0698,-8.9138,-10.1567,-10.0872,0.0,0.0,-10.6095,-10.6214,-10.6214,-10.6214,-10.6071,-10.611,-10.5979,-10.5894,-10.5797,-10.5821,-10.5918,-10.6589,-10.6712,-10.6602,-10.6526,-10.6409,-10.6097,-10.4482,-10.4597,-10.5214,-10.5293,-10.4677,-10.4021,-10.4099,-10.4099,-10.4212,-10.4982,-10.5174,-10.5601,-10.6486,-10.683,-10.7092,-10.819,-10.8482,-10.8811,-10.9683,-10.989,-10.9902,-11.0089,-11.0823,-11.1407,-11.1709,-11.2483,-11.3017,-11.3095,-11.2392,-11.1885,-11.1885,-11.0987,-11.0206,-10.9386,-10.9308,-10.8996,-10.8215,-10.8098,-10.8488,-10.9386,-10.932,-10.921,-10.9225,-10.8298,-10.7783,-10.7783,-10.7783,-10.7316,-5.1965,0.0,-4.9873,-5.4232,-5.5878,-5.6337,0.0,0.0,0.0,0.0,0.0,0.0,0.0,-5.8665,-5.9677,-5.8167,-6.1224,-6.3752,0.0,0.0,0.0,0.0,0.0,0.0,0.0,0.0,0.0,0.0,0.0,0.0,0.0,-10.2332,-10.2476,-10.3194,-10.3194,-10.3996,-10.5719,-10.5719,-10.2002,-9.483,-10.3117,-9.6636,-7.8199,-9.8089,-10.0916,0.0,-10.1997,-10.699,-10.708,-10.708,-10.6705,-10.611,-10.6018,-10.5894,-10.5797,-10.5705,-10.6001,-10.6519,-10.6676,-10.6603,-10.6409,-10.5676,-10.5907,-10.6174,-10.5293,-10.5486,-10.5986,-10.5486,-10.5101,-10.5101,-10.5717,-10.5408,-10.4982,-10.5905,-10.668,-10.7104,-10.6794,-10.7426,-10.8005,-10.76,-10.8101,-10.8712,-10.9009,-10.9501,-11.0096,-11.0907,-11.0706,-11.0993,-11.2412,-11.2287,-11.2392,-11.3017,-11.29,-11.2783,-11.2783,-11.1416,-11.0401,-11.0206,-10.9581,-10.9503,-10.9894,-10.9308,-10.9417,-11.0217,-10.9498,-10.9107,-10.9102,-10.8189,-10.7783,-10.7783,-10.7783,-10.7004,-5.2964,-5.1834,-5.0803,-5.093,-5.2989,-5.4905,0.0,0.0,0.0,0.0,0.0,0.0,0.0,0.0,0.0,0.0,-6.1187,0.0,0.0,0.0,0.0,0.0,0.0,0.0,0.0,0.0,0.0,0.0,0.0,0.0,0.0,-10.272,-10.3098,-10.3707,-10.4094,-10.479,-10.5719,-10.5719,-10.0929,-9.1564,-10.2002,-9.8286,-8.2733,-9.9506,-10.3816,0.0,-9.8913,-10.2397,-10.7003,-10.1691,-10.23,-10.6705,-10.6588,-10.6505,-10.6378,-10.6394,-10.6503,-10.6712,-10.6678,-10.6295,-10.579,-10.5713,-10.5792,-10.5793,-10.5409,-10.6218,-10.6912,-10.5679,-10.5293,-10.5293,-10.5678,-10.5792,-10.579,-10.629,-10.7181,-10.7718,-10.6979,-10.7989,-10.8899,-10.8606,-10.9191,-11.0019,-11.0278,-11.069,-11.121,-11.182,-11.1524,-11.1707,-11.2803,-11.26,-11.2587,-11.3017,-11.3095,-11.3095,-11.3095,-11.2197,-11.1494,-11.1104,-11.0714,-11.0518,-11.0518,-11.0119,-11.0207,-11.098,-11.0199,-10.9702,-10.9615,-10.8407,-10.7783,-10.7783,-10.7783,-10.7316,-5.382,-5.3446,-5.3616,-5.5094,-5.6805,-5.7808,-5.7066,0.0,0.0,0.0,0.0,0.0,0.0,0.0,0.0,0.0,0.0,0.0,0.0,0.0,0.0,0.0,0.0,0.0,0.0,0.0,0.0,0.0,0.0,0.0,0.0,-10.3392,-10.3981,-10.4403,-10.51,-10.5603,-10.5912,-10.5912,-10.1199,-9.2065,-10.219,-10.1804,-9.2296,-10.2476,-10.7202,-10.6698,0.0,0.0,-10.6589,-9.679,-9.854,-10.7391,-10.7274,-10.722,-10.7212,-10.689,-10.6802,-10.6593,-10.6523,-10.591,-10.5213,-10.602,-10.5909,-10.5486,-10.5486,-10.6603,-10.7721,-10.6295,-10.5678,-10.5522,-10.529,-10.579,-10.6405,-10.66,-10.7413,-10.7983,-10.7382,-10.8694,-11.0002,-10.9993,-11.0718,-11.1508,-11.2087,-11.2302,-11.2398,-11.2482,-11.2626,-11.2686,-11.2888,-11.2986,-11.3095,-11.3095,-11.3095,-11.3095,-11.3095,-11.3095,-11.2783,-11.2002,-11.1885,-11.1494,-11.0705,-11.0803,-11.111,-11.1705,-11.0808,-11.031,-11.0083,-10.8602,-10.7783,-10.7783,-10.7783,-10.7705,-5.4364,-5.5687,-5.9021,-6.7475,-6.678,-6.3446,-6.1211,0.0,0.0,0.0,0.0,0.0,0.0,0.0,0.0,0.0,0.0,0.0,0.0,0.0,0.0,0.0,0.0,0.0,0.0,0.0,0.0,0.0,0.0,0.0,0.0,-10.4013,-10.43,-10.4403,-10.4519,-10.5293,-10.6802,-10.6802,-10.1504,-9.1299,-10.1992,-10.149,-9.1602,-10.2406,-10.7286,-10.717,0.0,-10.5683,-10.7299,-10.5489,-10.58,-10.7274,-10.722,-10.7212,-10.7006,-10.6073,-10.5705,-10.5598,-10.5409,-10.5214,-10.5097,-10.529,-10.5793,-10.6295,-10.6295,-10.6989,-10.7875,-10.8414,-10.8029,-10.7219,-10.6367,-10.629,-10.66,-10.749,-10.8485,-10.9311,-10.9314,-11.0196,-11.0809,-11.0096,-11.0718,-11.1314,-11.1388,-11.1914,-11.2401,-11.2592,-11.258,-11.2713,-11.2981,-11.3103,-11.3095,-11.3095,-11.3095,-11.3095,-11.3095,-11.3095,-11.3017,-11.29,-11.2197,-11.1681,-11.1623,-11.2292,-11.2293,-11.1705,-11.0817,-11.0021,-10.9303,-10.829,-10.7783,-10.7783,-10.7783,-10.7394,-5.494,-5.6474,-5.9874,-6.8224,-6.5642,-6.1681,-6.4199,0.0,0.0,0.0,0.0,0.0,0.0,0.0,0.0,0.0,0.0,0.0,0.0,0.0,0.0,0.0,0.0,0.0,0.0,0.0,0.0,0.0,0.0,0.0,0.0,0.0,-10.51,-10.51,-10.5603,-10.6183,-10.6995,-10.6995,-10.1817,-9.164,-10.2113,-10.1688,-9.1951,-10.2492,-10.7286,-10.6882,0.0,-10.1613,-10.6886,-10.0626,-10.14,-10.6615,-10.6494,-10.6175,-10.5581,-10.4967,-10.4785,-10.4674,-10.4985,-10.4789,-10.4597,-10.5601,-10.5909,-10.5987,-10.7027,-10.7914,-10.8607,-10.8992,-10.8413,-10.76,-10.7175,-10.7179,-10.7182,-10.7218,-10.8818,-11.0097,-10.9219,-11.0573,-11.1689,-11.0912,-11.1417,-11.2013,-11.1798,-11.2117,-11.2427,-11.2592,-11.2592,-11.2721,-11.3086,-11.3095,-11.3095,-11.3095,-11.3095,-11.3095,-11.3095,-11.3095,-11.3095,-11.3095,-11.2696,-11.252,-11.2409,-11.2801,-11.2812,-11.2415,-11.1502,-11.0784,-11.0394,-10.9108,-10.8702,-10.9113,-10.8195,-10.7806,-5.6702,-5.7867,-6.0004,-6.6171,0.0,-5.9448,-6.663,0.0,0.0,0.0,0.0,0.0,0.0,0.0,0.0,0.0,0.0,0.0,0.0,0.0,0.0,0.0,0.0,0.0,0.0,0.0,0.0,0.0,0.0,0.0,0.0,0.0,-10.5912,-10.5719,-10.6492,-10.6995,-10.6995,-10.6995,-10.3087,-9.5636,-10.3416,-10.3107,-9.5867,-10.3714,-10.7313,-10.6804,-9.7981,-9.9073,-10.6395,-9.7511,-9.8547,-10.5707,-10.5613,-10.4983,-10.4087,-10.3928,-10.3707,-10.3596,-10.433,-10.4097,-10.3906,-10.5601,-10.591,-10.5871,-10.7683,-10.8801,-10.9416,-10.9607,-10.8873,-10.7987,-10.7795,-10.7683,-10.7486,-10.7172,-10.8995,-11.0382,-10.9392,-11.0989,-11.2388,-11.1689,-11.2117,-11.2491,-11.2311,-11.229,-11.2401,-11.2617,-11.2619,-11.2721,-11.3086,-11.3095,-11.3095,-11.3095,-11.3095,-11.3095,-11.3095,-11.3095,-11.3095,-11.3095,-11.3116,-11.3084,-11.3009,-11.3007,-11.2898,-11.2615,-11.1914,-11.1485,-11.129,-11.0005,-10.9715,-11.0302,-10.878,-10.839,-6.0812,-6.0972,-6.1333,-6.5166,-6.1988,0.0,-6.9001,0.0,0.0,0.0,0.0,0.0,0.0,0.0,0.0,0.0,0.0,0.0,0.0,0.0,0.0,0.0,0.0,0.0,0.0,0.0,0.0,0.0,0.0,0.0,0.0,0.0,0.0,-10.5719,-10.6492,-10.6995,-10.6995,-10.6995,-10.6718,-10.6015,-10.6795,-10.6776,-10.6212,-10.7016,-10.7416,-10.7274,-10.6511,-10.6175,-10.6097,-10.5307,-10.4799,-10.4596,-10.4596,-10.401,-10.3074,-10.3009,-10.2401,-10.1826,-10.252,-10.2712,-10.2981,-10.4793,-10.591,-10.668,-10.8491,-10.9608,-11.0377,-11.1102,-11.0225,-10.8878,-10.8068,-10.7295,-10.7095,-10.8121,-10.9102,-11.0013,-11.0899,-11.1922,-11.2583,-11.2505,-11.2491,-11.2408,-11.2282,-11.222,-11.2281,-11.2602,-11.2619,-11.2721,-11.3086,-11.3095,-11.3095,-11.3095,-11.3095,-11.3095,-11.3095,-11.3095,-11.3095,-11.3095,-11.3116,-11.3084,-11.3009,-11.3007,-11.2587,-11.168,-11.1602,-11.1213,-11.0394,-11.0316,-11.0199,-11.0316,-10.9381,-10.8991,-5.9724,-6.0291,-6.1529,-6.5526,0.0,0.0,0.0,0.0,0.0,0.0,0.0,0.0,0.0,0.0,0.0,0.0,0.0,0.0,0.0,0.0,0.0,0.0,0.0,0.0,0.0,0.0,0.0,0.0,0.0,0.0,0.0,0.0,0.0,-10.6492,-10.6802,-10.6995,-10.6995,-10.6995,-10.6989,-10.7084,-10.7212,-10.7202,-10.722,-10.7404,-10.7391,-10.7327,-10.6822,-10.6408,-10.611,-10.5501,-10.4605,-10.3714,-10.3073,-10.2701,-10.229,-10.2118,-10.1897,-10.1707,-10.2405,-10.2597,-10.2866,-10.4677,-10.5409,-10.5986,-10.7797,-10.8528,-10.8986,-11.0291,-10.9994,-10.9108,-10.88,-10.8286,-10.7904,-10.8414,-10.9614,-11.0821,-11.1223,-11.2,-11.2583,-11.2583,-11.2595,-11.2503,-11.2311,-11.229,-11.2297,-11.2617,-11.2619,-11.2721,-11.3086,-11.3095,-11.3095,-11.3095,-11.3095,-11.3095,-11.3095,-11.3095,-11.3086,-11.3116,-11.3084,-11.2982,-11.3009,-11.2992,-11.2788,-11.2382,-11.2382,-11.2187,-11.1914,-11.1407,-11.139,-11.1782,-11.0494,-10.9793,-5.9371,-6.0214,-6.1924,0.0,0.0,0.0,0.0,0.0,0.0,0.0,0.0,0.0,0.0,0.0,0.0,0.0,0.0,0.0,0.0,0.0,0.0,0.0,0.0,0.0,0.0,0.0,0.0,0.0,0.0,0.0,0.0,0.0,-10.6995,-10.6995,-10.6995,-10.6995,-10.6995,-10.6995,-10.6989,-10.7084,-10.7212,-10.7202,-10.7192,-10.7288,-10.7197,-10.6886,-10.6602,-10.5994,-10.5203,-10.4827,-10.4005,-10.2794,-10.2191,-10.1928,-10.1787,-10.1693,-10.1588,-10.1591,-10.1982,-10.2212,-10.2481,-10.4292,-10.4985,-10.5407,-10.7296,-10.8103,-10.8675,-10.9989,-10.9996,-10.9721,-10.9831,-10.9298,-10.8821,-10.8578,-10.998,-11.1301,-11.1301,-11.2,-11.2583,-11.2583,-11.2595,-11.2503,-11.2311,-11.229,-11.2297,-11.2617,-11.2619,-11.2721,-11.3086,-11.3095,-11.3095,-11.3095,-11.3095,-11.3095,-11.3095,-11.3095,-11.3086,-11.3095,-11.2994,-11.3009,-11.2996,-11.2883,-11.2888,-11.2888,-11.2888,-11.2888,-11.2888,-11.2304,-11.2286,-11.2795,-11.139,-11.0689,-6.0629,-6.1426,0.0,0.0,0.0,0.0,0.0,0.0,0.0,0.0,0.0,0.0,0.0,0.0,0.0,0.0,0.0,0.0,0.0,0.0,0.0,0.0,0.0,0.0,0.0,0.0,0.0,0.0,0.0,0.0,0.0,0.0,-10.6995,-10.6995,-10.6995,-10.6995,-10.6995,-10.6995,-10.6989,-10.7084,-10.7212,-10.7192,-10.7313,-10.7391,-10.6925,-10.6071,-10.7003,-10.5773,-10.3404,-10.4305,-10.3589,-10.1889,-10.1889,-10.1787,-10.1722,-10.162,-10.1591,-10.1518,-10.1328,-10.1289,-10.1597,-10.3406,-10.4484,-10.5407,-10.7296,-10.8911,-11.0179,-11.042,-11.0607,-11.0704,-11.0903,-11.0382,-10.9509,-10.8906,-11.0019,-11.1301,-11.1301,-11.2,-11.2583,-11.2583,-11.2491,-11.2408,-11.2282,-11.222,-11.2281,-11.2602,-11.258,-11.2721,-11.3086,-11.3095,-11.3095,-11.3095,-11.3095,-11.3095,-11.3095,-11.3095,-11.3086,-11.3095,-11.2994,-11.2996,-11.2992,-11.2905,-11.2888,-11.2888,-11.2888,-11.2888,-11.2888,-11.2888,-11.2888,-11.2888,-11.1992,-11.1602,-6.3113,0.0,0.0,0.0,0.0,0.0,0.0,0.0,0.0,0.0,0.0,0.0,0.0,0.0,0.0,0.0,0.0,0.0,0.0,0.0,0.0,0.0,0.0,0.0,0.0,0.0,0.0,0.0,0.0,0.0,0.0,-10.6989,-10.6995,-10.6995,-10.6995,-10.6995,-10.6995,-10.6995,-10.6989,-10.7084,-10.7114,-10.7212,-10.7192,-10.7288,-10.69,-10.599,-10.6304,-10.5591,-10.4101,-10.38,-10.3305,-10.2817,-10.2817,-10.2676,-10.261,-10.2508,-10.2092,-10.1518,-10.1328,-10.1712,-10.2481,-10.4214,-10.4906,-10.5405,-10.7216,-10.8105,-10.8685,-10.9417,-10.9824,-11.0205,-11.0778,-11.0895,-11.0783,-11.0601,-11.0912,-11.1495,-11.2117,-11.2388,-11.2583,-11.2583,-11.2491,-11.2408,-11.2282,-11.2414,-11.2478,-11.2592,-11.2704,-11.2886,-11.3111,-11.3095,-11.3095,-11.3095,-11.3095,-11.3095,-11.3095,-11.3095,-11.3116,-11.2994,-11.3021,-11.2996,-11.2992,-11.2905,-11.2888,-11.2888,-11.2888,-11.2888,-11.2888,-11.2888,-11.2888,-11.2888,-11.2615,-11.2187,-6.4824,0.0,0.0,0.0,0.0,0.0,0.0,0.0,0.0,0.0,0.0,0.0,0.0,0.0,0.0,0.0,0.0,0.0,0.0,0.0,0.0,0.0,0.0,0.0,0.0,0.0,0.0,0.0,0.0,0.0,0.0,-10.6989,-10.6995,-10.6995,-10.6995,-10.6995,-10.6995,-10.6995,-10.6989,-10.713,-10.6696,-10.6804,-10.7212,-10.7313,-10.6809,-10.5884,-10.5292,-10.4577,-10.3985,-10.3081,-10.2701,-10.2701,-10.2701,-10.2599,-10.2494,-10.2392,-10.1977,-10.1518,-10.1328,-10.1904,-10.2789,-10.4212,-10.5097,-10.579,-10.6905,-10.799,-10.903,-10.9219,-11.0001,-11.0915,-11.1516,-11.1715,-11.1689,-11.1417,-11.1612,-11.2,-11.2505,-11.2583,-11.2583,-11.2583,-11.2518,-11.2398,-11.2311,-11.24,-11.26,-11.2605,-11.2795,-11.2994,-11.3103,-11.3095,-11.3095,-11.3095,-11.3095,-11.3095,-11.3095,-11.3086,-11.3106,-11.3009,-11.2996,-11.3007,-11.3015,-11.2905,-11.2888,-11.2888,-11.2888,-11.2888,-11.2888,-11.2888,-11.2888,-11.2888,-11.2888,-11.2615,0.0,0.0,0.0,0.0,0.0,0.0,0.0,0.0,0.0,0.0,0.0,0.0,0.0,0.0,0.0,0.0,0.0,0.0,0.0,0.0,0.0,0.0,0.0,0.0,0.0,0.0,0.0,0.0,0.0,0.0,0.0,-10.6995,-10.6995,-10.6995,-10.6989,-10.6989,-10.6995,-10.6995,-10.6995,-10.6995,-10.6201,-10.6193,-10.7006,-10.7104,-10.6704,-10.5807,-10.4092,-10.3288,-10.3211,-10.2384,-10.2005,-10.2005,-10.2005,-10.1903,-10.1799,-10.1697,-10.1591,-10.1518,-10.1328,-10.1904,-10.2904,-10.3712,-10.5097,-10.6405,-10.6597,-10.8376,-11.0302,-10.9819,-11.091,-11.2302,-11.2518,-11.2505,-11.2311,-11.1612,-11.2,-11.2583,-11.2583,-11.2583,-11.2583,-11.2622,-11.2622,-11.2491,-11.2282,-11.2502,-11.2576,-11.2604,-11.289,-11.3095,-11.3095,-11.3095,-11.3095,-11.3095,-11.3017,-11.3017,-11.3095,-11.2998,-11.3006,-11.3009,-11.3021,-11.3015,-11.2888,-11.2888,-11.2888,-11.2888,-11.2888,-11.2888,-11.2888,-11.2888,-11.2888,-11.2888,-11.2888,-11.2888,0.0,0.0,0.0,0.0,0.0,0.0,0.0,0.0,0.0,0.0,0.0,0.0,0.0,0.0,0.0,0.0,0.0,0.0,0.0,0.0,0.0,0.0,0.0,0.0,0.0,0.0,0.0,0.0,0.0,0.0,-10.6995,-10.6982,-10.7091,-10.7091,-10.7114,-10.7075,-10.7091,-10.7091,-10.7098,0.0,-10.6099,-10.5789,-10.5983,-10.6223,-10.6188,-10.6006,-10.3985,-10.3305,-10.3288,-10.3003,-10.2895,-10.2895,-10.2895,-10.2792,-10.2726,-10.2585,-10.2092,-10.1518,-10.1328,-10.2289,-10.3789,-10.4597,-10.5482,-10.6715,-10.8184,-10.9106,-10.9819,-11.0484,-11.1099,-11.1702,-11.2388,-11.2117,-11.1689,-11.2194,-11.2505,-11.2583,-11.2583,-11.2583,-11.2595,-11.2503,-11.2408,-11.2311,-11.2189,-11.24,-11.2715,-11.3003,-11.3086,-11.3095,-11.3095,-11.3095,-11.3095,-11.3095,-11.2509,-11.2392,-11.3017,-11.2491,-11.2304,-11.3009,-11.3021,-11.3015,-11.2888,-11.2888,-11.2888,-11.2888,-11.2888,-11.2888,-11.2888,-11.2888,-11.2888,-11.2888,-11.2814,-11.2814,0.0,0.0,0.0,0.0,0.0,0.0,0.0,0.0,0.0,0.0,0.0,0.0,0.0,0.0,0.0,0.0,0.0,0.0,0.0,0.0,0.0,0.0,0.0,0.0,0.0,0.0,0.0,0.0,0.0,-10.6995,-10.6995,-10.713,-10.7084,-10.7084,-10.7075,-10.7075,-10.7084,-10.6704,-10.6409,-10.6415,-10.51,-10.4513,-10.4605,-10.508,-10.5098,-10.4699,-10.3675,-10.3026,-10.2707,-10.2578,-10.2585,-10.2585,-10.2585,-10.2476,-10.2489,-10.2276,-10.2013,-10.1593,-10.1789,-10.2789,-10.3982,-10.4789,-10.6294,-10.7798,-10.8376,-10.9596,-11.091,-11.0972,-11.1388,-11.2,-11.2505,-11.2311,-11.2,-11.2505,-11.2583,-11.2583,-11.2583,-11.2583,-11.2595,-11.2425,-11.2408,-11.2311,-11.2228,-11.2383,-11.2713,-11.3008,-11.3095,-11.3095,-11.3095,-11.3095,-11.3095,-11.3095,-11.2314,-11.2197,-11.2998,-11.2315,-11.2085,-11.2904,-11.2992,-11.2905,-11.2888,-11.2888,-11.2888,-11.2888,-11.2888,-11.2888,-11.2888,-11.2888,-11.2888,-11.2888,-11.2795,-11.2795,0.0,0.0,0.0,0.0,0.0,0.0,0.0,0.0,0.0,0.0,0.0,0.0,0.0,0.0,0.0,0.0,0.0,0.0,0.0,0.0,0.0,0.0,0.0,0.0,0.0,0.0,0.0,0.0,0.0,-10.6802,-10.6989,-10.7091,-10.6998,-10.692,-10.6882,-10.6804,-10.6696,-10.5899,-10.5487,-10.5487,-10.3901,-10.3189,-10.322,-10.3821,-10.3782,-10.343,-10.3201,-10.2707,-10.201,-10.1881,-10.1889,-10.1889,-10.1889,-10.1889,-10.1896,-10.1693,-10.1585,-10.1704,-10.2405,-10.3212,-10.3982,-10.4906,-10.6835,-10.8684,-10.8295,-10.9775,-11.1584,-11.1187,-11.1726,-11.2388,-11.2388,-11.2505,-11.2583,-11.2583,-11.2583,-11.2583,-11.2583,-11.2583,-11.2595,-11.2425,-11.2408,-11.2302,-11.2302,-11.2523,-11.2713,-11.3008,-11.3095,-11.3095,-11.3095,-11.3095,-11.3095,-11.3095,-11.2197,-11.1993,-11.2978,-11.2097,-11.1903,-11.2914,-11.2905,-11.2888,-11.2888,-11.2888,-11.2888,-11.2888,-11.2888,-11.2888,-11.2888,-11.2888,-11.2888,-11.2888,-11.2795,-11.2795,0.0,0.0,0.0,0.0,0.0,0.0,0.0,0.0,0.0,0.0,0.0,0.0,0.0,0.0,0.0,0.0,0.0,0.0,0.0,0.0,0.0,0.0,0.0,0.0,0.0,0.0,0.0,0.0,-10.6299,-10.6215,-10.6975,-10.7183,-10.6786,-10.6088,-10.6212,-10.5796,-10.4876,-10.4721,-10.4583,-10.4597,-10.3591,-10.2779,-10.2114,-10.2191,-10.2698,-10.3406,-10.261,-10.2088,-10.201,-10.1881,-10.1889,-10.1889,-10.1889,-10.1889,-10.1896,-10.1693,-10.1585,-10.1704,-10.2405,-10.3212,-10.4098,-10.4985,-10.6101,-10.7291,-10.8988,-10.9189,-10.9286,-11.0821,-11.1391,-11.1495,-11.1495,-11.2,-11.2583,-11.2583,-11.2583,-11.2583,-11.2583,-11.2583,-11.2595,-11.2425,-11.2282,-11.2292,-11.2498,-11.2592,-11.2713,-11.3008,-11.3095,-11.3095,-11.3095,-11.3095,-11.3095,-11.3095,-11.1611,-11.129,-11.2978,-11.1512,-11.1318,-11.2914,-11.2905,-11.2888,-11.2888,-11.2888,-11.2888,-11.2888,-11.2888,-11.2888,-11.2888,-11.2888,-11.2888,-11.2888,-11.2795,-11.2795,0.0,0.0,0.0,0.0,0.0,0.0,0.0,0.0,0.0,0.0,0.0,0.0,0.0,0.0,0.0,0.0,0.0,0.0,0.0,0.0,0.0,0.0,0.0,0.0,0.0,0.0,0.0,0.0,-10.5487,-10.537,-10.6324,-10.5883,-10.5517,-10.509,-10.5197,-10.5003,-10.4605,-10.3994,-10.3274,-10.2315,-10.1889,-10.1301,-10.048,-10.0983,-10.1778,-10.26,-10.2204,-10.2019,-10.201,-10.1881,-10.1889,-10.1889,-10.1889,-10.1889,-10.1928,-10.1722,-10.1581,-10.1781,-10.302,-10.3676,-10.4214,-10.5676,-10.6783,-10.7911,-10.8801,-10.9198,-10.9514,-11.0304,-11.0601,-11.0601,-11.0601,-11.0809,-11.1093,-11.1093,-11.1482,-11.1792,-11.1792,-11.2207,-11.2518,-11.2408,-11.2406,-11.2398,-11.2602,-11.2705,-11.279,-11.3079,-11.3095,-11.3095,-11.3095,-11.3095,-11.3095,-11.3095,-11.1993,-11.1701,-11.2916,-11.1903,-11.1588,-11.2883,-11.2905,-11.2888,-11.2888,-11.2888,-11.2888,-11.2888,-11.2888,-11.2888,-11.2888,-11.2888,-11.2888,-11.2888,-11.2795,-11.2795,0.0,0.0,0.0,0.0,0.0,0.0,0.0,0.0,0.0,0.0,0.0,0.0,0.0,0.0,0.0,0.0,0.0,0.0,0.0,0.0,0.0,0.0,0.0,0.0,0.0,0.0,0.0,0.0,-10.4597,-10.4481,-10.5286,-10.4807,-10.4411,-10.4179,-10.4179,-10.4101,-10.3878,-10.3003,-10.1889,-10.0613,-10.038,-9.9947,-9.9387,-10.0006,-10.078,-10.1593,-10.1602,-10.1602,-10.17,-10.1611,-10.1386,-10.1309,-10.1696,-10.1812,-10.1618,-10.1716,-10.1809,-10.2125,-10.3596,-10.4211,-10.4707,-10.6284,-10.7376,-10.8211,-10.85,-10.8893,-10.9397,-10.9591,-10.9708,-10.9708,-10.9902,-11.0006,-10.9991,-11.0185,-11.0496,-11.1,-11.1494,-11.2091,-11.2518,-11.2418,-11.2398,-11.253,-11.261,-11.2813,-11.2884,-11.3118,-11.3095,-11.3095,-11.3095,-11.3095,-11.3095,-11.3095,-11.2296,-11.2109,-11.2892,-11.2188,-11.2002,-11.281,-11.2888,-11.2888,-11.2888,-11.2888,-11.2888,-11.2888,-11.2888,-11.2888,-11.2888,-11.2888,-11.2888,-11.2888,-11.2814,-11.2892,0.0,0.0,0.0,0.0,0.0,0.0,0.0,0.0,0.0,0.0,0.0,0.0,0.0,0.0,0.0,0.0,0.0,0.0,0.0,0.0,0.0,0.0,0.0,0.0,0.0,0.0,0.0,0.0,-10.3707,-10.3584,-10.4489,-10.4489,-10.4179,-10.3404,-10.3404,-10.291,-10.2005,-10.1193,-10.069,-10.0613,-9.9762,-9.9336,-9.9297,-9.9336,-9.9839,-10.0721,-10.0703,-10.081,-10.081,-10.0682,-10.0187,-9.9607,-10.1309,-10.1386,-10.0806,-10.1407,-10.2195,-10.2974,-10.3928,-10.4704,-10.5515,-10.6812,-10.7174,-10.7386,-10.8414,-10.8115,-10.7688,-10.8504,-10.8814,-10.9009,-10.9786,-11.0006,-11.0108,-11.0884,-11.0479,-11.0401,-11.2091,-11.2583,-11.2595,-11.2398,-11.2486,-11.2595,-11.2697,-11.2783,-11.2884,-11.3118,-11.3095,-11.3095,-11.3095,-11.3095,-11.3095,-11.3095,-11.2296,-11.2109,-11.2892,-11.2188,-11.2002,-11.281,-11.2888,-11.2888,-11.2888,-11.2888,-11.2888,-11.2888,-11.2888,-11.2888,-11.2888,-11.2888,-11.2888,-11.2888,-11.2888,-11.2888,0.0,0.0,0.0,0.0,0.0,0.0,0.0,0.0,0.0,0.0,0.0,0.0,0.0,0.0,0.0,0.0,0.0,0.0,0.0,0.0,0.0,0.0,0.0,0.0,0.0,0.0,0.0,0.0,0.0,-9.7573,-10.339,-9.8488,-9.7645,-10.2307,-10.1912,-10.1107,-10.0187,-9.9916,-9.9529,-9.8988,-9.8678,-9.8253,-9.7711,-9.8292,-9.8717,-9.8988,-9.9018,-9.9667,-10.0596,-9.9994,-9.9568,-9.9375,-9.9994,-9.9994,-9.98,-10.0117,-10.0711,-10.1495,-10.2373,-10.3288,-10.4319,-10.5788,-10.6483,-10.668,-10.7585,-10.761,-10.7494,-10.7804,-10.7882,-10.7882,-10.8309,-10.8298,-10.84,-10.9315,-10.9597,-11.0101,-11.1416,-11.1715,-11.1804,-11.2281,-11.2581,-11.2789,-11.2697,-11.2884,-11.3001,-11.3111,-11.3095,-11.3095,-11.3095,-11.3095,-11.3095,-11.3095,-11.2783,-11.2709,-11.3009,-11.2719,-11.2593,-11.2888,-11.2888,-11.2888,-11.2888,-11.2888,-11.2888,-11.2888,-11.2888,-11.2888,-11.2888,-11.2888,-11.2888,-11.2888,-11.2888,-11.2888,0.0,0.0,0.0,0.0,0.0,0.0,0.0,0.0,0.0,0.0,0.0,0.0,0.0,0.0,0.0,0.0,0.0,0.0,0.0,0.0,0.0,0.0,0.0,0.0,0.0,0.0,0.0,0.0,0.0,0.0,-10.1618,-9.6531,-9.5803,-10.0922,-10.0496,-9.9878,-9.9297,-9.9027,-9.864,-9.8098,-9.7789,-9.7363,-9.6822,-9.7402,-9.7797,-9.8029,-9.7789,-9.8446,-9.9723,-9.9143,-9.8717,-9.8524,-9.9104,-9.9143,-9.8949,-9.922,-10.0001,-10.1091,-10.1997,-10.2901,-10.4005,-10.5824,-10.6292,-10.6406,-10.7183,-10.7416,-10.7416,-10.7416,-10.7416,-10.7494,-10.7804,-10.7793,-10.7791,-10.8017,-10.8685,-10.9597,-11.0507,-11.1194,-11.1831,-11.2386,-11.2712,-11.2915,-11.2788,-11.2986,-11.3098,-11.3103,-11.3095,-11.3095,-11.3095,-11.3095,-11.3095,-11.3086,-11.3006,-11.3009,-11.2996,-11.2898,-11.2888,-11.2888,-11.2888,-11.2888,-11.2888,-11.2888,-11.2888,-11.2888,-11.2888,-11.2888,-11.2888,-11.2888,-11.2888,-11.2888,-11.2888,-11.2888,0.0,0.0,0.0,0.0,0.0,0.0,0.0,0.0,0.0,0.0,0.0,0.0,0.0,0.0,0.0,0.0,0.0,0.0,0.0,0.0,0.0,0.0,0.0,0.0,0.0,0.0,0.0,0.0,-9.9035,-9.9035,-9.9297,-9.9297,-9.9259,-9.922,-9.922,-9.9181,-9.9143,-9.8408,-9.8021,-9.8021,-9.7209,-9.6783,-9.6783,-9.6783,-9.7217,-9.782,-9.7101,-9.7286,-9.806,-9.806,-9.7557,-9.6976,-9.8601,-9.8756,-9.8176,-9.8949,-10.0303,-10.192,-10.2882,-10.3791,-10.4788,-10.6705,-10.6794,-10.6289,-10.7105,-10.7416,-10.7416,-10.7416,-10.7416,-10.761,-10.8387,-10.8608,-10.8295,-10.7269,-10.7803,-10.8792,-10.9606,-11.1299,-11.2583,-11.2583,-11.2777,-11.29,-11.289,-11.2998,-11.3103,-11.3103,-11.3095,-11.3095,-11.3095,-11.3095,-11.3086,-11.3095,-11.2994,-11.2996,-11.2992,-11.2922,-11.2888,-11.2888,-11.2888,-11.2888,-11.2888,-11.2888,-11.2888,-11.2888,-11.2888,-11.2888,-11.2888,-11.2888,-11.2888,-11.2888,-11.2888,-11.2888,-6.007,0.0,0.0,0.0,0.0,0.0,0.0,0.0,0.0,0.0,0.0,0.0,0.0,0.0,0.0,0.0,0.0,0.0,0.0,0.0,0.0,0.0,0.0,0.0,0.0,0.0,0.0,0.0,-9.3335,-9.2844,-9.8957,-9.8756,-9.8137,-9.7518,-9.6899,-9.6241,-9.5623,-9.6009,-9.6203,-9.6203,-9.659,-9.6783,-9.6783,-9.6783,-9.6908,-9.7008,-9.6869,-9.6908,-9.7078,-9.714,-9.7015,-9.686,-9.7325,-9.7363,-9.7209,-9.7402,-9.8592,-10.0083,-10.0507,-10.1608,-10.3122,-10.4284,-10.4502,-10.4619,-10.6095,-10.6522,-10.6717,-10.7183,-10.7416,-10.7494,-10.7688,-10.7715,-10.7624,-10.7298,-10.8384,-10.9614,-10.9808,-11.1287,-11.2583,-11.2583,-11.2608,-11.2711,-11.289,-11.2916,-11.3007,-11.3111,-11.3095,-11.3095,-11.3095,-11.3095,-11.3086,-11.3095,-11.2994,-11.2996,-11.2992,-11.2922,-11.2888,-11.2888,-11.2888,-11.2888,-11.2888,-11.2888,-11.2888,-11.2888,-11.2888,-11.2888,-11.2888,-11.2888,-11.2888,-11.2888,-11.2888,-11.2888,-6.1045,-6.1208,0.0,0.0,0.0,0.0,0.0,-6.6607,0.0,0.0,0.0,0.0,0.0,0.0,0.0,0.0,0.0,0.0,0.0,0.0,0.0,0.0,0.0,0.0,0.0,-9.7982,-9.806,-9.7595,-9.3438,-9.2872,-9.7479,-9.6938,-9.6241,-9.5739,-9.5236,-9.4694,-9.4191,-9.5042,-9.5506,-9.5506,-9.6396,-9.6783,-9.6783,-9.6753,-9.6692,-9.6629,-9.6731,-9.6692,-9.6629,-9.6753,-9.6783,-9.6783,-9.6783,-9.6783,-9.6822,-9.7209,-9.8235,-9.9588,-10.0418,-10.1621,-10.29,-10.3803,-10.409,-10.44,-10.5823,-10.6187,-10.6303,-10.7222,-10.7416,-10.7416,-10.7416,-10.7391,-10.7301,-10.7274,-10.8388,-10.9475,-10.9797,-11.0977,-11.2117,-11.2518,-11.2619,-11.2608,-11.2793,-11.2916,-11.2884,-11.3118,-11.3095,-11.3095,-11.3095,-11.3095,-11.3086,-11.3084,-11.2982,-11.2996,-11.3015,-11.2905,-11.2888,-11.2888,-11.2888,-11.2888,-11.2888,-11.2888,-11.2888,-11.2888,-11.2888,-11.2888,-11.2888,-11.2888,-11.2888,-11.2888,-11.2888,-11.2888,-6.2005,-6.2005,-6.2005,-6.2005,0.0,0.0,-6.2005,-6.6901,0.0,0.0,0.0,0.0,0.0,0.0,0.0,0.0,0.0,0.0,0.0,0.0,0.0,0.0,0.0,0.0,-9.6667,-9.6744,-9.6744,-9.6667,-9.6744,-9.6435,-9.5545,-9.4655,-9.4191,-9.4191,-9.4114,-9.3998,-9.3921,-9.4965,-9.5429,-9.5352,-9.6358,-9.6783,-9.6783,-9.6761,-9.6629,-9.6525,-9.6629,-9.6629,-9.6564,-9.6723,-9.6783,-9.6783,-9.6783,-9.6783,-9.6899,-9.7789,-9.8767,-9.9952,-10.1503,-10.2811,-10.3881,-10.458,-10.4905,-10.501,-10.5876,-10.6201,-10.6292,-10.7197,-10.7416,-10.7416,-10.7416,-10.7416,-10.7391,-10.7301,-10.8103,-10.8983,-10.9785,-11.0705,-11.1586,-11.2281,-11.2486,-11.2612,-11.2669,-11.281,-11.2881,-11.3118,-11.3095,-11.3095,-11.3095,-11.3095,-11.3116,-11.3021,-11.3009,-11.2982,-11.2888,-11.2888,-11.2888,-11.2888,-11.2888,-11.2888,-11.2888,-11.2888,-11.2888,-11.2888,-11.2888,-11.2888,-11.2888,-11.2888,-11.2888,-11.2888,-11.2888,-11.2888,0.0,0.0,0.0,0.0,0.0,0.0,-6.2168,-6.3221,0.0,0.0,0.0,0.0,0.0,0.0,0.0,0.0,0.0,0.0,0.0,0.0,0.0,0.0,0.0,0.0,-9.5816,-9.6396,-9.6512,-9.5816,-9.6396,-9.6435,-9.5545,-9.4655,-9.4191,-9.4191,-9.3572,-9.2915,-9.218,-9.4385,-9.5158,-9.4462,-9.6048,-9.6783,-9.6783,-9.6822,-9.6761,-9.6699,-9.6761,-9.6761,-9.6699,-9.6753,-9.6783,-9.6783,-9.6783,-9.6783,-9.6899,-9.7789,-9.9183,-10.0689,-10.1697,-10.3199,-10.4697,-10.4813,-10.4891,-10.4983,-10.5901,-10.6212,-10.6381,-10.7222,-10.7416,-10.7416,-10.7416,-10.7416,-10.7416,-10.7391,-10.862,-10.9824,-10.9877,-11.1223,-11.2324,-11.2302,-11.2311,-11.2398,-11.2708,-11.2679,-11.2806,-11.3086,-11.3095,-11.3095,-11.3095,-11.3095,-11.3116,-11.3021,-11.3009,-11.2982,-11.2888,-11.2888,-11.2888,-11.2888,-11.2888,-11.2888,-11.2888,-11.2888,-11.2888,-11.2888,-11.2888,-11.2888,-11.2888,-11.2888,-11.2888,-11.2888,-11.2888,-11.2888,0.0,0.0,0.0,-6.2168,0.0,0.0,0.0,-6.3345,0.0,0.0,0.0,0.0,0.0,0.0,0.0,0.0,0.0,0.0,0.0,0.0,0.0,0.0,0.0,0.0,-9.4888,-9.5236,-9.5313,-9.4888,-9.5661,-9.5777,-9.4888,-9.4423,-9.4191,-9.4191,-9.3804,-9.3379,-9.2953,-9.4655,-9.5274,-9.4849,-9.6164,-9.6783,-9.6783,-9.6792,-9.6731,-9.6699,-9.6761,-9.6731,-9.6699,-9.6753,-9.6783,-9.6783,-9.6783,-9.6783,-9.6938,-9.8214,-9.9309,-10.0379,-10.2201,-10.3704,-10.4813,-10.4386,-10.4789,-10.5502,-10.5512,-10.6095,-10.6911,-10.7299,-10.7416,-10.7416,-10.7416,-10.7416,-10.7494,-10.7882,-10.8698,-10.9591,-11.0485,-11.1301,-11.2013,-11.2292,-11.2302,-11.2389,-11.2615,-11.2616,-11.2713,-11.3008,-11.3095,-11.3095,-11.3095,-11.3086,-11.3106,-11.3021,-11.2996,-11.2992,-11.2888,-11.2888,-11.2888,-11.2888,-11.2888,-11.2888,-11.2888,-11.2888,-11.2888,-11.2888,-11.2888,-11.2888,-11.2888,-11.2888,-11.2888,-11.2888,-11.2888,-11.2888,0.0,0.0,0.0,0.0,0.0,-6.2238,0.0,0.0,0.0,0.0,0.0,0.0,0.0,0.0,0.0,0.0,0.0,0.0,0.0,0.0,0.0,0.0,0.0,0.0,0.0,-9.208,-9.3136,-9.4114,-9.5004,-9.5197,-9.4501,-9.4269,-9.4191,-9.4191,-9.4037,-9.3959,-9.3959,-9.5004,-9.5506,-9.5506,-9.6396,-9.6783,-9.6783,-9.6761,-9.6731,-9.6731,-9.6731,-9.6731,-9.6731,-9.6792,-9.6783,-9.6783,-9.6783,-9.6899,-9.7247,-9.8756,-9.9619,-10.0379,-10.2783,-10.4325,-10.5007,-10.4308,-10.4905,-10.5787,-10.5294,-10.6095,-10.7183,-10.7416,-10.7416,-10.7416,-10.7416,-10.7416,-10.761,-10.8309,-10.8581,-10.9086,-11.0485,-11.1106,-11.1508,-11.2115,-11.2297,-11.2386,-11.2375,-11.2404,-11.2408,-11.2617,-11.2587,-11.2587,-11.2587,-11.2715,-11.2799,-11.2697,-11.2875,-11.2922,-11.291,-11.291,-11.291,-11.2888,-11.2888,-11.2888,-11.2888,-11.2888,-11.2888,-11.2888,-11.2888,-11.2888,-11.2888,-11.2888,-11.2888,-11.2888,-11.2888,-11.2888,0.0,0.0,0.0,0.0,-6.2381,0.0,0.0,0.0,-6.3057,-6.3195,0.0,0.0,0.0,0.0,0.0,0.0,0.0,0.0,0.0,0.0,0.0,0.0,0.0,0.0,0.0,-8.4366,-8.9321,-9.3853,-9.5004,-9.5468,-9.5352,-9.4617,-9.4191,-9.4191,-9.3495,-9.3147,-9.3147,-9.4694,-9.5506,-9.5506,-9.6396,-9.6783,-9.6783,-9.6783,-9.6783,-9.6783,-9.6783,-9.6783,-9.6783,-9.6822,-9.6783,-9.6783,-9.6783,-9.7286,-9.806,-9.8988,-10.0393,-10.2085,-10.3907,-10.5217,-10.6017,-10.5901,-10.5512,-10.5202,-10.5823,-10.6212,-10.6484,-10.7183,-10.7416,-10.7416,-10.7416,-10.7416,-10.7416,-10.7494,-10.8115,-10.8814,-10.9009,-11.0213,-11.1314,-11.1272,-11.2021,-11.2404,-11.1721,-11.1479,-11.14,-11.0899,-11.0792,-11.0792,-11.0792,-11.1406,-11.1786,-11.1798,-11.2421,-11.2795,-11.2776,-11.2776,-11.2795,-11.2888,-11.2888,-11.2888,-11.2888,-11.2888,-11.2888,-11.2888,-11.2888,-11.2888,-11.2888,-11.2888,-11.2888,-11.2888,-11.2888,-11.291,0.0,0.0,0.0,0.0,0.0,0.0,-6.5271,0.0,-6.2608,0.0,0.0,0.0,0.0,0.0,0.0,0.0,-6.0614,0.0,0.0,0.0,0.0,0.0,0.0,0.0,0.0,0.0,0.0,0.0,-8.9382,-9.023,-8.9909,-9.3098,-9.4733,-9.423,-9.4346,-9.4462,-9.4462,-9.5158,-9.5739,-9.6241,-9.6628,-9.6783,-9.6783,-9.6783,-9.6783,-9.6783,-9.6783,-9.6783,-9.6783,-9.6783,-9.6783,-9.6783,-9.6783,-9.7294,-9.8114,-9.8957,-10.0093,-10.1487,-10.3325,-10.4596,-10.5512,-10.6017,-10.559,-10.5085,-10.5901,-10.6522,-10.6989,-10.7299,-10.7416,-10.7416,-10.7416,-10.7416,-10.7494,-10.7999,-10.8814,-10.9591,-11.0096,-11.1184,-11.2,-11.2013,-11.2011,-11.1719,-11.0901,-11.1212,-11.1282,-11.0697,-11.0518,-11.0518,-11.0518,-11.12,-11.1603,-11.1588,-11.2307,-11.2697,-11.2697,-11.2795,-11.2776,-11.2814,-11.291,-11.2888,-11.2888,-11.2888,-11.2888,-11.2888,-11.2888,-11.2888,-11.2888,-11.2888,-11.2888,-11.2888,-11.2888,-11.291,-6.9737,0.0,0.0,0.0,0.0,0.0,0.0,0.0,0.0,0.0,0.0,0.0,0.0,0.0,-6.0885,-6.1372,0.0,-6.1875,0.0,0.0,0.0,0.0,0.0,0.0,0.0,0.0,0.0,-8.1065,-8.4202,-8.5846,-8.545,-9.1192,-9.4269,-9.3882,-9.423,-9.4578,-9.481,-9.481,-9.5236,-9.6087,-9.6087,-9.6203,-9.6435,-9.6435,-9.6551,-9.6783,-9.6783,-9.6783,-9.6783,-9.6783,-9.6783,-9.6822,-9.7024,-9.7542,-9.8328,-9.9035,-10.02,-10.1719,-10.3209,-10.4286,-10.5007,-10.559,-10.5085,-10.4386,-10.5512,-10.6289,-10.6794,-10.6989,-10.7183,-10.7416,-10.7416,-10.7416,-10.761,-10.8193,-10.8814,-10.9514,-11.0407,-11.1301,-11.2,-11.2194,-11.2017,-11.1513,-11.05,-11.0603,-11.0703,-10.9987,-10.9816,-10.9885,-11.011,-11.0811,-11.1284,-11.1502,-11.2191,-11.2689,-11.2711,-11.2716,-11.2775,-11.2815,-11.2892,-11.2888,-11.2888,-11.2888,-11.2888,-11.2888,-11.2888,-11.2888,-11.2888,-11.2888,-11.2888,-11.2888,-11.2888,-11.291,0.0,0.0,0.0,-7.042,0.0,0.0,0.0,0.0,-6.2805,0.0,0.0,-6.1594,-6.1557,-6.1557,-6.1557,-6.1594,-6.2254,0.0,0.0,0.0,0.0,0.0,0.0,0.0,0.0,0.0,0.0,-7.6351,-8.1451,-8.4566,-8.4561,-8.9184,-9.2218,-9.3031,-9.2257,-9.2218,-9.307,-9.307,-9.3495,-9.4269,-9.4269,-9.4733,-9.5545,-9.5545,-9.6009,-9.6783,-9.6783,-9.6783,-9.6783,-9.6783,-9.6783,-9.686,-9.7581,-9.8334,-9.9073,-9.9328,-10.1099,-10.348,-10.4415,-10.4803,-10.4891,-10.4891,-10.3803,-10.2715,-10.4386,-10.5007,-10.5202,-10.6017,-10.6794,-10.7416,-10.7416,-10.7416,-10.7416,-10.7416,-10.7494,-10.7688,-10.8581,-10.9514,-11.0291,-11.1184,-11.2087,-11.2197,-11.0588,-10.971,-10.8904,-10.8191,-10.8098,-10.8315,-10.912,-10.978,-11.0593,-11.1314,-11.2075,-11.2608,-11.2604,-11.2604,-11.2711,-11.2815,-11.2892,-11.2888,-11.2888,-11.2888,-11.2888,-11.2888,-11.2888,-11.2888,-11.2888,-11.2888,-11.2888,-11.2888,-11.2888,-11.2795,0.0,0.0,-8.0298,-7.717,0.0,0.0,0.0,0.0,0.0,0.0,0.0,-6.2401,-6.2401,-6.2401,-6.2401,-6.2401,-6.2622,-6.2805,0.0,0.0,0.0,0.0,0.0,0.0,0.0,0.0,0.0,-7.0248,-7.2566,-7.39,-7.4101,-8.2821,-8.7687,-8.7379,-9.075,-9.2721,-9.2992,-9.2992,-9.3418,-9.4191,-9.4772,-9.5197,-9.5506,-9.6087,-9.6512,-9.6783,-9.6783,-9.6783,-9.6783,-9.6783,-9.7131,-9.7711,-9.7952,-9.8856,-9.9989,-10.0187,-10.1099,-10.2514,-10.3587,-10.44,-10.4891,-10.4891,-10.4891,-10.5007,-10.559,-10.6095,-10.66,-10.6911,-10.7183,-10.7416,-10.7416,-10.7416,-10.7416,-10.7416,-10.7804,-10.8504,-10.9397,-11.0213,-11.1106,-11.2,-11.1978,-11.1513,-11.05,-10.9592,-10.8982,-10.8894,-10.841,-10.851,-10.9822,-11.0208,-11.0593,-11.1293,-11.2114,-11.2608,-11.2608,-11.258,-11.2689,-11.2815,-11.2795,-11.2892,-11.2888,-11.2888,-11.2888,-11.2888,-11.2888,-11.2888,-11.2888,-11.2888,-11.2888,-11.2888,-11.2892,-11.2795,-8.2591,-8.4689,0.0,-8.2532,-8.0704,0.0,-7.5604,0.0,-6.7899,0.0,0.0,-6.7022,-6.5432,-6.5175,-6.4646,-6.3062,-6.2805,-6.2805,0.0,-6.2953,0.0,0.0,0.0,0.0,0.0,0.0,-6.4642,-6.4769,-6.6967,-6.8334,0.0,-7.8597,-8.4489,-8.4494,-8.9724,-9.2528,-9.2528,-9.2528,-9.2799,-9.3302,-9.4191,-9.4772,-9.5081,-9.5932,-9.6512,-9.6783,-9.6783,-9.6783,-9.6822,-9.7131,-9.7595,-9.8176,-9.8725,-9.9583,-10.0589,-10.1022,-10.2088,-10.3414,-10.391,-10.4386,-10.4891,-10.4891,-10.5085,-10.5396,-10.6017,-10.66,-10.7416,-10.9203,-10.862,-10.7804,-10.9708,-10.8814,-10.7416,-10.7416,-10.7804,-10.8504,-10.9319,-11.0213,-11.1106,-11.2,-11.2015,-11.1612,-11.0891,-11.01,-10.9411,-10.8894,-10.841,-10.851,-10.9822,-11.0092,-11.0593,-11.1293,-11.2114,-11.2583,-11.2583,-11.2619,-11.2611,-11.2716,-11.2795,-11.2795,-11.2892,-11.291,-11.3398,-11.4684,-11.3515,-11.3379,-11.4684,-11.3476,-11.291,-11.2888,-11.2795,-11.2795]}]]